[[{"header":{"parameterUnit":"m.s-1","parameterCategory":1,"la1":30.6,"la2":28.766,"lo1":-90.7593,"lo2":-88.6598,"dy":0.0162,"dx":0.0183,"nx":116,"ny":114,"refTime":"2024-04-27T12:00:00:Z","depth":0,"parameterNumber":2,"parameterNumberName":"U-component_of_WINDS"},"data":[0.0,0.0,0.0,0.0,0.0,0.0,0.0,0.0,0.0,0.0,0.0,0.0,0.0,0.0,0.0,0.0,0.0,0.0,0.0,0.0,0.0,0.0,0.0,0.0,0.0,0.0,0.0,0.0,0.0,0.0,0.0,0.0,0.0,0.0,0.0,0.0,0.0,0.0,0.0,0.0,0.0,0.0,0.0,0.0,0.0,0.0,0.0,0.0,0.0,0.0,0.0,0.0,0.0,0.0,0.0,0.0,0.0,0.0,0.0,0.0,0.0,0.0,0.0,0.0,0.0,0.0,0.0,0.0,0.0,0.0,0.0,0.0,0.0,0.0,0.0,0.0,0.0,0.0,0.0,0.0,0.0,0.0,0.0,0.0,0.0,0.0,0.0,0.0,0.0,0.0,0.0,0.0,0.0,0.0,0.0,0.0,0.0,0.0,0.0,0.0,0.0,0.0,0.0,0.0,0.0,0.0,0.0,0.0,0.0,0.0,0.0,0.0,0.0,0.0,0.0,0.0,0.0,0.0,0.0,0.0,0.0,0.0,0.0,0.0,0.0,0.0,0.0,0.0,0.0,0.0,0.0,0.0,0.0,0.0,0.0,0.0,0.0,0.0,0.0,0.0,0.0,0.0,0.0,0.0,0.0,0.0,0.0,0.0,0.0,0.0,0.0,0.0,0.0,0.0,0.0,0.0,0.0,0.0,0.0,0.0,0.0,0.0,0.0,0.0,0.0,0.0,0.0,0.0,0.0,0.0,0.0,0.0,0.0,0.0,0.0,0.0,0.0,0.0,0.0,0.0,0.0,0.0,0.0,0.0,0.0,0.0,0.0,0.0,0.0,0.0,0.0,0.0,0.0,0.0,0.0,0.0,0.0,0.0,0.0,0.0,0.0,0.0,0.0,0.0,0.0,0.0,0.0,0.0,0.0,0.0,0.0,0.0,0.0,0.0,0.0,0.0,0.0,0.0,0.0,0.0,0.0,0.0,0.0,0.0,0.0,0.0,0.0,0.0,0.0,0.0,0.0,0.0,0.0,0.0,0.0,0.0,0.0,0.0,0.0,0.0,0.0,0.0,0.0,0.0,0.0,0.0,0.0,0.0,0.0,0.0,0.0,0.0,0.0,0.0,0.0,0.0,0.0,0.0,0.0,0.0,0.0,0.0,0.0,0.0,0.0,0.0,0.0,0.0,0.0,0.0,0.0,0.0,0.0,0.0,0.0,0.0,0.0,0.0,0.0,0.0,0.0,0.0,0.0,0.0,0.0,0.0,0.0,0.0,0.0,0.0,0.0,0.0,0.0,0.0,0.0,0.0,0.0,0.0,0.0,0.0,0.0,0.0,0.0,0.0,0.0,0.0,0.0,0.0,0.0,0.0,0.0,0.0,0.0,0.0,0.0,0.0,0.0,0.0,0.0,0.0,0.0,0.0,0.0,0.0,0.0,0.0,0.0,0.0,0.0,0.0,0.0,0.0,0.0,0.0,0.0,0.0,0.0,0.0,0.0,0.0,0.0,0.0,0.0,0.0,0.0,0.0,0.0,0.0,0.0,0.0,0.0,0.0,0.0,0.0,0.0,0.0,0.0,0.0,0.0,0.0,0.0,0.0,0.0,0.0,0.0,0.0,0.0,0.0,0.0,0.0,0.0,0.0,0.0,0.0,0.0,0.0,0.0,0.0,0.0,0.0,0.0,0.0,0.0,0.0,0.0,0.0,0.0,0.0,0.0,0.0,0.0,0.0,0.0,0.0,0.0,0.0,0.0,0.0,0.0,0.0,0.0,0.0,0.0,0.0,0.0,0.0,0.0,0.0,0.0,0.0,0.0,0.0,0.0,0.0,0.0,0.0,0.0,0.0,0.0,0.0,0.0,0.0,0.0,0.0,0.0,0.0,0.0,0.0,0.0,0.0,0.0,0.0,0.0,0.0,0.0,0.0,0.0,0.0,0.0,0.0,0.0,0.0,0.0,0.0,0.0,0.0,0.0,0.0,0.0,0.0,0.0,0.0,0.0,0.0,0.0,0.0,0.0,0.0,0.0,0.0,0.0,0.0,0.0,0.0,0.0,0.0,0.0,0.0,0.0,0.0,0.0,0.0,0.0,0.0,0.0,0.0,0.0,0.0,0.0,0.0,0.0,0.0,0.0,0.0,0.0,0.0,0.0,0.0,0.0,0.0,0.0,0.0,0.0,0.0,0.0,0.0,0.0,0.0,0.0,0.0,0.0,0.0,0.0,0.0,0.0,0.0,0.0,0.0,0.0,0.0,0.0,0.0,0.0,0.0,0.0,0.0,0.0,0.0,0.0,0.0,0.0,0.0,0.0,0.0,0.0,0.0,0.0,0.0,0.0,0.0,0.0,0.0,0.0,0.0,0.0,0.0,0.0,0.0,0.0,0.0,0.0,0.0,0.0,0.0,0.0,0.0,0.0,0.0,0.0,0.0,0.0,0.0,0.0,0.0,0.0,0.0,0.0,0.0,0.0,0.0,0.0,0.0,0.0,0.0,0.0,0.0,0.0,0.0,0.0,0.0,0.0,0.0,0.0,0.0,0.0,0.0,0.0,0.0,0.0,0.0,0.0,0.0,0.0,0.0,0.0,0.0,0.0,0.0,0.0,0.0,0.0,0.0,0.0,0.0,0.0,0.0,0.0,0.0,0.0,0.0,0.0,0.0,0.0,0.0,0.0,0.0,0.0,0.0,0.0,0.0,0.0,0.0,0.0,0.0,0.0,0.0,0.0,0.0,0.0,0.0,0.0,0.0,0.0,0.0,0.0,0.0,0.0,0.0,0.0,0.0,0.0,0.0,0.0,0.0,0.0,0.0,0.0,0.0,0.0,0.0,0.0,0.0,0.0,0.0,0.0,0.0,0.0,0.0,0.0,0.0,0.0,0.0,0.0,0.0,0.0,0.0,0.0,0.0,0.0,0.0,0.0,0.0,0.0,0.0,0.0,0.0,0.0,0.0,0.0,0.0,0.0,0.0,0.0,0.0,0.0,0.0,0.0,0.0,0.0,0.0,0.0,0.0,0.0,0.0,0.0,0.0,0.0,0.0,0.0,0.0,0.0,0.0,0.0,0.0,0.0,0.0,0.0,0.0,0.0,0.0,0.0,0.0,0.0,0.0,0.0,0.0,0.0,0.0,0.0,0.0,0.0,0.0,0.0,0.0,0.0,0.0,0.0,0.0,0.0,0.0,0.0,0.0,0.0,0.0,0.0,0.0,0.0,0.0,0.0,0.0,0.0,0.0,0.0,0.0,0.0,0.0,0.0,0.0,0.0,0.0,0.0,0.0,0.0,0.0,0.0,0.0,0.0,0.0,0.0,0.0,0.0,0.0,0.0,0.0,0.0,0.0,0.0,0.0,0.0,0.0,0.0,0.0,0.0,0.0,0.0,0.0,0.0,0.0,0.0,0.0,0.0,0.0,0.0,0.0,0.0,0.0,0.0,0.0,0.0,0.0,0.0,0.0,0.0,0.0,0.0,0.0,0.0,0.0,0.0,0.0,0.0,0.0,0.0,0.0,0.0,0.0,0.0,0.0,0.0,0.0,0.0,0.0,0.0,0.0,0.0,0.0,0.0,0.0,0.0,0.0,0.0,0.0,0.0,0.0,0.0,0.0,0.0,0.0,0.0,0.0,0.0,0.0,0.0,0.0,0.0,0.0,0.0,0.0,0.0,0.0,0.0,0.0,0.0,0.0,0.0,0.0,0.0,0.0,0.0,0.0,0.0,0.0,0.0,0.0,0.0,0.0,0.0,0.0,0.0,0.0,0.0,0.0,0.0,0.0,0.0,0.0,0.0,0.0,0.0,0.0,0.0,0.0,0.0,0.0,0.0,0.0,0.0,0.0,0.0,0.0,0.0,0.0,0.0,0.0,0.0,0.0,0.0,0.0,0.0,0.0,0.0,0.0,0.0,0.0,0.0,0.0,0.0,0.0,0.0,0.0,0.0,0.0,0.0,0.0,0.0,0.0,0.0,0.0,0.0,0.0,0.0,0.0,0.0,0.0,0.0,0.0,0.0,0.0,0.0,0.0,0.0,0.0,0.0,0.0,0.0,0.0,0.0,0.0,0.0,0.0,0.0,0.0,0.0,0.0,0.0,0.0,0.0,0.0,0.0,0.0,0.0,0.0,0.0,0.0,0.0,0.0,0.0,0.0,0.0,0.0,0.0,0.0,0.0,0.0,0.0,0.0,0.0,0.0,0.0,0.0,0.0,0.0,0.0,0.0,0.0,0.0,0.0,0.0,0.0,0.0,0.0,0.0,0.0,0.0,0.0,0.0,0.0,0.0,0.0,0.0,0.0,0.0,0.0,0.0,0.0,0.0,0.0,0.0,0.0,0.0,0.0,0.0,0.0,0.0,0.0,0.0,0.0,0.0,0.0,0.0,0.0,0.0,0.0,0.0,0.0,0.0,0.0,0.0,0.0,0.0,0.0,0.0,0.0,0.0,0.0,0.0,0.0,0.0,0.0,0.0,0.0,0.0,0.0,0.0,0.0,0.0,0.0,0.0,0.0,0.0,0.0,0.0,0.0,0.0,0.0,0.0,0.0,0.0,0.0,0.0,0.0,0.0,0.0,0.0,0.0,0.0,0.0,0.0,0.0,0.0,0.0,0.0,0.0,0.0,0.0,0.0,0.0,0.0,0.0,0.0,0.0,0.0,0.0,0.0,0.0,0.0,0.0,0.0,0.0,0.0,0.0,0.0,0.0,0.0,0.0,0.0,0.0,0.0,0.0,0.0,0.0,0.0,0.0,0.0,0.0,0.0,0.0,0.0,0.0,0.0,0.0,0.0,0.0,0.0,0.0,0.0,0.0,0.0,0.0,0.0,0.0,0.0,0.0,0.0,0.0,0.0,0.0,0.0,0.0,0.0,0.0,0.0,0.0,0.0,0.0,0.0,0.0,0.0,0.0,0.0,0.0,0.0,0.0,0.0,0.0,0.0,0.0,0.0,0.0,0.0,0.0,0.0,0.0,0.0,0.0,0.0,0.0,0.0,0.0,0.0,0.0,0.0,0.0,0.0,0.0,0.0,0.0,0.0,0.0,0.0,0.0,0.0,0.0,0.0,0.0,0.0,0.0,0.0,0.0,0.0,0.0,0.0,0.0,0.0,0.0,0.0,0.0,0.0,0.0,0.0,0.0,0.0,0.0,0.0,0.0,0.0,0.0,0.0,0.0,0.0,0.0,0.0,0.0,0.0,0.0,0.0,0.0,0.0,0.0,0.0,0.0,0.0,0.0,0.0,0.0,0.0,0.0,0.0,0.0,0.0,0.0,0.0,0.0,0.0,0.0,0.0,0.0,0.0,0.0,0.0,0.0,0.0,0.0,0.0,0.0,0.0,0.0,0.0,0.0,0.0,0.0,0.0,0.0,0.0,0.0,0.0,0.0,0.0,0.0,0.0,0.0,0.0,0.0,0.0,0.0,0.0,0.0,0.0,0.0,0.0,0.0,0.0,0.0,0.0,0.0,0.0,0.0,0.0,0.0,0.0,0.0,0.0,0.0,0.0,0.0,0.0,0.0,0.0,0.0,0.0,0.0,0.0,0.0,0.0,0.0,0.0,0.0,0.0,0.0,0.0,0.0,0.0,0.0,0.0,0.0,0.0,0.0,0.0,0.0,0.0,0.0,0.0,0.0,0.0,0.0,0.0,0.0,0.0,0.0,0.0,0.0,0.0,0.0,0.0,0.0,0.0,0.0,0.0,0.0,0.0,0.0,0.0,0.0,0.0,0.0,0.0,0.0,0.0,0.0,0.0,0.0,0.0,0.0,0.0,0.0,0.0,0.0,0.0,0.0,0.0,0.0,0.0,0.0,0.0,0.0,0.0,0.0,0.0,0.0,0.0,0.0,0.0,0.0,0.0,0.0,0.0,0.0,0.0,0.0,0.0,0.0,0.0,0.0,0.0,0.0,0.0,0.0,0.0,0.0,0.0,0.0,0.0,0.0,0.0,0.0,0.0,0.0,0.0,0.0,0.0,0.0,0.0,0.0,0.0,0.0,0.0,0.0,0.0,0.0,0.0,0.0,0.0,0.0,0.0,0.0,0.0,0.0,0.0,0.0,0.0,0.0,0.0,0.0,0.0,0.0,0.0,0.0,0.0,0.0,0.0,-2.9255,0.0,0.0,0.0,0.0,0.0,0.0,0.0,0.0,0.0,0.0,0.0,0.0,0.0,0.0,0.0,0.0,0.0,0.0,0.0,0.0,0.0,0.0,0.0,0.0,-2.2242,-2.2214,-2.2257,-2.2194,-2.2194,-2.2257,0.0,0.0,0.0,0.0,0.0,-2.1731,-2.1366,-2.1563,-2.2313,-2.3714,-2.5338,-2.7131,-2.7165,-2.6048,-2.3966,0.0,0.0,0.0,0.0,0.0,0.0,0.0,0.0,0.0,0.0,0.0,0.0,0.0,0.0,0.0,0.0,0.0,0.0,0.0,0.0,0.0,0.0,0.0,0.0,0.0,0.0,0.0,0.0,0.0,0.0,0.0,0.0,0.0,0.0,0.0,0.0,0.0,0.0,0.0,0.0,0.0,0.0,0.0,0.0,0.0,0.0,0.0,0.0,0.0,0.0,0.0,0.0,0.0,0.0,0.0,0.0,0.0,0.0,0.0,0.0,0.0,0.0,0.0,0.0,0.0,0.0,0.0,0.0,0.0,0.0,0.0,-2.9464,0.0,0.0,0.0,0.0,0.0,0.0,0.0,0.0,0.0,0.0,0.0,0.0,0.0,0.0,0.0,0.0,0.0,0.0,0.0,0.0,0.0,-2.2299,-2.2313,-2.2242,-2.2214,-2.2228,-2.2104,-2.2137,-2.2396,-2.2295,0.0,0.0,-2.1786,-2.1393,-2.1393,-2.1393,-2.1887,-2.2888,-2.5845,-2.8619,-3.119,-3.0581,-2.8247,-2.456,-2.4695,0.0,0.0,0.0,0.0,0.0,0.0,0.0,0.0,0.0,0.0,0.0,0.0,0.0,0.0,0.0,0.0,0.0,0.0,0.0,0.0,0.0,0.0,0.0,0.0,0.0,0.0,0.0,0.0,0.0,0.0,0.0,0.0,0.0,0.0,0.0,0.0,0.0,0.0,0.0,0.0,0.0,0.0,0.0,0.0,0.0,0.0,0.0,0.0,0.0,0.0,0.0,0.0,0.0,0.0,0.0,0.0,0.0,0.0,0.0,0.0,0.0,0.0,0.0,-3.4251,-3.4825,-3.6068,-3.6068,-3.6068,-3.5958,-3.4197,-3.3353,-3.3096,-3.1262,0.0,0.0,0.0,0.0,0.0,0.0,0.0,0.0,0.0,0.0,0.0,0.0,0.0,0.0,0.0,0.0,0.0,0.0,0.0,-2.2242,-2.2279,-2.2242,-2.2228,-2.2299,-2.2265,-2.2535,-2.3192,-2.2651,-2.2584,-2.3241,-2.2564,-2.2144,-2.2144,-2.2144,-2.3124,-2.5169,-2.818,-3.0176,-3.119,-3.1089,-3.0412,-2.9262,-2.9871,-2.9059,-2.7215,0.0,0.0,0.0,0.0,0.0,0.0,0.0,0.0,0.0,0.0,0.0,0.0,0.0,0.0,0.0,0.0,0.0,0.0,0.0,0.0,0.0,0.0,0.0,0.0,0.0,0.0,0.0,0.0,0.0,0.0,0.0,0.0,0.0,0.0,0.0,0.0,0.0,0.0,0.0,0.0,0.0,-2.5033,-2.7185,0.0,0.0,0.0,0.0,0.0,0.0,0.0,0.0,0.0,0.0,0.0,0.0,0.0,-3.405,-3.405,-3.6413,-3.7404,-3.7052,-3.9019,-4.0104,-4.0288,-4.0288,-4.0288,-4.0178,-3.7845,0.0,-3.5826,-3.6244,0.0,0.0,0.0,0.0,0.0,0.0,0.0,0.0,0.0,0.0,0.0,0.0,0.0,0.0,0.0,0.0,0.0,0.0,0.0,0.0,0.0,-2.2979,-2.3669,-2.4044,-2.4901,-2.5356,-2.527,-2.456,-2.3951,-2.341,-2.2293,-2.1684,-2.1684,-2.2076,-2.4206,-2.8146,-3.0717,-3.278,-3.4358,-3.4358,-3.4404,-3.4506,-3.437,-3.2374,-2.9075,-2.9075,0.0,0.0,0.0,0.0,0.0,0.0,0.0,0.0,0.0,0.0,0.0,0.0,0.0,0.0,0.0,0.0,0.0,0.0,0.0,0.0,0.0,0.0,0.0,0.0,0.0,0.0,0.0,0.0,0.0,0.0,0.0,0.0,0.0,0.0,0.0,0.0,0.0,0.0,0.0,-2.5624,-2.7801,-2.9715,-2.9791,-2.929,0.0,0.0,0.0,0.0,0.0,0.0,0.0,0.0,0.0,-3.4307,-3.5679,-3.6633,-3.7059,-3.904,-4.0341,-4.0871,-4.1919,-4.2433,-4.2433,-4.2433,-4.2433,-4.2396,-4.1348,-4.043,-3.957,-3.8117,-3.7309,-3.6795,0.0,0.0,0.0,0.0,-3.0723,-3.065,0.0,0.0,0.0,0.0,0.0,0.0,0.0,0.0,0.0,0.0,0.0,0.0,-2.2796,-2.4326,-2.5542,-2.6017,-2.7281,-2.7755,-2.6978,-2.6067,-2.5002,-2.3748,-2.2274,-2.1495,-2.1495,-2.3342,-2.6573,-3.1224,-3.3457,-3.5419,-3.71,-3.71,-3.7381,-3.7889,-3.7313,-3.481,-3.0934,-3.0751,-2.9803,-2.8297,0.0,0.0,0.0,0.0,0.0,0.0,0.0,0.0,0.0,0.0,0.0,0.0,0.0,0.0,0.0,0.0,0.0,0.0,0.0,0.0,0.0,0.0,0.0,0.0,0.0,0.0,0.0,0.0,0.0,0.0,0.0,0.0,0.0,0.0,0.0,0.0,0.0,-2.8212,-2.9982,-3.217,-3.223,-3.1898,0.0,0.0,0.0,0.0,0.0,0.0,-3.5018,-3.5811,-3.6252,-3.6266,-3.808,-3.9439,-4.023,-4.1425,-4.2727,-4.4085,-4.4085,-4.4085,-4.4085,-4.4085,-4.3975,-4.3791,-4.3791,-4.3351,-4.2396,-3.9806,-3.8631,-3.8374,-3.797,-3.667,-3.5055,-3.5004,-3.5004,-3.5018,0.0,0.0,0.0,0.0,0.0,0.0,0.0,0.0,0.0,0.0,0.0,-2.4372,-2.4372,-2.6353,-2.7602,-2.7581,-2.8288,-2.8422,-2.7698,-2.6236,-2.5108,-2.4474,-2.3038,-2.2245,-2.2245,-2.7148,-3.1224,-3.4269,-3.6569,-3.7753,-3.7855,-3.7855,-3.7855,-3.7922,-3.7855,-3.6129,-3.3186,-3.2496,-3.1345,-2.9803,-2.7571,0.0,0.0,0.0,0.0,0.0,0.0,0.0,0.0,0.0,0.0,0.0,0.0,0.0,0.0,0.0,0.0,0.0,0.0,0.0,0.0,0.0,0.0,0.0,0.0,0.0,0.0,0.0,0.0,0.0,0.0,0.0,0.0,0.0,0.0,0.0,0.0,0.0,0.0,-3.4452,-3.6236,0.0,0.0,0.0,0.0,-3.2693,-3.4014,-3.5958,-3.8322,-3.9203,-4.0671,-4.2964,-4.3147,-4.3571,-4.4397,-4.4471,-4.4966,-4.5773,-4.5773,-4.5773,-4.5773,-4.5773,-4.5369,-4.4635,-4.4635,-4.4195,-4.3351,-4.2433,-4.1625,-4.0765,-3.9239,-3.8579,-3.8175,-3.5848,-3.6472,-3.8358,0.0,0.0,0.0,0.0,0.0,-2.2046,-2.2013,-2.2118,-2.2257,-2.2271,-2.3564,-2.463,-2.4993,-2.748,-2.9517,-3.0381,-3.1597,-3.2062,-3.1415,-2.9072,-2.7401,-2.6657,-2.4763,-2.4831,-2.7266,-3.1021,-3.3694,-3.5216,-3.7043,-3.8159,-3.8599,-3.8599,-3.887,-3.93,-3.8802,-3.8024,-3.6941,-3.6231,-3.4472,-3.2171,-3.1326,-2.9431,0.0,0.0,0.0,0.0,0.0,0.0,0.0,0.0,0.0,0.0,0.0,0.0,0.0,0.0,0.0,0.0,0.0,0.0,0.0,0.0,0.0,0.0,0.0,0.0,0.0,0.0,0.0,0.0,0.0,0.0,0.0,0.0,0.0,0.0,0.0,0.0,0.0,-3.7003,-3.7579,0.0,-3.7456,-3.8191,-3.8302,-3.7419,-3.927,-4.1075,-4.2506,-4.2837,-4.3608,-4.5002,-4.5039,-4.5186,-4.548,-4.548,-4.5626,-4.5883,-4.5883,-4.5883,-4.5883,-4.5883,-4.5736,-4.548,-4.548,-4.5296,-4.5002,-4.4745,-4.3828,-4.258,-4.1992,-4.1772,-4.1662,-4.0818,-4.1038,-4.1662,0.0,0.0,0.0,-2.107,-2.1536,-2.1926,-2.1998,-2.2089,-2.2396,-2.2955,-2.4529,-2.5916,-2.6737,-2.9542,-3.1745,-3.2655,-3.3906,-3.4039,-3.2684,-3.0485,-2.8563,-2.7114,-2.6116,-2.7469,-3.1495,-3.3728,-3.5487,-3.6772,-3.8024,-3.887,-3.9368,-3.9368,-3.9639,-4.0079,-3.9605,-3.9368,-3.9334,-3.8836,-3.7212,-3.4844,-3.4066,-3.1529,-2.8112,0.0,0.0,0.0,0.0,0.0,0.0,0.0,0.0,0.0,0.0,0.0,0.0,0.0,0.0,0.0,0.0,0.0,0.0,0.0,0.0,0.0,0.0,0.0,0.0,0.0,0.0,0.0,0.0,0.0,0.0,0.0,0.0,0.0,0.0,0.0,-3.5166,-3.8898,-3.9298,-3.9586,-4.0403,-4.1199,-4.1662,-4.1625,-4.3326,-4.4597,-4.5076,-4.5112,-4.5369,-4.5883,-4.6177,-4.6434,-4.6728,-4.6985,-4.7278,-4.7535,-4.7535,-4.7535,-4.7535,-4.7278,-4.6691,-4.592,-4.6177,-4.5847,-4.5112,-4.5663,-4.5259,-4.4268,-4.4011,-4.3901,-4.3864,-4.3625,-4.3515,-4.3441,0.0,-2.0477,-2.0845,-2.1055,-2.1536,-2.1926,-2.1998,-2.2089,-2.2748,-2.4222,-2.632,-2.8269,-2.9715,-3.2526,-3.4264,-3.4253,-3.4889,-3.4097,-3.1248,-3.0221,-2.8531,-2.5863,-2.7215,-3.0055,-3.4506,-3.5351,-3.684,-3.9039,-3.9774,-4.0113,-4.0146,-4.0146,-4.0146,-4.0146,-4.0146,-4.0113,-4.0113,-4.0113,-3.9276,-3.7787,-3.552,-3.3288,-3.1055,0.0,0.0,0.0,0.0,0.0,0.0,0.0,0.0,0.0,0.0,0.0,0.0,0.0,0.0,0.0,0.0,0.0,0.0,0.0,0.0,0.0,0.0,0.0,0.0,0.0,0.0,0.0,0.0,0.0,0.0,0.0,0.0,0.0,-3.1886,-3.5378,-3.8474,-4.0141,-4.1609,-4.2873,-4.3788,-4.4532,-4.4923,-4.4849,-4.5659,-4.6102,-4.6012,-4.5957,-4.5957,-4.5957,-4.6709,-4.7516,-4.8306,-4.9187,-5.0031,-5.0802,-5.0802,-5.0802,-5.0765,-5.0014,-4.8325,-4.6104,-4.6856,-4.5883,-4.3845,-4.5369,-4.603,-4.592,-4.5076,-4.4745,-4.4635,-4.3864,-4.3588,-4.3588,-1.9581,-2.0154,-2.0663,-2.0665,-2.1353,-2.1926,-2.1998,-2.2089,-2.2363,-2.2854,-2.5713,-2.8068,-2.8994,-3.2173,-3.4488,-3.507,-3.5328,-3.4667,-3.2853,-3.0991,-2.9661,-2.8906,-3.1292,-3.3998,-3.6907,-3.8193,-3.9165,-3.9808,-4.0011,-4.0383,-4.0899,-4.0899,-4.0899,-4.0899,-4.0899,-4.0595,-4.0113,-4.0113,-3.9876,-3.9402,-3.8227,-3.6096,-3.3525,0.0,0.0,0.0,0.0,0.0,0.0,0.0,0.0,0.0,0.0,0.0,0.0,0.0,0.0,0.0,0.0,0.0,0.0,0.0,0.0,0.0,0.0,0.0,0.0,0.0,0.0,0.0,0.0,0.0,0.0,0.0,-3.4179,-3.663,-3.6259,-3.7694,-3.9991,-4.3341,-4.4209,-4.477,-4.5483,-4.5759,-4.5907,-4.5838,-4.6523,-4.7206,-4.7758,-4.7132,-4.7058,-4.7609,-4.7865,-4.8067,-4.8306,-4.9738,-5.0582,-5.0802,-5.0802,-5.0802,-5.0802,-5.0582,-5.0105,-4.9481,-4.9701,-4.9407,-4.8783,-4.8656,-4.8582,-4.8399,-4.6361,-4.5553,-4.5553,-4.5333,-4.5223,-4.5076,-1.969,-2.0224,-2.0697,-2.0747,-2.1353,-2.1882,-2.1984,-2.2075,-2.2368,-2.3124,-2.6068,-2.8501,-2.9599,-3.2655,-3.4879,-3.535,-3.5486,-3.4487,-3.209,-3.0475,-3.0615,-3.2814,-3.4561,-3.6502,-3.8768,-3.9673,-4.0248,-4.0561,-4.0561,-4.0933,-4.1644,-4.1644,-4.1644,-4.1644,-4.1644,-4.1238,-4.0561,-4.0561,-4.0383,-4.0079,-3.9639,-3.7652,-3.4979,-3.4979,-3.3322,-3.0987,-3.0683,-3.0277,-2.9822,-2.9025,0.0,0.0,0.0,0.0,0.0,0.0,0.0,0.0,0.0,0.0,0.0,0.0,0.0,0.0,0.0,0.0,0.0,0.0,0.0,0.0,0.0,0.0,0.0,0.0,-3.6835,-4.0234,-4.042,-4.1163,-4.2559,-4.4925,-4.5482,-4.6021,-4.6769,-4.7068,-4.7403,-4.7682,-4.8403,-4.8991,-4.9448,-4.8949,-4.8544,-4.8306,-4.9297,-4.9517,-4.8857,-5.0802,-5.183,-5.183,-5.183,-5.183,-5.1793,-5.1463,-5.0912,0.0,-5.0655,-5.0398,-4.9774,-4.9994,-5.0105,0.0,0.0,0.0,0.0,0.0,-4.5883,-4.5773,-2.0063,-2.046,-2.0795,-2.1071,-2.1478,-2.1812,-2.1969,-2.2013,-2.2641,-2.4391,-2.6941,-2.9283,-3.0945,-3.3671,-3.5314,-3.5314,-3.5295,-3.3814,-3.0373,-2.9578,-3.1495,-3.6592,-3.6897,-3.7912,-4.0045,-4.018,-4.0527,-4.1204,-4.1271,-4.1711,-4.2422,-4.2422,-4.2422,-4.2422,-4.2422,-4.2016,-4.1305,-4.1238,-4.0832,-4.0214,-4.0146,-3.8497,-3.6107,-3.6005,-3.4709,-3.2835,-3.2104,-3.1765,-3.1562,-3.0751,0.0,0.0,0.0,0.0,0.0,0.0,0.0,0.0,0.0,0.0,0.0,0.0,0.0,0.0,0.0,0.0,0.0,0.0,0.0,0.0,0.0,0.0,0.0,0.0,-3.8971,-4.2537,-4.4061,-4.5101,-4.5658,-4.5584,-4.6186,-4.6932,-4.787,-4.8547,-4.9196,-4.9898,-5.0652,-5.1052,-5.0973,0.0,0.0,0.0,0.0,-5.1189,-4.9757,-5.205,-5.3203,-5.3203,-5.3203,-5.3203,-5.3167,-5.2454,-5.1373,-5.0051,-5.0765,-5.0251,-4.8967,-5.0362,-5.0875,-5.0582,-4.836,-4.7443,-4.7259,-4.6361,-4.6104,-4.614,-2.0063,-2.0206,-2.0465,-2.1023,-2.1261,-2.1541,-2.194,-2.2013,-2.2809,-2.5085,-2.7347,-2.9618,-3.1813,-3.4105,-3.5486,-3.5486,-3.443,-3.3246,-3.1914,-3.1078,-3.2448,-3.6626,-3.7347,-3.843,-4.0079,-4.0663,-4.1068,-4.1204,-4.1813,-4.2455,-4.32,-4.32,-4.32,-4.32,-4.32,-4.2794,-4.2049,-4.1441,-4.1136,-4.0933,-4.035,-3.9774,-3.9165,-3.8565,-3.7719,-3.6705,-3.5983,-3.5284,-3.4551,-3.3199,-3.238,-3.2008,-3.2422,-3.1397,0.0,0.0,0.0,0.0,0.0,0.0,0.0,0.0,0.0,0.0,0.0,0.0,0.0,0.0,0.0,0.0,0.0,0.0,0.0,-3.9871,-4.2649,-4.4915,-4.5881,-4.7293,-4.7961,-4.7293,-4.7907,-4.8689,-4.9489,-5.0341,-5.0879,-5.0917,-5.1656,-5.2099,-5.2099,-5.1412,-5.0855,-5.0426,-5.0868,-5.0939,-5.0582,-5.2344,-5.3203,-5.3203,0.0,0.0,-5.3167,-5.3041,-5.2821,-5.2527,-5.2674,-5.2543,-5.2234,-5.1903,-5.1389,-5.0765,-5.0288,-4.9701,-4.893,-4.7406,-4.7259,-4.7645,-2.0085,-2.0189,-2.0398,-2.1087,-2.1277,-2.1464,-2.194,-2.2013,-2.2593,-2.4274,-2.632,-2.856,-3.0954,-3.2441,-3.3367,-3.3715,-3.2047,-3.1638,-3.3288,-3.2934,-3.4385,-3.8285,-3.8802,-3.9368,-4.0079,-4.0485,-4.1001,-4.1745,-4.2117,-4.2861,-4.4012,-4.4012,-4.4012,-4.4012,-4.4012,-4.3572,-4.2794,-4.2049,-4.1542,-4.1136,-4.0417,-4.0113,-4.0011,-3.9276,-3.8531,-3.7855,-3.7483,-3.684,-3.6096,-3.5351,-3.4682,-3.4265,-3.4512,-3.4062,-3.2896,0.0,0.0,0.0,0.0,0.0,0.0,0.0,0.0,0.0,0.0,0.0,0.0,0.0,0.0,-3.4346,-3.5501,0.0,-3.9622,-4.1854,-4.3949,-4.5844,-4.7478,-4.8742,-4.9187,-4.8407,-4.941,-5.047,-5.125,-5.1677,-5.2047,-5.2417,-5.2766,-5.2969,-5.2969,-5.2929,-5.252,-5.1612,-5.2756,-5.2991,-5.2116,-5.3676,-5.428,-5.3812,-5.3812,-5.3592,-5.3203,-5.3203,-5.3203,-5.3203,-5.3203,-5.3209,-5.3235,-5.2831,-5.2385,-5.2013,-5.2013,-5.1242,-5.0105,-4.926,-4.9224,-4.9444,-2.005,-2.0102,-2.0378,-2.1183,-2.1246,-2.1402,-2.194,-2.2013,-2.2507,-2.3868,-2.5494,-2.75,-3.0021,-3.062,-3.0931,-3.1174,-2.9694,-3.0302,-3.4023,-3.443,-3.6184,-3.9893,-4.0087,-4.0113,-4.0113,-4.0248,-4.0993,-4.2286,-4.2422,-4.3234,-4.4615,-4.4615,-4.4615,-4.4615,-4.4615,-4.4147,-4.3341,-4.2625,-4.188,-4.1136,-4.0417,-4.0113,-4.0045,-3.9436,-3.8667,-3.7889,-3.7753,-3.7212,-3.6592,-3.6592,-3.622,-3.5822,-3.5822,-3.6485,-3.6255,-3.1358,-3.1887,0.0,0.0,0.0,0.0,0.0,0.0,0.0,0.0,-3.2792,-3.3547,-3.4222,-3.5535,-3.6924,-3.789,-3.94,-4.1237,-4.3392,-4.5026,-4.6735,-4.8853,-4.9968,-5.0339,-4.9707,-5.0822,-5.1899,-5.2531,-5.2622,-5.3029,-5.3881,-5.3859,-5.3874,-5.4021,-5.465,-5.4391,-5.306,-5.4946,-5.5291,-5.3896,-5.5186,-5.5454,-5.4684,-5.4684,-5.4354,-5.3686,-5.354,-5.3466,-5.3445,-5.3298,-5.3251,-5.3318,-5.3318,-5.3277,-5.3251,-5.3209,-5.2438,-5.1263,-5.1099,-5.0969,-5.0802,-1.9762,-1.9762,-2.0102,-2.1198,-2.1103,-2.1151,-2.2036,-2.2075,-2.3044,-2.5931,-2.6522,-2.7807,-3.0751,-3.0528,-2.9664,-2.8363,-2.9072,-3.0624,-3.3186,-3.4588,-3.6734,-3.9775,-4.0037,-4.0113,-4.0113,-4.073,-4.1474,-4.2286,-4.2963,-4.3741,-4.4615,-4.4615,-4.4615,-4.4615,-4.4615,-4.4147,-4.3341,-4.2625,-4.188,-4.1136,-4.0417,-4.0113,-4.0079,-4.0011,-3.9106,-3.7821,-3.7144,-3.64,-3.5735,-3.5735,-3.5846,-3.5975,-3.5975,-3.6324,-3.618,-3.3127,-3.267,-3.2198,-2.7845,-2.6131,-2.6179,-2.8749,-3.1061,-3.3209,0.0,-3.848,-4.0781,-3.9749,-4.1986,-4.413,-4.4273,-4.5048,-4.5992,-4.6995,-4.7924,-4.8853,-4.9819,-5.1342,-5.2308,-5.2197,-5.2345,-5.2494,-5.2605,-5.3218,-5.3998,-5.4815,-5.4832,-5.5166,-5.5946,-5.6057,-5.598,-5.5677,-5.5936,-5.5932,-5.5623,-5.5808,-5.5845,-5.575,-5.575,-5.5649,-5.5491,-5.4791,-5.4396,-5.4216,-5.3518,-5.3251,-5.3318,-5.3318,-5.3359,-5.344,-5.3339,-5.3187,-5.2929,-5.2213,-5.1434,-5.0822,-1.9708,-1.9708,-1.9997,-2.0942,-2.0958,-2.1103,-2.1959,-2.2027,-2.2675,-2.4544,-2.5151,-2.6387,-2.8939,-2.8549,-2.7653,-2.6607,-2.7277,-2.8986,-3.1854,-3.4206,-3.6666,-3.9269,-3.9851,-4.0113,-4.0113,-4.0417,-4.0899,-4.1644,-4.1982,-4.2523,-4.3261,-4.3261,-4.3261,-4.3261,-4.3261,-4.3064,-4.2726,-4.1982,-4.1474,-4.1136,-4.0417,-4.0113,-4.0113,-4.0113,-3.9174,-3.7753,-3.6535,-3.5351,0.0,-3.4315,-3.4401,-3.4623,-3.5506,-3.5296,-3.4466,-3.2903,-3.2286,-3.1792,-3.0282,-3.0543,-3.1567,-3.2789,-3.5065,-3.7363,-3.8777,-4.096,-4.2718,-4.2894,-4.4361,-4.587,-4.6554,-4.6215,-4.6513,-4.8742,-4.8593,-4.9002,-5.1231,-5.2159,-5.2791,-5.3237,-5.2902,-5.2605,-5.2605,-5.3757,-5.4463,-5.4314,-5.5206,-5.5912,-5.6283,-5.6729,-5.6969,-5.6928,-5.7373,-5.7534,-5.7429,-5.7429,-5.7164,-5.6657,-5.6657,-5.6377,-5.5855,-5.5486,-5.5059,-5.4575,-5.4244,-5.3822,-5.342,-5.342,-5.344,-5.3481,-5.344,-5.342,-5.3363,-5.2909,-5.2537,-5.2263,-1.9708,-1.978,-2.005,-2.0746,-2.0925,-2.1166,-2.1897,-2.2013,-2.2324,-2.3264,-2.4019,-2.5185,-2.7012,-2.6674,-2.6117,-2.5626,-2.632,-2.8119,-3.1233,-3.3823,-3.6319,-3.8854,-3.9512,-3.9808,-3.9808,-4.0011,-4.0383,-4.0899,-4.1102,-4.1576,-4.2286,-4.2286,-4.2286,-4.2286,-4.2286,-4.2185,-4.1948,-4.1441,-4.1068,-4.0832,-4.0316,-4.0113,-4.0079,-3.9876,-3.8734,-3.711,-3.5769,-3.4506,-3.3322,-3.2713,-3.2916,-3.3525,-3.4232,-3.4016,-3.3324,-3.2434,-3.1583,-3.1102,-3.1862,-3.3334,-3.4923,-3.6147,-3.8401,-4.0618,-4.1938,-4.3105,-4.4162,-4.5016,-4.5842,-4.6667,-4.7539,-4.7107,-4.7404,-4.9707,-4.9522,-4.9893,-5.2271,-5.2791,-5.2977,-5.3125,-5.2828,-5.2345,-5.1639,-5.346,-5.4723,-5.4834,-5.5949,-5.6729,-5.6952,-5.7509,-5.7843,-5.7843,-5.8401,-5.8656,-5.8572,-5.8572,-5.8233,-5.7592,-5.7592,-5.726,-5.661,-5.6383,-5.5829,-5.5016,-5.4794,-5.4388,-5.3853,-5.3632,-5.3578,-5.3561,-5.3578,-5.3558,-5.3538,-5.3355,-5.3334,-5.3359,-1.9708,-1.9962,-2.0326,-2.0745,-2.1071,-2.1449,-2.1926,-2.2013,-2.231,-2.319,-2.3988,-2.4812,-2.5559,-2.5626,-2.5626,-2.5592,-2.6911,-2.8986,-3.1887,-3.363,-3.5791,-3.8672,-3.8931,-3.9039,-3.9039,-3.974,-4.0113,-4.0146,-4.0832,-4.1576,-4.2286,-4.2286,-4.2286,-4.2286,-4.2286,-4.188,-4.1238,-4.1204,-4.0798,-4.0146,-4.0113,-4.0113,-4.0011,-3.9309,-3.7652,-3.5566,-3.481,-3.4032,-3.3085,-3.092,-3.163,-3.3173,-3.1988,-3.2627,-3.3522,-3.2207,-3.0729,-2.992,-3.1549,-3.1876,-3.2751,-3.7051,-3.9662,-4.1857,-4.4575,-4.5811,-4.6422,-4.6422,-4.709,-4.7647,-4.7701,-4.8927,-5.0005,-5.0079,-5.1416,-5.2494,-5.2605,-5.3274,-5.32,-5.1676,-5.2159,-5.1676,0.0,-5.1936,-5.4834,-5.7212,-5.7435,-5.7806,-5.8586,-5.8661,-5.8661,-5.8661,-5.8698,-5.8698,-5.8677,-5.8677,-5.8677,-5.864,-5.864,-5.8577,-5.8397,-5.755,-5.6694,-5.5829,-5.5053,-5.4761,-5.4805,-5.4027,-5.3716,-5.3775,-5.3696,-5.3694,-5.3694,-5.3558,-5.3481,-5.3481,-1.9508,-1.9874,-2.0309,-2.0614,-2.1087,-2.1554,-2.194,-2.1955,-2.2099,-2.256,-2.3703,0.0,0.0,0.0,0.0,0.0,-2.6353,-2.7384,-2.9882,-3.1914,-3.3931,-3.5858,-3.7898,-3.9005,-3.9005,-3.9242,-3.9368,-3.9368,-3.9614,-3.9851,-4.0121,-4.062,-4.0857,-4.0857,-4.0857,-4.0722,-4.046,-4.046,-4.002,-3.9368,-3.9368,-3.9073,-3.8565,-3.7821,-3.6129,-3.3842,0.0,-3.0345,-2.9582,-2.8804,-2.8737,-2.9145,-3.0236,-2.9881,-2.8881,-2.7964,-2.9248,-3.1114,-3.1426,-3.4304,-3.7613,-3.9331,-4.206,-4.4557,-4.5491,-4.6547,-4.7293,-4.7293,-4.7107,-4.6884,-4.6884,-4.6921,-4.7441,-4.9039,-4.9336,-5.0302,-5.3014,-5.1751,-5.1342,-5.3534,-5.2605,0.0,0.0,0.0,0.0,-5.502,-5.7063,-5.8401,-5.8698,-5.8698,-5.8698,-5.8698,-5.8698,-5.8698,-5.8698,-5.8698,-5.8698,-5.8698,-5.8698,-5.8677,-5.8635,-5.8333,-5.774,-5.6961,-5.6603,-5.5882,-5.4961,-5.4622,-5.4217,-5.3794,-5.3793,-5.3774,-5.3754,-5.3657,-5.3657,-5.3678,0.0,-2.0015,-2.0462,-2.0795,-2.1276,0.0,0.0,0.0,0.0,0.0,0.0,0.0,0.0,0.0,0.0,0.0,0.0,-2.686,-2.8874,-3.033,-3.1887,-3.3647,-3.5318,-3.6197,-3.6197,-3.7246,-3.7516,-3.7009,-3.8328,-3.887,-3.8633,-3.9073,-3.9309,-3.9309,-3.9309,-3.9309,-3.9309,-3.9309,-3.9174,-3.8937,-3.8125,-3.7686,-3.7313,-3.5509,-3.358,0.0,-2.8755,-2.7097,-2.6235,-2.6235,-2.6793,-2.7638,-2.8281,-2.7707,-2.7046,-2.8254,-2.997,-3.1897,-3.367,-3.702,-4.0339,-4.185,-4.4291,-4.6342,-4.6486,-4.7362,-4.8147,-4.8147,-4.7738,-4.7181,-4.6624,-4.629,-4.6773,-4.8593,-4.8704,-4.9782,-5.3311,-5.1974,-5.1528,-5.3868,-5.3051,-5.32,0.0,0.0,0.0,-5.4723,-5.6655,-5.7843,-5.7843,-5.7843,-5.8103,-5.8698,-5.8698,-5.8698,-5.8698,-5.8698,-5.8698,-5.8698,-5.8698,-5.8698,-5.8698,-5.8698,-5.8103,-5.71,-5.7299,-5.6483,-5.5,-5.4941,-5.4664,-5.4203,-5.3905,-5.3794,-5.3775,-5.3754,-5.3774,-5.3775,0.0,0.0,-2.0779,0.0,0.0,0.0,0.0,0.0,0.0,0.0,0.0,0.0,0.0,0.0,0.0,0.0,0.0,0.0,-2.8807,-2.8908,-2.989,-3.2022,-3.1582,-3.1258,-3.1292,-3.4044,-3.4822,-3.3436,-3.6975,-3.8362,-3.7753,-3.7753,-3.7787,-3.7787,-3.7787,-3.7753,-3.7753,-3.7787,-3.8091,-3.843,-3.6276,-3.5825,-3.6017,-3.2408,-3.0127,-2.8536,-2.6319,-2.4628,-2.341,-2.3444,-2.5929,-2.8637,-2.6488,-2.6468,-2.8117,-3.2517,-3.2639,-3.2493,-3.7772,-3.9691,-4.1053,-4.4433,-4.6188,-4.7206,-4.7653,-4.837,-4.8853,-4.8667,-4.8593,-4.8036,-4.6364,-4.6661,-4.7516,-4.8556,-4.9373,-5.0748,-5.3311,-5.3608,-5.3348,-5.2717,-5.3348,-5.3571,-5.2977,-5.5057,0.0,-5.632,0.0,-5.6432,-5.6432,-5.6432,-5.7138,-5.8661,-5.8698,-5.8698,-5.8698,-5.8698,-5.8698,-5.8698,-5.8698,-5.8698,-5.8698,-5.8698,-5.7881,-5.6469,-5.7249,-5.6655,-5.5131,-5.5131,-5.5094,-5.4983,-5.4203,-5.3849,-5.3849,-5.3812,-5.3775,-5.3737,0.0,0.0,0.0,0.0,0.0,0.0,0.0,0.0,0.0,0.0,0.0,0.0,0.0,0.0,0.0,0.0,0.0,0.0,-2.7266,-2.7807,-2.8619,-2.9788,-3.1244,-3.2212,-3.2584,-3.3345,-3.3816,-3.3995,-3.4387,-3.4869,-3.5385,-3.5926,-3.6174,-3.6174,-3.6174,-3.5893,-3.5385,-3.596,-3.5047,-3.3186,-3.3152,-3.2293,-3.0804,-2.9262,-2.7774,-2.6319,-2.5185,-2.4203,-2.3477,-2.4034,-2.6336,-2.8976,-2.8958,-2.9631,-3.0548,-3.1149,-3.3586,-3.6376,-3.7485,-4.1212,-4.5015,-4.6243,-4.7482,-4.8434,-4.8576,-4.8742,-4.8221,-4.5769,-4.4283,-4.276,-4.0494,-4.0271,-4.1683,-4.5584,-4.6401,-4.7813,-5.1491,-5.0933,-5.0971,-5.3237,-5.3683,-5.4686,-5.6952,-5.7732,0.0,0.0,-5.7398,-5.8103,-5.8103,-5.8103,-5.8289,-5.8698,-5.8698,-5.8698,-5.8698,-5.8698,-5.8698,-5.8698,-5.8698,-5.8698,-5.8698,-5.8698,-5.8475,-5.8103,-5.8326,-5.7806,-5.6878,-5.6878,-5.6506,-5.5874,-5.502,-5.4588,-5.4374,-5.3783,-5.3461,-5.3302,0.0,0.0,0.0,0.0,0.0,0.0,0.0,0.0,0.0,0.0,0.0,0.0,0.0,0.0,0.0,0.0,0.0,0.0,0.0,-2.7097,-2.7537,-2.796,-2.9179,-2.9833,-2.9801,-3.1321,-3.2018,-3.1721,-3.2235,-3.2892,-3.3716,-3.3253,-3.3566,-3.4509,-3.4259,-3.3931,-3.358,-3.4336,-3.3491,0.0,0.0,-3.0296,-2.9228,-2.6793,-2.5575,-2.4966,-2.3932,-2.368,-2.4237,-2.664,-2.813,-2.9416,-3.1765,-3.2556,-3.2965,-3.4912,-3.6845,-3.872,-4.0299,-4.3358,-4.6338,-4.7074,-4.7977,-4.829,-4.69,-4.6584,-4.5625,-4.2184,-4.0787,-3.9564,-3.7544,-3.778,-3.9674,-4.4008,-4.5361,-4.7144,-5.0859,-5.0599,-5.0933,-5.3497,-5.3794,-5.5094,-5.8401,-5.8698,-5.8326,0.0,-5.7546,-5.7658,-5.7658,-5.7658,-5.7992,-5.8698,-5.8698,-5.8698,-5.8698,-5.8698,-5.8698,-5.8698,-5.8698,-5.8698,-5.8698,-5.8698,-5.8326,-5.7695,0.0,-5.8029,-5.6989,-5.736,-5.7249,-5.6692,-5.5503,-5.4882,-5.4589,-5.3776,-5.3322,-5.3099,0.0,0.0,0.0,0.0,0.0,0.0,0.0,0.0,0.0,0.0,-2.4315,-2.4997,0.0,0.0,0.0,0.0,0.0,0.0,0.0,0.0,-2.6623,-2.6826,-2.686,-2.664,-2.6168,-2.9173,-3.0095,-2.8834,-3.0547,-3.1724,-3.2387,-3.069,-3.0925,-3.2746,-3.2264,-3.1975,-3.1881,-3.2604,-3.232,-3.1244,-2.9416,-2.8958,-2.8924,0.0,-2.3797,-2.4203,-2.2902,-2.3342,-2.5185,-2.9668,-3.0499,-3.0364,-3.4687,-3.5448,-3.5681,-4.0306,-4.0712,-4.0412,-4.384,-4.5351,-4.6203,-4.7304,-4.7955,-4.7591,-4.4832,-4.3889,-4.2607,-3.9017,-3.7947,-3.7332,-3.6323,-3.747,-3.9748,-4.3398,-4.5509,-4.759,-5.0228,-5.1045,-5.1936,-5.3311,-5.3683,-5.5094,-5.8401,-5.8512,-5.8475,-5.8698,-5.7398,-5.6617,-5.6617,-5.6617,-5.7249,-5.8661,-5.8698,-5.8698,-5.8698,-5.8698,-5.8698,-5.8698,-5.8698,-5.8677,-5.8656,-5.8656,-5.7893,-5.659,-5.8021,0.0,-5.6574,-5.7279,-5.7555,-5.7427,-5.5869,-5.5044,-5.4654,-5.39,-5.335,-5.303,0.0,0.0,0.0,0.0,0.0,0.0,0.0,0.0,0.0,-2.4712,-2.48,-2.5073,0.0,0.0,0.0,0.0,0.0,0.0,0.0,0.0,0.0,-2.7553,-2.7621,-2.8057,-2.8967,-2.9476,-2.9875,-3.0166,-2.9749,-3.0013,-3.0853,-3.0551,-3.0605,-3.097,-3.0858,-3.0229,-2.9283,-3.004,-2.896,-2.6793,-2.6996,-2.6437,-2.532,-2.3917,0.0,0.0,-2.3308,-2.3763,-2.5185,-2.9668,-3.1833,-3.3322,-3.7178,-3.8969,-3.9744,-4.002,-4.1511,-4.3091,-4.3161,-4.4926,-4.6861,-4.7449,-4.7955,-4.8159,-4.7591,-4.5477,-4.2573,-3.8905,-3.6074,-3.4477,-3.517,-3.6624,-3.9084,-4.3324,-4.5955,-4.7218,-4.6438,-4.9262,-5.1491,-5.1788,-5.2977,-5.5094,-5.8401,-5.7509,0.0,0.0,-5.8438,-5.8289,-5.8289,-5.8289,-5.8401,-5.8698,-5.8698,-5.8698,-5.8698,-5.8698,-5.8698,-5.8698,-5.8698,-5.8593,-5.8363,-5.8363,-5.8128,-5.7706,-5.8023,0.0,-5.7706,-5.7876,-5.7913,-5.7839,-5.6934,-5.5948,-5.5021,-5.4327,-5.3456,-5.264,0.0,0.0,0.0,0.0,0.0,0.0,-2.3122,-2.3511,-2.3928,-2.4328,-2.4342,-2.4731,-2.5726,-2.6465,-2.6825,0.0,0.0,0.0,0.0,0.0,0.0,0.0,-2.8213,-2.8718,-2.9316,-2.9776,-2.998,-2.9926,0.0,-2.8506,-2.9583,-2.8267,-2.8226,-2.9222,-2.8946,-2.8538,-2.8126,-2.8862,-2.8034,-2.6218,-2.6556,-2.6302,-2.5523,-2.4406,0.0,0.0,-2.3966,-2.444,-2.5575,-2.8942,-3.1021,-3.3051,-3.755,-3.9846,-4.0687,-3.9411,-4.1267,-4.3477,-4.2437,-4.4375,-4.6776,-4.7138,-4.7591,-4.7041,-4.3558,-4.1614,-3.9039,-3.3777,-3.1479,-3.0629,-3.1306,-3.2819,-3.5578,-4.0728,-4.3828,-4.6015,-4.7295,-4.9731,-5.1714,-5.2568,-5.3348,-5.476,-5.7212,-5.6766,-5.6617,-5.7398,-5.7472,-5.7843,-5.8661,-5.8698,-5.8698,-5.8698,-5.8698,-5.8698,-5.8698,-5.8698,-5.8698,-5.8698,-5.8698,-5.8572,-5.8319,-5.8319,-5.8186,-5.7997,-5.7997,0.0,-5.6808,-5.7629,-5.7505,-5.6771,-5.6816,-5.6438,-5.5686,-5.4515,-5.3677,-5.3083,0.0,0.0,0.0,0.0,0.0,0.0,-2.2948,-2.3189,-2.3453,-2.3536,-2.3696,-2.4213,-2.536,-2.6195,-2.6723,0.0,0.0,0.0,0.0,0.0,0.0,0.0,0.0,0.0,-2.945,0.0,0.0,-2.9709,-2.8135,0.0,0.0,0.0,0.0,0.0,-2.7589,-2.7415,-2.7554,-2.8137,-2.7729,0.0,0.0,-2.6691,0.0,0.0,0.0,0.0,0.0,-2.5101,-2.5981,-2.8416,-3.0006,-3.1732,-3.6163,-3.8491,-3.948,-3.8883,-4.0585,-4.2682,-4.2555,-4.4378,-4.6448,-4.6799,-4.7182,-4.592,-4.0016,-3.8151,-3.5918,-2.9906,-2.8112,-2.7936,-2.892,-3.0349,-3.3188,-3.8681,-4.1545,-4.4407,-4.8178,-4.9806,-5.1416,-5.3571,-5.3794,-5.4611,-5.6617,-5.6506,0.0,-5.6803,-5.6803,0.0,-5.8624,-5.8698,-5.8698,-5.8698,-5.8698,-5.8698,-5.8698,-5.8698,-5.8656,-5.8614,-5.8614,-5.8428,-5.8164,-5.8164,-5.8029,-5.7834,-5.7834,0.0,0.0,-5.7161,-5.6905,-5.5573,-5.6562,-5.6679,-5.6126,-5.4742,-5.4008,-5.3566,0.0,0.0,0.0,0.0,0.0,0.0,-2.3586,-2.3993,-2.3961,-2.2864,-2.3357,-2.3803,-2.3819,-2.5108,-2.6225,0.0,0.0,0.0,0.0,0.0,0.0,0.0,0.0,0.0,0.0,0.0,0.0,-3.0771,-2.9628,0.0,0.0,0.0,0.0,0.0,0.0,-2.7493,-2.7245,-2.7311,0.0,0.0,0.0,0.0,0.0,0.0,0.0,0.0,0.0,-2.5541,-2.6032,-2.8991,-3.0108,-3.0514,-3.2361,-3.4074,-3.5959,-3.8562,-3.9686,-4.0908,-4.4421,-4.5635,-4.6045,-4.6707,-4.6913,-4.6065,-4.2655,-3.9575,-3.6344,-3.2494,-2.9478,-2.8518,-3.1754,-3.3223,-3.5355,-3.9676,-4.0959,-4.255,-4.5682,-4.7237,-4.9485,-5.3348,-5.3794,-5.502,-5.8178,-5.7175,-5.6915,-5.8364,-5.8475,0.0,-5.8698,-5.8698,-5.8698,-5.8698,-5.8698,-5.8698,-5.8698,-5.8698,-5.8593,-5.8341,-5.8341,-5.8119,-5.7655,-5.7655,-5.751,-5.7264,-5.7264,0.0,0.0,-5.6647,-5.6357,-5.5124,-5.6697,-5.6818,-5.5934,-5.5183,-5.441,-5.3566,0.0,0.0,0.0,0.0,0.0,0.0,-2.3779,-2.3948,-2.3754,-2.2671,-2.2817,-2.3014,-2.2998,-2.4111,-2.5309,-2.6335,-2.659,0.0,0.0,0.0,0.0,0.0,0.0,0.0,0.0,0.0,-3.0637,-3.0122,-2.9158,0.0,0.0,0.0,0.0,0.0,0.0,-2.6644,-2.6601,-2.6601,0.0,0.0,0.0,0.0,0.0,0.0,0.0,0.0,0.0,0.0,-2.6387,-2.7131,-2.7706,-2.8078,-2.8213,-2.903,-3.05,-3.3154,-3.705,-4.0539,-4.0885,-4.3356,-4.5895,-4.6339,-4.6363,-4.4964,-4.0052,-3.7777,-3.5285,-3.0213,-2.8268,-2.7921,-2.9363,-2.9991,-3.1604,-3.5492,-3.6998,-3.9549,-4.487,-4.709,-4.9843,-5.4269,-5.5121,-5.5837,0.0,0.0,-5.6483,-5.6969,-5.7006,0.0,-5.8216,-5.8385,-5.8449,-5.8449,-5.8356,-5.829,-5.829,-5.829,-5.8246,-5.8097,-5.8097,-5.7937,-5.7583,-5.7583,-5.7437,-5.7188,-5.7188,0.0,0.0,-5.6355,-5.5993,-5.4363,-5.6441,-5.7057,-5.6573,-5.539,-5.4737,-5.4255,0.0,0.0,0.0,0.0,0.0,-2.4102,-2.3709,-2.3681,-2.3412,-2.2546,-2.2437,-2.2453,-2.2519,-2.3622,-2.4713,-2.5585,-2.6336,0.0,0.0,0.0,0.0,0.0,0.0,0.0,0.0,0.0,-3.0288,-2.9674,-2.8572,-2.7689,0.0,0.0,-2.5936,-2.5862,0.0,0.0,0.0,0.0,0.0,0.0,0.0,0.0,0.0,0.0,0.0,0.0,0.0,0.0,0.0,0.0,0.0,-2.6251,-2.5507,-2.5913,-2.7199,-2.9816,-3.4719,-3.9296,-3.9106,-4.2298,-4.5752,-4.6005,-4.5257,-4.3112,-3.7812,-3.5717,-3.3431,-2.8199,-2.7263,-2.7357,-2.7404,-2.7491,-2.8724,-3.2282,-3.4411,-3.7595,-4.3316,-4.5832,-4.8945,-5.3833,-5.4548,-5.5273,-5.6857,-5.6928,-5.6825,-5.662,0.0,0.0,-5.7946,-5.8051,-5.8142,-5.8209,-5.8088,-5.7997,-5.7997,-5.7997,-5.7973,-5.7881,-5.7881,-5.7507,-5.6806,-5.7243,-5.7109,-5.6536,-5.7007,0.0,0.0,-5.6319,-5.5957,-5.4255,-5.6391,-5.7188,-5.7043,-5.5703,-5.5088,-5.4689,0.0,0.0,0.0,0.0,0.0,-2.4071,-2.3394,-2.3322,-2.3075,-2.2397,-2.2305,-2.2305,-2.2305,-2.3797,-2.4752,-2.4646,-2.6,0.0,0.0,0.0,0.0,0.0,0.0,0.0,-3.119,-3.035,-2.9921,-2.9888,-2.8237,-2.7411,-2.7359,-2.6356,-2.6023,-2.6168,0.0,0.0,0.0,0.0,-2.6294,0.0,0.0,0.0,-2.6691,0.0,0.0,0.0,0.0,0.0,0.0,0.0,0.0,0.0,0.0,-2.5523,-2.7266,-3.0311,-3.3322,-3.6582,-4.0892,-4.368,-4.5468,-4.5752,-4.3613,-4.0558,-3.7093,-3.3894,-3.0756,-2.7656,-2.7008,-2.7039,-2.7165,-2.7197,-2.8278,-3.1603,-3.434,-3.7214,-4.041,-4.2577,-4.5856,-5.1279,-5.1173,-5.2769,-5.8136,-5.8412,-5.8282,-5.8282,0.0,0.0,-5.7997,-5.7763,-5.7739,-5.7997,-5.7997,-5.7997,-5.7997,-5.7997,-5.7881,-5.7583,-5.7583,-5.6661,-5.4979,-5.65,-5.6355,0.0,0.0,0.0,0.0,-5.6573,-5.6283,-5.5051,-5.6573,-5.7188,-5.708,-5.6283,-5.5522,-5.4798,0.0,0.0,0.0,0.0,0.0,0.0,-2.4571,-2.4222,-2.3874,-2.3525,-2.3469,-2.328,-2.2825,-2.4276,-2.5447,-2.5863,-2.7012,0.0,0.0,0.0,0.0,-3.0055,-3.0581,-3.0717,-3.0446,-3.0022,-2.9576,-2.9087,-2.841,-2.7817,-2.7319,-2.6995,-2.6557,-2.6005,-2.6005,-2.6005,0.0,-2.6134,-2.6294,0.0,0.0,-2.6691,-2.6691,0.0,0.0,0.0,0.0,0.0,0.0,0.0,0.0,0.0,0.0,0.0,0.0,-2.7537,-3.0715,-3.3905,-3.529,-3.7456,-3.9316,-3.9406,-3.8602,-3.6952,-3.3805,-3.2168,-3.0478,-2.742,-2.6892,-2.7024,-2.7055,-2.7152,-2.8336,-3.1876,-3.3862,-3.6791,-4.2168,-4.468,-4.7738,-5.2422,-5.4012,-5.551,0.0,0.0,-5.6151,0.0,0.0,0.0,-5.7425,-5.7363,-5.7437,-5.7739,-5.7534,-5.7437,-5.7437,-5.7437,-5.7412,-5.7313,-5.7313,-5.6466,-5.4943,-5.65,-5.6355,0.0,0.0,0.0,0.0,-5.6754,-5.6573,-5.5715,-5.6345,-5.6582,-5.6421,-5.5194,-5.4276,-5.3495,0.0,0.0,0.0,0.0,0.0,0.0,-2.5349,-2.5079,-2.4823,-2.4687,-2.4659,-2.442,-2.3761,-2.5261,-2.6371,-2.6488,-2.7777,0.0,0.0,0.0,0.0,-3.0108,-3.0548,-3.0408,-2.9589,-2.9192,-2.8561,-2.7751,-2.7374,-2.6936,-2.6486,-2.6486,-2.6333,-2.6045,-2.6008,-2.6026,0.0,-2.6152,-2.6294,-2.6401,-2.647,-2.6539,-2.659,0.0,0.0,0.0,0.0,0.0,0.0,0.0,0.0,0.0,0.0,0.0,0.0,0.0,-2.8269,-3.0764,-3.2295,-3.4493,-3.6374,-3.6374,-3.5387,-3.387,-3.191,-3.0444,-2.8958,-2.7114,-2.7691,-2.8253,-2.7196,-2.7929,-2.9194,-3.0643,-3.3707,-3.7042,-4.0349,-4.3578,-4.6848,-5.0326,-5.3677,0.0,0.0,-5.6138,0.0,0.0,0.0,0.0,-5.7152,-5.7188,-5.7264,-5.7437,-5.7289,-5.7188,-5.7188,-5.7188,-5.7188,-5.7188,-5.7188,-5.6391,-5.4943,-5.65,-5.6355,0.0,0.0,0.0,0.0,-5.6895,-5.6772,-5.6109,-5.6268,-5.6311,-5.6122,-5.4719,-5.3717,-5.2881,0.0,0.0,0.0,0.0,0.0,0.0,-2.5764,-2.5728,-2.5709,-2.5746,-2.5783,-2.5557,-2.4933,-2.6533,-2.74,-2.6707,-2.8288,0.0,0.0,-3.0156,-3.01,-3.0108,-2.9987,-2.9507,-2.8647,-2.7876,-2.7083,-2.6272,-2.5643,-2.5294,-2.5225,-2.5259,-2.5591,-2.6226,-2.5866,-2.5921,-2.6277,-2.6206,-2.6277,-2.6366,-2.6259,-2.6261,0.0,0.0,0.0,0.0,0.0,0.0,0.0,0.0,0.0,0.0,0.0,0.0,0.0,0.0,0.0,0.0,0.0,-3.3816,-3.5424,-3.5424,-3.3322,-3.1196,-3.0963,-2.8687,0.0,-2.6962,-2.9228,-3.0402,-2.7777,-2.961,-3.0809,-2.868,-3.3967,-3.7843,-3.631,-4.046,0.0,0.0,-5.1027,0.0,-5.6581,-5.6613,0.0,0.0,0.0,0.0,-5.7188,-5.7188,-5.7188,-5.7188,-5.7188,-5.7188,-5.7188,-5.7188,-5.7152,-5.7043,-5.7152,-5.6319,-5.4798,-5.6428,-5.633,0.0,0.0,0.0,0.0,-5.6819,-5.674,-5.6229,-5.6201,-5.6174,-5.5984,-5.4605,-5.3538,-5.2768,0.0,0.0,0.0,0.0,0.0,0.0,0.0,0.0,0.0,0.0,-2.5561,-2.5735,-2.5589,-2.6657,-2.755,0.0,0.0,0.0,0.0,-2.9751,-2.9591,-3.0074,-2.8973,-2.8192,-2.7861,-2.7034,-2.6745,-2.7017,-2.6737,-2.6601,-2.6638,-2.6582,-2.6297,-2.5848,-2.5738,-2.5811,-2.599,-2.5972,-2.6081,-2.6259,-2.6224,-2.6224,0.0,0.0,0.0,0.0,-2.6641,-2.6691,0.0,0.0,0.0,0.0,0.0,0.0,0.0,0.0,-2.6556,-2.6911,-2.7861,0.0,-2.8897,-2.8897,-2.8387,-2.7827,0.0,-2.7199,-2.7334,-2.9668,-3.0717,-3.1007,-3.0334,-3.2598,-3.366,-3.091,-3.5352,-3.9119,-3.9103,-4.4224,0.0,-4.8035,-5.1597,-5.4132,-5.4323,-5.471,0.0,0.0,0.0,-5.6714,-5.7163,-5.7188,-5.7188,-5.7188,-5.7188,-5.7188,-5.7188,-5.7188,-5.6609,-5.545,-5.6645,-5.574,-5.3168,-5.5921,-5.6093,0.0,0.0,0.0,-5.5636,-5.5744,-5.5716,-5.5543,-5.5069,-5.4857,-5.4691,-5.3281,-5.2275,-5.1523,0.0,0.0,0.0,0.0,0.0,0.0,0.0,0.0,0.0,0.0,-2.6315,-2.6488,-2.6488,-2.7298,-2.7955,0.0,0.0,0.0,-3.0338,-2.9635,-2.9236,-2.9492,-2.8378,-2.7346,-2.648,-2.6398,-2.6161,-2.5687,-2.6399,-2.6528,-2.6074,-2.6143,-2.6038,-2.5775,-2.5811,-2.5881,-2.5881,-2.5881,-2.5954,-2.6045,-2.5954,0.0,0.0,0.0,0.0,0.0,-2.6521,-2.6624,0.0,-2.6251,-2.5845,-2.5591,0.0,0.0,0.0,0.0,-2.6691,-2.6691,-2.6691,-2.6691,-2.7029,-2.8416,-2.7706,-2.7063,-2.845,-2.7672,-2.7554,-3.0581,-3.119,-3.119,-3.119,-3.3051,-3.4066,-3.2476,-3.588,0.0,0.0,0.0,-4.8472,-4.8487,-5.0484,-5.2135,0.0,0.0,0.0,0.0,0.0,-5.6555,-5.7163,-5.6959,-5.6803,-5.6803,-5.6528,-5.6635,-5.7188,-5.7188,-5.6428,-5.4943,-5.6464,-5.5921,-5.3675,-5.6102,-5.6377,0.0,0.0,0.0,-5.4913,-5.4507,-5.4589,-5.4918,-5.4548,-5.4391,-5.419,-5.2425,-5.1555,-5.1082,0.0,0.0,0.0,0.0,0.0,0.0,0.0,0.0,0.0,0.0,0.0,0.0,0.0,0.0,0.0,0.0,0.0,0.0,-3.0091,-2.9533,-2.9068,-2.8811,-2.7886,-2.6738,-2.531,-2.5747,-2.543,-2.433,-2.5529,-2.5728,-2.4939,-2.5176,-2.5588,-2.6045,-2.6081,-2.5997,-2.5844,-2.5844,-2.5844,-2.5826,-2.5672,0.0,0.0,0.0,0.0,0.0,0.0,0.0,0.0,-2.6522,-2.6454,-2.6403,-2.6488,0.0,0.0,0.0,0.0,0.0,-2.6826,-2.686,-2.7571,-3.048,-2.9025,-2.7638,-3.0548,-2.8856,-2.7672,-3.1157,-3.1867,-3.1901,-3.2036,-3.3829,-3.4878,-3.3592,-3.6231,0.0,-4.5069,-4.676,-4.7675,-4.8192,-4.9316,0.0,0.0,0.0,0.0,0.0,0.0,-5.6284,-5.6871,-5.6447,-5.6174,-5.6174,-5.5694,-5.5887,-5.6933,-5.6933,-5.6191,-5.4785,-5.6227,-5.6154,-5.4821,-5.6339,-5.6688,-5.5928,0.0,0.0,-5.4227,-5.346,-5.3584,-5.4267,-5.4267,-5.4267,-5.3997,-5.1985,-5.1185,-5.0982,0.0,0.0,0.0,0.0,0.0,0.0,0.0,0.0,0.0,0.0,0.0,0.0,0.0,0.0,0.0,0.0,0.0,0.0,-2.8781,-2.9064,-2.9068,-2.8811,-2.6961,-2.6,-2.6199,-2.4527,-2.4646,-2.6766,-2.5177,-2.463,-2.5076,-2.5618,-2.6151,-2.6651,-2.6587,-2.6257,-2.5654,-2.5654,-2.5654,-2.5654,-2.5616,0.0,0.0,0.0,0.0,0.0,0.0,0.0,0.0,-2.5729,-2.5338,-2.4948,-2.5575,0.0,0.0,0.0,0.0,0.0,-2.7452,-2.7621,-2.8196,-3.0581,-2.9397,-2.8263,-3.0649,-2.8856,-2.8247,-3.3774,-3.4923,-3.5148,-3.5791,-4.0257,-4.1542,-3.4539,-3.7516,-4.167,0.0,0.0,-4.8538,-4.803,0.0,0.0,0.0,0.0,0.0,0.0,0.0,-5.4978,-5.5629,-5.5607,-5.5549,-5.5549,-5.5461,-5.549,-5.5658,-5.5694,-5.5107,-5.407,-5.5142,-5.5099,-5.4132,-5.5705,-5.5801,-5.4699,0.0,-5.4522,-5.3617,-5.3479,-5.3513,-5.3651,-5.3651,-5.3651,-5.3414,-5.1791,-5.1185,-5.0982,0.0,0.0,0.0,0.0,0.0,0.0,0.0,0.0,0.0,0.0,0.0,0.0,0.0,0.0,0.0,0.0,-2.7981,-2.8768,-2.842,-2.9238,-2.934,-2.84,-2.7368,-2.6455,-2.5695,-2.5213,-2.5146,-2.5525,-2.5847,-2.5629,-2.5024,-2.5535,-2.6143,-2.6756,-2.6302,-2.594,-2.5597,-2.5597,-2.5597,-2.5597,0.0,0.0,0.0,0.0,0.0,0.0,0.0,0.0,0.0,0.0,-2.6218,-2.6285,-2.6218,0.0,0.0,0.0,0.0,0.0,-2.7097,-2.7486,-2.8737,-3.2611,-3.0987,-2.977,-3.4866,-3.1819,-2.9856,-3.6637,-3.5148,-3.3605,-3.6806,-3.9309,-4.0426,-3.9039,-4.2523,-4.5771,-4.6819,-4.8139,-4.9187,0.0,0.0,0.0,0.0,0.0,0.0,0.0,0.0,0.0,-5.5302,-5.5039,-5.4857,-5.4857,-5.4551,-5.4365,-5.4365,-5.4365,-5.4066,-5.3447,-5.4745,-5.4704,-5.3482,-5.5066,-5.5308,-5.4388,0.0,-5.3573,-5.345,-5.2604,-5.2773,-5.3518,-5.3518,-5.3518,-5.3315,-5.1792,-5.071,-4.9932,0.0,0.0,0.0,0.0,0.0,0.0,0.0,0.0,0.0,0.0,0.0,0.0,0.0,0.0,0.0,0.0,-2.8305,-2.911,-2.8391,-2.9531,-2.9733,-2.8541,-2.8215,-2.733,-2.5779,-2.5967,-2.5665,-2.488,-2.6016,-2.6298,-2.5697,-2.5854,-2.658,-2.7617,-2.6802,-2.6341,-2.6211,-2.6211,-2.6211,-2.6211,0.0,0.0,0.0,0.0,0.0,0.0,0.0,0.0,0.0,0.0,0.0,0.0,0.0,0.0,0.0,-2.686,-2.6691,-2.6725,-2.6894,-2.735,-2.8939,-3.3639,-3.1765,-3.0736,-3.8362,-3.4358,-3.1108,-3.8589,-3.5859,-3.3558,-3.8091,-3.8464,-3.9377,-4.3301,-4.6515,-4.8748,-4.9424,-4.9526,-5.0067,0.0,0.0,0.0,0.0,0.0,0.0,0.0,0.0,0.0,-5.4852,-5.4422,-5.4203,-5.4203,-5.375,-5.3518,-5.3518,-5.3518,-5.343,-5.3352,-5.4421,-5.4386,-5.3387,-5.4605,-5.4795,-5.4134,-5.3153,-5.3012,-5.3416,-5.2232,-5.2435,-5.3518,-5.3518,-5.3281,-5.2807,-5.1454,-5.0135,-4.9018,0.0,0.0,0.0,0.0,0.0,0.0,0.0,0.0,0.0,0.0,0.0,0.0,0.0,0.0,0.0,0.0,-2.834,-2.9229,-2.8542,-2.9675,-3.0265,-2.9958,-2.9281,-2.8518,-2.762,-2.5595,-2.5495,-2.7447,-2.4679,-2.4962,-2.8034,-2.7344,-2.8096,-3.0112,-2.9231,-2.8481,-2.7912,-2.7912,-2.7912,-2.7912,-2.7912,0.0,0.0,0.0,0.0,0.0,0.0,0.0,0.0,0.0,0.0,0.0,0.0,0.0,-2.6759,-2.6725,-2.6691,-2.686,-2.7519,-2.7756,-2.8568,-3.1752,-3.0176,-3.0021,-3.8237,-3.4336,-3.1108,-3.8589,-3.9165,-3.9106,-4.1542,-4.1914,-4.2692,-4.5128,-4.6346,-4.7902,-5.0676,0.0,0.0,0.0,0.0,0.0,0.0,0.0,0.0,0.0,0.0,0.0,-5.3618,-5.3584,-5.3551,-5.3551,-5.3517,-5.3518,-5.3518,-5.3518,-5.3748,-5.4281,-5.3847,-5.3879,-5.4281,-5.4416,-5.4139,-5.3584,-5.4068,-5.3973,-5.3484,-5.3382,-5.3416,-5.3518,-5.3518,-5.2638,-5.1285,-5.0473,-4.9661,-4.9018,0.0,0.0,0.0,0.0,0.0,0.0,0.0,0.0,0.0,0.0,0.0,-2.6074,-2.6791,0.0,0.0,0.0,-2.8956,-2.9368,-2.9086,-2.9892,-3.0336,-3.0168,-3.0338,-3.0066,-2.932,-2.796,-2.7312,-2.7411,-2.651,-2.7235,-2.9395,-2.8551,-2.889,-3.0097,-2.8899,-2.8192,-2.7983,-2.8076,-2.8056,-2.7983,-2.8076,-2.7794,0.0,0.0,0.0,0.0,0.0,0.0,0.0,0.0,-2.6522,-2.6319,-2.659,-2.6691,-2.6691,-2.6691,-2.6691,-2.6759,-2.7029,-2.7452,-2.8838,-3.3254,-3.1765,-3.1157,-3.843,-3.6096,-3.4539,-4.2049,-4.0764,-3.9005,-4.1204,-4.3132,-4.4857,-4.6177,-4.7767,-4.939,-5.098,0.0,0.0,0.0,0.0,0.0,0.0,0.0,0.0,0.0,0.0,0.0,-5.3518,-5.3518,-5.3518,-5.3518,-5.3518,-5.3518,-5.3518,-5.3518,-5.3618,-5.3849,-5.3618,-5.3618,-5.3849,-5.3849,-5.3717,-5.3484,-5.375,-5.3684,-5.3518,-5.3518,-5.3518,-5.345,-5.2942,-5.2131,-5.1116,-5.0371,-4.969,-4.9107,0.0,0.0,0.0,0.0,0.0,0.0,0.0,0.0,-2.6124,0.0,0.0,0.0,0.0,-2.7259,0.0,0.0,-2.9868,-3.0109,-2.9781,-3.0635,-3.0987,-3.0564,-3.1079,-3.1113,-3.0564,-3.0051,-2.9158,-2.7818,-2.8265,-2.9186,-3.0457,-2.9848,-2.9989,-3.0696,-2.9531,-2.9017,-2.9046,-2.889,-2.8812,-2.8779,-2.8832,-2.8365,0.0,0.0,0.0,0.0,0.0,0.0,0.0,0.0,-2.6725,-2.6775,-2.6775,-2.6725,-2.6691,-2.6691,-2.6691,-2.6691,-2.6691,-2.7063,-2.8534,-3.3064,-3.2117,-3.1867,-3.8589,-3.7405,-3.6772,-4.3572,-4.2895,-4.1373,-4.2422,-4.4519,-4.6143,0.0,-4.8105,-4.9862,-5.1112,0.0,0.0,0.0,0.0,0.0,0.0,0.0,0.0,0.0,0.0,0.0,0.0,-5.3518,-5.3518,-5.3518,-5.3518,-5.3518,-5.3518,-5.3518,-5.3518,-5.3518,-5.3518,-5.3518,-5.3518,-5.3518,-5.3518,-5.3518,-5.3518,-5.3518,-5.3518,-5.3518,-5.3348,-5.3044,-5.2266,-5.1522,-5.0777,-5.0033,-4.9517,-4.9199,0.0,0.0,0.0,0.0,0.0,0.0,0.0,0.0,-2.5349,-2.4886,-2.5914,0.0,0.0,0.0,0.0,0.0,-3.1009,-3.1453,-3.0587,-3.196,-3.2363,-3.1366,-3.1443,-3.1443,-3.1332,-3.1443,-3.0726,-2.912,-2.947,-3.0191,-3.1286,-3.1175,-3.1567,-3.2357,-3.1636,-3.1419,-3.1548,-3.0768,-3.0522,-3.0708,-3.0551,-3.0017,-2.9296,0.0,0.0,0.0,0.0,0.0,0.0,0.0,-2.6742,-2.6893,-2.6893,-2.6809,-2.6708,-2.6725,-2.6725,-2.6708,-2.6725,-2.6742,-2.7435,-3.0446,-3.0683,-3.1901,-3.8556,-3.7787,-3.7121,-4.2327,-4.5776,-4.7432,-4.5974,-4.6312,-4.6583,-4.5838,-4.6989,-4.8775,0.0,0.0,0.0,0.0,0.0,0.0,0.0,0.0,0.0,0.0,0.0,0.0,0.0,-5.3518,-5.3518,-5.3518,-5.3518,-5.3518,-5.3518,-5.3518,-5.3518,-5.3518,-5.3518,-5.3518,-5.3518,-5.3518,-5.3518,-5.3518,-5.3518,-5.3518,-5.3518,-5.3484,-5.301,-5.2232,-5.1488,-5.0744,-4.9999,-4.9255,-4.9077,-4.9199,0.0,0.0,0.0,0.0,0.0,0.0,0.0,0.0,-2.6961,-2.7368,-2.7742,0.0,0.0,0.0,0.0,0.0,0.0,0.0,-3.2176,-3.2142,-3.1895,-3.1523,-3.2109,-3.2143,-3.1523,-3.1542,-3.1128,-3.0241,-3.0898,-3.1151,-3.1018,-3.1364,-3.1616,-3.1891,-3.2706,-3.2277,-3.1045,-3.2266,-3.1891,-3.0501,-3.0489,-2.972,-2.8537,0.0,0.0,0.0,0.0,0.0,0.0,0.0,0.0,0.0,-2.6909,-2.6876,-2.7284,-2.9374,-2.8438,-2.7199,-2.939,-2.8759,-2.8213,-3.1244,-3.2598,-3.4134,-3.7719,-3.8667,-3.9952,-4.4147,-4.6143,-4.668,-4.5303,-4.6932,0.0,-4.6796,-4.8852,0.0,0.0,0.0,0.0,0.0,0.0,0.0,0.0,0.0,0.0,0.0,0.0,0.0,0.0,-5.385,-5.3783,-5.3651,-5.3617,-5.3618,-5.3518,-5.3518,-5.3518,-5.3518,-5.3518,-5.3518,-5.3518,-5.3518,-5.3518,-5.3518,-5.3518,-5.3551,-5.3583,-5.3074,-5.2635,-5.2198,-5.0913,-5.027,-4.9999,-4.9255,-4.9077,-4.9199,0.0,0.0,0.0,0.0,0.0,0.0,-2.804,-2.8209,-2.8556,-2.9403,-2.992,-3.075,0.0,0.0,0.0,0.0,0.0,0.0,-3.2884,-3.2338,-3.1903,-3.1598,-3.2135,-3.2189,-3.1707,-3.1673,-3.1428,-3.0938,-3.1644,-3.1783,-3.1386,-3.189,-3.1933,-3.1648,-3.2486,-3.2199,-3.1124,-3.1957,-3.1583,-3.0438,-3.0417,-2.9486,-2.8129,0.0,0.0,0.0,0.0,0.0,0.0,0.0,0.0,0.0,-2.6974,-2.7794,-2.8798,-2.9411,-2.9102,-2.8965,-3.0817,-3.0266,-3.0176,-3.4358,-3.5148,-3.5757,-3.8937,-4.0561,-4.2388,-4.5872,-4.7158,-4.7454,-4.6685,-4.7946,0.0,-4.8128,0.0,0.0,0.0,0.0,0.0,0.0,0.0,0.0,0.0,0.0,0.0,0.0,0.0,0.0,0.0,-5.398,-5.3948,-5.3816,-5.375,-5.3651,-5.3584,-5.3517,-5.3518,-5.3518,-5.3518,-5.3517,-5.3584,-5.3517,-5.3518,-5.3518,-5.3551,-5.3651,-5.3649,-5.2869,-5.236,-5.1856,-5.067,-5.0026,-4.9687,-4.9246,-4.9199,-4.9381,0.0,0.0,-2.8817,-2.8062,0.0,0.0,-2.9455,-2.9696,-3.0091,-3.1123,-3.2173,-3.29,0.0,0.0,0.0,-3.4283,0.0,0.0,-3.2919,-3.2485,-3.2066,-3.1632,-3.1744,-3.18,-3.18,-3.18,-3.1635,-3.1351,-3.1879,-3.2077,-3.1988,-3.2448,-3.2285,-3.158,-3.1637,-3.1571,-3.1426,-3.063,-3.0323,-3.0311,-3.0136,-2.9219,-2.7951,-2.7951,0.0,0.0,0.0,0.0,0.0,0.0,0.0,0.0,-2.7069,-2.8921,-3.0503,-2.8049,-2.924,-3.1419,-3.1588,-3.1515,-3.2713,-3.8217,-3.7719,-3.7087,-4.1677,-4.3234,-4.4525,-4.7398,-4.8443,-4.8911,-4.9165,-4.9138,-4.9138,-4.9471,0.0,0.0,0.0,0.0,0.0,0.0,0.0,0.0,0.0,0.0,0.0,0.0,0.0,0.0,0.0,-5.4045,-5.4045,-5.4013,-5.3849,-5.375,-5.375,-5.3618,-5.3517,-5.3517,-5.3517,-5.3584,-5.3717,-5.3584,-5.3517,-5.3551,-5.3651,-5.3683,-5.3547,-5.2866,-5.2083,-5.1335,-5.062,-4.9841,-4.9229,-4.9229,-4.9411,-4.9679,0.0,0.0,-3.0022,-2.9833,0.0,0.0,-3.1302,-3.1373,-3.17,-3.2577,-3.2876,-3.3467,-3.4624,-3.4941,0.0,-3.4979,-3.4361,0.0,0.0,-3.2276,-3.1879,-3.1763,-3.1781,-3.18,-3.18,-3.18,-3.1763,-3.1673,-3.1807,-3.1609,-3.1079,-3.1449,-3.1529,-3.1441,-3.2966,-3.2442,-3.0533,-3.1959,-3.1219,-2.9015,-2.8957,-2.8424,-2.7611,-2.7611,-2.7078,0.0,0.0,0.0,0.0,0.0,0.0,0.0,-2.7136,-2.7515,-2.8374,-3.0015,-3.0912,-3.1837,-3.4236,-3.3914,-3.3355,-3.525,-3.7009,-3.9614,-4.4688,-4.594,-4.6583,-4.8409,-4.806,-4.7835,-4.9206,-4.95,-4.956,0.0,0.0,0.0,0.0,0.0,0.0,0.0,0.0,0.0,0.0,0.0,0.0,0.0,0.0,0.0,-5.4367,-5.4367,-5.4303,-5.4175,-5.411,-5.4045,-5.3948,-5.3882,-5.3816,0.0,-5.3651,-5.3684,-5.3717,-5.3684,-5.3651,-5.3651,-5.3849,-5.3508,-5.2799,-5.2338,-5.1583,-5.0741,-4.9987,-4.9611,-4.9441,-4.9441,-4.9471,-4.953,0.0,0.0,0.0,0.0,0.0,0.0,0.0,0.0,-3.3076,-3.4623,-3.4757,-3.4891,-3.5307,-3.5302,0.0,0.0,-3.3814,0.0,0.0,-3.1991,-3.156,-3.18,-3.18,-3.18,-3.18,-3.18,-3.18,-3.18,-3.1707,-3.15,-3.1137,-3.1351,-3.1332,-3.1165,-3.2334,-3.1975,-3.0547,-3.1549,-3.1044,-2.9549,-2.9059,-2.8243,-2.7253,-2.6921,-2.6126,-2.5263,-2.5363,0.0,0.0,0.0,0.0,0.0,0.0,0.0,-2.93,-2.9367,-3.0375,-3.1822,-3.3291,-3.4126,-3.5147,-3.7608,-4.0493,-4.3267,-4.5292,-4.6878,-4.8192,-4.8941,-4.8527,-4.8341,-4.9304,-4.956,-4.9649,0.0,0.0,0.0,0.0,0.0,0.0,0.0,0.0,0.0,0.0,0.0,0.0,0.0,0.0,-5.4149,-5.4494,-5.4494,-5.4431,-5.4335,-5.4239,-5.4175,-5.411,-5.4013,-5.3948,-5.3849,-5.3849,-5.3882,-5.3948,-5.3882,-5.3849,-5.3815,-5.3669,-5.3259,-5.2785,-5.1843,-5.1188,-5.0686,-4.9898,-4.959,-4.959,-4.959,-4.9683,-4.9742,0.0,0.0,0.0,0.0,0.0,0.0,0.0,0.0,0.0,-3.6171,-3.6167,-3.5759,-3.5218,-3.5068,-3.4717,0.0,0.0,0.0,0.0,0.0,0.0,-3.1781,-3.18,-3.18,-3.18,-3.18,-3.18,-3.18,-3.1632,-3.1792,-3.2286,-3.2095,-3.1958,-3.1834,-3.1819,-3.1489,-3.0918,-3.0469,-3.0242,-3.0042,-2.9072,-2.799,-2.6906,-2.6315,-2.5408,-2.4464,-2.4724,-2.4804,-2.4887,-2.563,0.0,0.0,0.0,0.0,-3.0435,-2.7857,-2.9265,-3.1632,-3.1404,-3.3692,-3.7205,-4.1315,-4.4236,-4.5862,-4.5185,-4.7,-4.8923,-4.9192,-4.926,-4.935,-4.95,-4.956,0.0,0.0,0.0,0.0,0.0,0.0,0.0,0.0,0.0,0.0,0.0,0.0,0.0,0.0,0.0,-5.346,-5.408,-5.4115,-5.4115,-5.4115,-5.3957,-5.3827,-5.3827,-5.3903,-5.3907,-5.384,-5.384,-5.3836,-5.3796,-5.3734,-5.377,-5.3806,-5.3181,-5.2832,-5.2592,-5.142,-5.0867,-5.0695,-5.0012,-4.9737,-4.9737,-4.9737,-4.986,-4.9982,0.0,0.0,0.0,0.0,0.0,0.0,0.0,0.0,0.0,0.0,-3.4466,-3.3919,-3.4249,-3.4268,-3.3938,-3.3145,-3.2915,-3.2571,-3.2007,0.0,0.0,-3.18,-3.18,-3.18,-3.18,-3.18,-3.18,-3.18,-3.1781,-3.3009,-3.5361,-3.4283,-3.4392,-3.5517,-3.4293,-3.2774,-3.1075,-2.9881,-2.882,-2.7855,-2.7261,-2.6823,-2.65,-2.6572,-2.637,-2.6134,-2.6717,-2.6781,-2.655,-2.6068,-2.6417,0.0,0.0,0.0,-2.7767,-2.7255,-2.9231,-3.1576,-3.1428,-3.4567,-3.8604,-4.1707,-4.2804,-4.3695,-4.6141,-4.699,-4.7695,0.0,-4.956,-4.9649,-4.9679,0.0,0.0,0.0,0.0,0.0,0.0,0.0,0.0,0.0,0.0,0.0,0.0,0.0,0.0,0.0,-5.236,-5.2394,-5.2498,-5.2498,-5.2498,-5.2498,-5.2498,-5.2467,-5.2467,-5.3156,-5.3404,-5.3212,-5.3212,-5.2901,-5.2283,-5.2406,-5.2719,-5.3178,-5.2454,-5.1733,-5.1115,-5.1094,-5.0705,-5.0119,-5.0016,-4.9982,-4.9982,-4.9982,-4.9982,-5.0011,0.0,0.0,0.0,0.0,0.0,0.0,0.0,0.0,0.0,0.0,0.0,-3.3705,-3.3436,-3.3421,-3.311,-3.2352,-3.204,-3.1769,-3.1428,-3.1428,-3.1523,-3.18,-3.18,-3.18,-3.18,-3.18,-3.18,-3.18,-3.1688,-3.3848,-3.8059,-3.7214,-3.6692,-3.6446,-3.6841,-3.5003,-3.1571,-3.1395,-3.0398,-2.8826,-2.8086,-2.7494,-2.7054,-2.7299,-2.6708,-2.5849,-2.6149,-2.5926,-2.5439,-2.5101,-2.5601,-2.6307,-2.5981,0.0,0.0,0.0,-2.7837,-2.9334,-3.3014,-3.4687,-3.6706,-4.2466,-4.3189,-4.3306,-4.6419,-4.7164,-4.7631,-4.9282,-4.9772,-4.983,-4.9708,0.0,0.0,0.0,0.0,0.0,0.0,0.0,0.0,0.0,0.0,0.0,0.0,0.0,0.0,0.0,-5.1597,-5.174,-5.2153,-5.2188,-5.2188,-5.2188,-5.2188,-5.2188,-5.2188,-5.2532,-5.2705,-5.2578,-5.2578,-5.2406,-5.2096,-5.1774,-5.1951,-5.2544,-5.1821,-5.127,-5.0926,-5.0636,-5.0287,-5.0011,-5.0011,-5.0011,-5.0011,-5.0011,-5.0011,-5.0011,0.0,0.0,0.0,0.0,0.0,0.0,0.0,0.0,0.0,0.0,0.0,0.0,-3.2509,0.0,0.0,0.0,-3.1298,-3.1142,-3.1259,-3.1259,-3.1447,-3.1781,-3.1972,-3.1972,-3.18,-3.1972,-3.1972,-3.18,-3.1651,-3.4054,-3.8836,-3.9084,-3.8536,-3.7451,-3.8638,-3.7282,-3.4049,-3.3326,-3.2039,-3.047,-2.9849,-2.8766,-2.7575,-2.808,-2.7453,-2.6303,-2.6152,-2.573,-2.5208,-2.4772,-2.527,-2.6023,-2.5884,-2.5878,0.0,0.0,0.0,-2.7011,-3.3033,-3.3761,-3.4476,-4.1435,-4.227,-4.2227,-4.5159,-4.6144,-4.7015,0.0,-4.9613,-4.9947,0.0,0.0,0.0,0.0,0.0,0.0,0.0,0.0,0.0,0.0,0.0,0.0,0.0,0.0,0.0,0.0,-5.0838,-5.108,-5.1602,-5.1636,-5.1636,-5.1636,-5.1636,-5.1636,-5.1636,-5.1808,-5.1912,-5.1912,-5.1912,-5.1808,-5.1632,-5.108,-5.1149,-5.1602,-5.108,-5.0838,-5.0804,-5.0252,-5.0011,-5.0011,-5.0011,-5.0011,-5.0011,-5.0011,-5.0011,-5.0011,0.0,0.0,0.0,0.0,0.0,0.0,0.0,0.0,0.0,0.0,0.0,0.0,-3.121,-3.121,-3.1176,-3.1142,-3.1123,-3.1278,-3.1744,-3.1763,-3.1781,-3.18,-3.2455,0.0,-3.18,-3.249,-3.249,-3.18,-3.18,-3.3367,-3.6525,-3.8675,-3.9761,-3.9884,-3.9068,-3.9242,-3.9826,-3.5026,-3.2612,-3.1988,-3.2015,-3.0258,-2.7696,-2.8814,-2.9054,-2.8759,-2.8168,-2.7913,-2.7657,-2.6062,-2.6291,-2.7012,-2.5957,-2.5509,-2.5429,0.0,0.0,0.0,-2.9575,-3.1379,-3.3026,-3.705,-3.8363,-3.9225,-4.1547,0.0,-4.4955,-4.73,-4.8982,-5.0011,0.0,0.0,0.0,0.0,0.0,0.0,0.0,0.0,0.0,0.0,0.0,0.0,0.0,0.0,0.0,0.0,-5.008,-5.008,-5.0114,-5.0114,-5.0114,-5.0114,-5.0114,-5.0114,-5.0114,-5.0804,-5.1183,-5.1183,-5.1183,-5.0804,-5.0114,-5.008,-5.008,-5.0114,-5.008,-5.008,-5.0045,-5.0011,-5.0011,-5.0011,-5.0011,-5.0011,-5.0011,-5.0011,-5.0011,-5.0011,0.0,0.0,0.0,0.0,0.0,0.0,0.0,0.0,0.0,0.0,0.0,0.0,0.0,-3.1542,-3.1542,-3.1542,-3.1259,-3.1162,-3.1317,-3.137,-3.1485,-3.18,-3.2041,-3.2076,-3.18,-3.2041,-3.2041,-3.18,-3.18,-3.3352,-3.6318,-3.7146,-3.8642,-4.071,-4.2576,-4.1027,-3.6961,-3.7441,-3.4891,-3.0831,-3.4092,-3.2904,-2.9424,-3.1935,-3.2573,-3.1832,-3.002,-3.0002,-3.0323,-2.7231,-2.6725,-2.7199,-2.5979,-2.5639,-2.5671,-2.5734,-2.5615,-2.6257,-2.9861,-3.036,-3.1042,-3.5834,-3.6808,-3.7365,-4.0487,-4.2712,-4.4371,-4.5328,-4.7907,-4.97,0.0,0.0,0.0,0.0,0.0,0.0,0.0,0.0,0.0,0.0,0.0,0.0,0.0,0.0,0.0,0.0,0.0,-4.8976,-4.9942,-4.9079,-4.8976,-4.9976,-5.0011,-5.0011,-5.0011,-5.0252,-5.039,-5.039,-5.039,-5.0252,-5.0011,-5.0011,-5.0011,-5.0011,-5.0011,-5.0011,-5.0011,-5.0011,-5.0011,-5.0011,-5.0011,-5.0011,-5.0011,-5.0011,-5.0011,-5.0011,0.0,0.0,0.0,-3.0905,0.0,-3.0649,-3.0804,-3.0911,-3.1069,-3.1186,0.0,0.0,0.0,0.0,-3.1312,-3.1312,-3.1298,-3.1317,-3.1317,-3.1317,-3.1485,-3.18,-3.2283,-3.2317,-3.18,-3.2559,-3.2559,-3.18,-3.2041,-3.3076,-3.48,-3.5559,-3.6965,-3.8975,-4.2165,-4.1384,-3.7797,-3.9547,-3.761,-3.3605,-3.6276,-3.5538,-3.2958,-3.4593,-3.513,-3.4884,-3.3549,-3.3311,-3.3298,-3.1167,-3.0127,-2.9484,-2.8267,-2.6742,-2.5312,-2.4946,-2.497,-2.5635,-2.8063,-2.8366,-2.8941,-3.2817,-3.3839,-3.4734,-3.7945,-4.092,-4.3297,-4.413,-4.732,-4.97,0.0,0.0,0.0,0.0,0.0,0.0,0.0,0.0,0.0,0.0,0.0,0.0,0.0,0.0,0.0,0.0,0.0,0.0,-4.9942,-4.9045,-4.8941,-4.9976,-5.0011,-5.0011,-5.0011,-5.0011,-5.0011,-5.0011,-5.0011,-5.0011,-5.0011,-5.0011,-5.0011,-5.0011,-5.0011,-5.0011,-5.0011,-5.0011,-5.0011,-5.0011,-5.0011,-5.0011,-5.0011,-5.0011,-4.9952,-4.983,-3.0435,-3.0825,-3.122,-3.1707,-3.1298,-3.1089,-3.1635,-3.1244,-3.1108,-3.1673,0.0,0.0,0.0,0.0,0.0,-3.0351,-3.122,-3.18,-3.18,-3.18,-3.18,-3.18,-3.3214,-3.3317,-3.1834,-3.3973,-3.4007,-3.18,-3.2524,-3.249,-3.1834,-3.4042,-3.4967,-3.4819,-3.7359,-4.0146,-4.2856,-4.1184,-4.0438,-4.0216,-3.8614,-3.8041,-3.7991,-3.657,-3.6657,-3.7688,-3.869,-3.7945,-3.6655,-3.7911,-3.6479,-3.3928,-3.2664,-2.8786,-2.4382,-2.2861,-2.2844,-2.3465,0.0,0.0,0.0,-2.7725,-2.9355,-3.1328,-3.3551,-3.7595,-4.1485,-4.3675,-4.7182,-4.9873,0.0,0.0,0.0,0.0,0.0,0.0,0.0,0.0,0.0,0.0,0.0,0.0,0.0,0.0,0.0,0.0,-4.9976,-4.9942,-5.0011,-5.0011,-5.0011,-5.0011,-5.0011,-5.0011,-5.0011,-5.0011,-5.0011,-5.0011,-5.0011,-5.0011,-5.0011,-5.0011,-5.0011,-5.0011,-5.0011,-5.0011,-5.0011,-5.0011,-5.0011,-4.9982,-5.0011,-5.0011,-4.9982,-5.0011,-4.9772,-4.95,-3.0865,-3.0804,-3.0804,-3.122,-3.0925,-3.0506,-3.0234,-3.0423,-3.0629,0.0,0.0,0.0,-3.1389,-3.1389,-3.1389,-3.1389,-3.1617,-3.18,-3.18,-3.18,-3.18,-3.18,-3.2214,-3.2248,-3.18,-3.2421,-3.2421,-3.18,-3.2007,-3.2007,-3.18,-3.2455,-3.2693,-3.272,-3.4898,-3.6435,-3.7629,-4.0994,-3.9316,-3.5013,-4.2082,-4.095,-3.554,-4.0021,-4.0302,-3.8469,-3.9737,-4.0192,-4.0083,-3.9408,-3.732,-3.4361,-3.0462,-2.8177,-2.6665,-2.5422,-2.4922,-2.4792,-2.4925,0.0,0.0,0.0,0.0,0.0,-3.0806,-3.4379,-3.8002,-3.9833,-4.356,0.0,0.0,0.0,0.0,0.0,0.0,0.0,0.0,0.0,0.0,0.0,0.0,0.0,0.0,0.0,0.0,0.0,-4.8976,-4.8838,-4.9942,-5.0011,-5.0011,-5.0011,-5.0011,-5.0011,-5.0011,-5.0011,-5.0011,-5.0011,-5.0011,-5.0011,-5.0011,-5.0011,-5.0011,-5.0011,-5.0011,-5.0011,-5.0011,-5.0011,-4.983,-4.9654,-4.9923,-4.983,-4.9683,-4.9923,-4.9952,-4.9801,-3.0485,-3.0539,-3.058,-3.0804,-3.0621,-3.033,-3.0032,-3.036,-3.0649,0.0,0.0,0.0,-3.1413,-3.1413,-3.1413,-3.1413,-3.1654,-3.18,-3.18,-3.18,-3.18,-3.18,-3.2076,-3.211,-3.18,-3.2421,-3.2421,-3.18,-3.211,-3.211,-3.18,-3.18,-3.18,-3.1869,-3.3005,-3.3602,-3.3957,-3.8434,-3.8894,-3.707,-4.2149,-4.2558,-4.0347,-4.3262,-4.3357,-4.2157,-4.3725,-4.4068,-4.3761,-4.3855,-4.1057,-3.6998,-3.3628,-3.0829,-2.8685,-2.8376,-2.7228,-2.5989,-2.5571,-2.5395,-2.5454,-2.5703,0.0,0.0,-2.981,-3.3815,-3.7836,0.0,-4.4004,0.0,0.0,0.0,0.0,0.0,0.0,0.0,0.0,0.0,0.0,0.0,0.0,0.0,0.0,-5.0011,-5.0011,-5.0011,-4.9183,-4.9079,-4.9942,-5.0011,-5.0011,-5.0011,-5.0011,-5.0011,-5.0011,-5.0011,-5.0011,-5.0011,-5.0011,-5.0011,-5.0011,-5.0011,-5.0011,-5.0011,-4.983,-4.9772,-4.9772,-4.9772,-4.9742,-4.9713,-4.9772,-4.9683,-4.95,-4.9564,-4.9564,-4.9535,0.0,-3.014,-3.0435,-3.0497,-3.0414,-3.0372,-3.0477,-3.071,-3.0931,0.0,-3.1466,-3.1576,-3.1171,-3.1072,-3.1106,-3.1233,-3.1762,-3.2041,-3.2041,-3.1972,-3.1903,-3.1903,-3.2455,-3.2455,-3.18,-3.3145,-3.3179,-3.18,-3.2436,-3.2436,-3.18,-3.1781,-3.1816,-3.1903,-3.1834,-3.1742,-3.1846,-3.4616,-3.8387,-4.2329,-4.0676,-4.3263,-4.7954,-4.6165,-4.5836,-4.6638,-4.8763,-4.8335,-4.7017,-4.889,-4.5753,-4.0759,-3.914,-3.4928,-3.0707,-3.1021,-2.9297,-2.708,-2.6136,-2.5798,-2.5704,-2.5615,-2.6213,0.0,-2.9641,-3.4003,-3.8407,-4.117,-4.5125,0.0,0.0,0.0,0.0,0.0,0.0,0.0,0.0,0.0,0.0,0.0,0.0,0.0,-5.0011,-5.0011,-4.9982,-4.9952,-4.9952,-4.9952,-4.9952,-4.9982,-5.0011,-5.0011,-5.0011,-5.0011,-5.0011,-5.0011,-5.0011,-5.0011,-5.0011,-5.0011,-5.0011,-5.0011,-5.0011,-4.9982,-4.9654,-4.95,-4.9505,-4.9441,-4.9624,-4.9894,-4.9654,-4.95,-4.9411,-4.9138,-4.9015,-4.8956,-2.9705,-2.9881,-3.0054,-3.0435,-3.0477,-3.0477,-3.0497,-3.0559,-3.069,-3.1064,-3.1181,-3.1555,-3.2421,-3.2216,-3.2414,-3.3402,-3.3589,-3.3628,-3.3628,-3.3041,-3.2697,-3.2697,-3.2248,-3.1938,-3.18,-3.2076,-3.211,-3.18,-3.177,-3.177,-3.18,-3.1632,-3.1941,-3.2662,-3.2041,-3.2126,-3.264,-3.2643,-3.4973,-3.8905,-4.2693,-4.4234,-4.463,-4.7817,-4.7231,-4.5182,-4.8678,-4.885,-4.7375,-4.6749,-4.5326,-4.2922,-3.7731,-3.5119,-3.3462,-3.0943,-2.9106,-2.7866,-2.7673,-2.7026,-2.6273,0.0,-2.6931,0.0,-2.7504,-2.8934,-3.125,0.0,-3.568,-3.7074,0.0,0.0,0.0,0.0,0.0,0.0,0.0,0.0,0.0,0.0,0.0,0.0,-5.0011,-5.0011,-4.9894,-4.9624,-4.9624,-4.9624,-4.9624,-4.983,-5.0011,-5.0011,-5.0011,-5.0011,-5.0011,-5.0011,-5.0011,-5.0011,-5.0011,-5.0011,-5.0011,-5.0011,-5.0011,-4.9982,-4.9654,-4.95,-4.9471,-4.9199,-4.9141,-4.9263,-4.9713,-4.9564,-4.9107,-4.932,-4.9229,-4.8956,-2.9466,-2.9617,-2.9881,-3.0118,-3.0838,-3.125,-3.0729,-3.107,-3.1528,-3.1821,-3.1941,-3.2149,-3.2559,-3.2252,-3.2451,-3.3401,-3.3179,-3.311,-3.349,-3.311,-3.3076,-3.349,-3.3014,-3.275,-3.275,-3.275,-3.275,-3.275,-3.2784,-3.2636,-3.2352,-3.267,-3.2842,-3.2904,-3.2938,-3.2881,-3.2715,-3.2452,-3.4499,-3.8219,-4.1719,-4.4078,-4.5803,-4.9252,-4.9597,-4.8493,-5.0424,-5.0602,-4.9746,-4.8317,-4.7341,0.0,-4.2271,-3.9009,-3.596,0.0,-3.0529,-2.8591,0.0,0.0,0.0,-2.6602,0.0,0.0,0.0,-2.941,-3.1369,-3.3623,-3.5046,-3.6123,-3.6973,0.0,0.0,0.0,0.0,0.0,0.0,0.0,0.0,0.0,0.0,0.0,-4.9742,-4.9594,-4.9445,-4.926,-4.9043,-4.9104,-4.9471,-4.9471,-4.956,-4.9742,-4.9742,-4.9683,-4.9505,-4.9505,-4.9505,-4.9505,-4.9505,-4.9505,-4.9505,-4.9505,-4.9505,-4.9475,-4.9138,-4.9015,-4.8984,-4.8829,-4.8736,-4.8798,-4.9324,-4.9415,-4.9229,-4.9046,-4.8984,-4.8956,-2.9304,-2.9403,-2.9661,-2.9661,-3.0967,-3.1729,-3.0758,-3.1689,-3.2596,-3.2871,-3.3094,-3.3274,-3.3475,-3.3063,-3.324,-3.4352,-3.4007,-3.3766,-3.3766,-3.4042,-3.4283,-3.449,-3.4054,-3.3741,-3.3625,-3.357,-3.3433,-3.3196,-3.347,-3.3279,-3.2697,-3.3313,-3.3416,-3.3145,-3.3628,-3.3928,-3.3973,-3.3997,-3.6088,-3.9508,-4.1381,-4.4199,-4.7534,-5.0199,-5.1365,-5.1602,-5.2015,-5.2188,-5.1946,-5.0174,-4.9148,-4.8346,-4.6704,-4.2607,0.0,0.0,0.0,0.0,0.0,0.0,0.0,0.0,0.0,-2.7625,0.0,0.0,0.0,0.0,0.0,0.0,0.0,0.0,0.0,0.0,0.0,0.0,0.0,0.0,0.0,0.0,0.0,0.0,0.0,-4.8041,-4.8296,-4.8858,-4.8321,-4.8288,-4.9043,-4.8883,-4.8883,-4.9165,-4.9381,-4.932,-4.8984,-4.9018,-4.9018,-4.9018,-4.9018,-4.9018,-4.9018,-4.9018,-4.9018,-4.8987,-4.8642,-4.8547,-4.8578,-4.829,-4.8322,-4.861,-4.8892,-4.9141,-4.9229,-4.8767,-4.8673,-4.8769,-2.9438,-2.9129,-2.9183,-2.9183,-3.0219,-3.0815,-3.0042,-3.1831,-3.3434,-3.3862,-3.4157,-3.5241,-3.761,-3.6898,-3.7251,-3.9744,-4.0515,-3.9756,-3.7167,-3.818,-3.8077,-3.6146,-3.478,-3.3842,-3.3439,-3.3137,-3.2486,-3.1413,-3.1662,-3.1819,-3.1938,-3.1854,-3.2559,-3.3958,-3.3317,-3.5228,-3.8848,-3.8215,-3.9959,-4.331,-4.5582,-4.6152,-4.6094,-5.0103,-5.0605,-4.943,-5.1464,-5.2188,-5.1783,0.0,-4.8082,-4.7522,0.0,-4.1759,-3.9116,-3.8817,0.0,0.0,0.0,0.0,0.0,0.0,-2.9295,0.0,0.0,0.0,-2.8263,-2.843,0.0,0.0,0.0,0.0,0.0,0.0,0.0,0.0,0.0,0.0,0.0,0.0,0.0,0.0,0.0,-4.3797,-4.5752,-4.8348,-4.7239,-4.6765,-4.7506,-4.8093,-4.8253,-4.7997,-4.8948,-4.932,-4.8984,-4.9018,-4.9018,-4.9018,-4.9018,-4.9018,-4.9018,-4.9018,-4.9018,-4.8987,-4.8642,-4.8673,-4.8829,-4.7539,-4.777,-4.8956,-4.9018,-4.8829,-4.8642,-4.8861,-4.8578,-4.8164,-3.0357,-3.0474,-3.0826,-3.1092,-3.2121,-3.2851,-3.2497,-3.3715,-3.425,-3.3061,-3.4062,-3.5767,-3.7946,-3.7581,-3.838,-4.1285,-4.1826,-4.1481,-4.0204,-3.9836,-3.9491,-3.8996,-3.6195,-3.491,-3.5526,-3.4605,-3.3838,-3.3237,-3.3528,-3.324,-3.2455,-3.2827,-3.3319,-3.3897,-3.4568,-3.6535,-3.9382,-3.9778,-4.169,-4.4646,-4.622,-4.6804,-4.71,-5.068,-5.1811,-5.1495,-5.1597,-5.2177,-5.2452,0.0,-4.9692,0.0,0.0,0.0,0.0,-4.1016,0.0,0.0,0.0,0.0,0.0,0.0,0.0,0.0,-3.0633,0.0,-2.7585,0.0,0.0,0.0,0.0,0.0,0.0,0.0,-2.7384,0.0,0.0,0.0,0.0,0.0,0.0,0.0,0.0,0.0,0.0,0.0,-4.4616,-4.4177,-4.4852,-4.6086,-4.6971,-4.7473,-4.7965,-4.8289,-4.8421,-4.8421,-4.8195,-4.7737,-4.7737,-4.7737,-4.7737,-4.7737,-4.7967,-4.8421,-4.826,-4.8,-4.7671,-4.7067,-4.6898,-4.7069,-4.7069,-4.777,-4.8767,-4.8736,-4.8515,-4.826,-3.141,-3.1544,-3.1742,-3.2039,-3.3294,-3.4396,-3.4861,-3.5835,-3.5958,-3.4333,-3.5654,-3.7485,-3.9436,-3.8746,-3.9388,-4.263,-4.3113,-4.3078,-4.2654,-4.1439,-4.1164,-4.2078,-3.7513,-3.5793,-3.7644,-3.5482,-3.4096,-3.3645,-3.3849,-3.3304,-3.2154,-3.2812,-3.3148,-3.3284,-3.5014,-3.7227,-3.972,-4.1646,-4.4053,-4.6747,-4.8089,-4.8821,-4.93,-5.1136,-5.25,-5.3247,-5.2198,-5.2503,-5.2976,-5.0107,-5.0582,0.0,-4.8182,0.0,-4.4223,0.0,0.0,0.0,-3.6969,0.0,0.0,0.0,0.0,0.0,0.0,0.0,0.0,0.0,0.0,0.0,0.0,0.0,0.0,-2.6716,0.0,-2.6504,0.0,0.0,0.0,0.0,0.0,0.0,0.0,0.0,0.0,0.0,0.0,-4.2022,-4.2708,-4.4464,-4.575,-4.6488,-4.6833,-4.7137,-4.737,-4.737,-4.71,-4.6515,-4.6515,-4.6515,-4.6515,-4.6515,-4.6828,-4.737,-4.737,-4.71,-4.6622,-4.6308,-4.6024,-4.5809,-4.5515,-4.6483,-4.8096,-4.8129,-4.8226,-4.8324,-3.2544,-3.1727,-3.0974,-3.0873,-3.249,-3.4376,-3.5998,-3.7786,-3.9092,-3.9434,-4.0192,-4.1585,-4.3837,-4.1423,-4.1147,-4.4949,-4.5983,-4.5803,-4.4311,-4.3697,-4.3951,-4.5198,-3.8529,-3.6166,-3.9089,-3.4897,-3.2065,-3.0725,-3.0695,-3.0501,-3.0192,-3.0468,-3.1095,-3.2039,-3.3786,-3.691,-4.1078,-4.4837,-4.7951,-5.0632,-5.2853,-5.3347,-5.2571,0.0,-5.1811,-5.3382,-5.3348,0.0,0.0,-5.0422,-4.9653,0.0,0.0,0.0,0.0,0.0,0.0,0.0,0.0,0.0,0.0,-3.4512,0.0,0.0,0.0,0.0,-2.8577,0.0,0.0,0.0,0.0,0.0,-2.8873,-2.6926,-2.6596,0.0,0.0,0.0,0.0,0.0,0.0,0.0,0.0,0.0,0.0,0.0,0.0,0.0,-4.1599,-4.378,-4.4868,-4.4586,-4.567,-4.6099,-4.5769,-4.5769,-4.5769,-4.5733,-4.5733,-4.5733,-4.5733,-4.5733,-4.5733,-4.5769,-4.5769,-4.5953,-4.6138,-4.5042,-4.5196,-4.6067,-4.4968,-4.5073,-4.5949,-4.6968,-4.7638,-4.8066,-3.2835,-3.2342,-3.2322,-3.2596,-3.3583,-3.4565,-3.5203,-3.606,-3.7344,-3.9227,-3.9926,-4.2057,-4.6749,-4.6355,-4.6458,-4.8286,-5.008,-5.0252,-4.8217,-4.7379,-4.7423,-4.8396,-4.2812,-3.9874,-4.0247,-3.7398,-3.4684,-3.219,-3.1831,-3.1781,-3.205,-3.0991,-3.1688,-3.3854,-3.483,-3.7569,-4.1685,-4.5654,-4.8604,-5.0704,0.0,-5.2318,-5.2093,0.0,-5.2198,-5.2729,-5.2729,-5.2729,0.0,-5.0625,-5.0657,-5.1255,-5.0155,-4.8829,-4.8034,-5.0253,-4.7671,0.0,0.0,0.0,-4.388,-4.1411,0.0,0.0,0.0,0.0,0.0,0.0,0.0,0.0,0.0,0.0,-2.8427,-2.6841,-2.6213,-2.5405,0.0,0.0,0.0,0.0,0.0,0.0,0.0,0.0,0.0,0.0,-3.6344,0.0,0.0,-4.0132,-4.2145,-4.2546,-4.4179,-4.5264,-4.5697,-4.5697,-4.5442,-4.4924,-4.4924,-4.4924,-4.4924,-4.4924,-4.5184,-4.5697,-4.5697,-4.5447,-4.5042,-4.4662,-4.4434,-4.4251,-4.3849,-4.4167,-4.5073,-4.6483,-4.7067,-4.7203,-3.2992,-3.2578,-3.2823,-3.3135,-3.4367,-3.5671,-3.6577,-3.7749,-3.9559,-4.2368,-4.2453,-4.4065,-4.8712,-4.8499,-4.8534,-4.9873,-5.0838,-5.1321,-5.1218,-4.8048,-4.7703,-5.1066,-4.4611,-4.1522,-4.287,-3.9567,-3.7142,-3.5631,-3.3461,-3.281,-3.3567,-3.1619,-3.1814,-3.3805,-3.5296,-3.7534,-4.0518,-4.5551,-4.842,-4.9658,0.0,-5.1605,0.0,0.0,-5.1853,-5.2729,0.0,-5.248,-5.2385,-5.1315,-5.1612,-5.2208,-5.128,-5.0651,-5.0551,-5.1976,-5.0056,-4.7703,-4.8789,-4.8351,0.0,-4.4768,-4.1969,0.0,-3.7285,0.0,0.0,0.0,0.0,0.0,0.0,0.0,-2.9505,-2.6991,-2.6422,-2.5764,0.0,-2.3759,0.0,0.0,0.0,0.0,0.0,0.0,0.0,-3.2793,-3.3668,-3.4264,0.0,0.0,-4.0654,-4.1168,-4.3053,-4.432,-4.4849,-4.4849,-4.4586,-4.4082,-4.4082,-4.4082,-4.4082,-4.4082,-4.4358,-4.4849,-4.4849,-4.4548,-4.4082,-4.4082,-4.3771,-4.329,-4.329,-4.3645,-4.4205,-4.552,-4.6308,-4.6828,-3.2992,-3.2382,-3.241,-3.2465,-3.4867,-3.7558,-3.9767,-4.2475,-4.5363,-4.8264,-4.7507,-4.7575,-4.9873,-4.8286,-4.7872,-4.9873,-4.8838,-4.9499,-5.3011,-4.621,-4.5433,-5.3111,-4.4266,-4.1534,-4.6629,0.0,0.0,-4.0445,-3.5359,-3.3514,-3.462,-3.2343,-3.151,-3.2099,-3.5024,-3.6763,-3.7952,-4.4742,-4.7741,-4.803,-4.9494,-5.1351,-5.2977,-5.0226,-5.0928,-5.3281,-5.2624,-5.2622,-5.2834,-5.2516,-5.2409,-5.2409,-5.2409,-5.2409,-5.2409,-5.2409,-5.2409,-5.223,-5.1397,-5.0057,-4.8117,-4.4732,0.0,0.0,0.0,0.0,-3.7434,0.0,0.0,0.0,0.0,0.0,0.0,-2.7619,-2.7255,-2.6896,-2.4963,0.0,0.0,0.0,0.0,0.0,0.0,0.0,-3.0193,-2.9651,-3.1958,-3.3724,0.0,0.0,-4.0187,-4.0397,-4.2162,-4.314,-4.329,-4.323,-4.323,-4.329,-4.329,-4.329,-4.329,-4.329,-4.329,-4.329,-4.329,-4.329,-4.329,-4.329,-4.329,-4.329,-4.329,-4.329,-4.3409,-4.4167,-4.5447,-4.6759,-3.2992,-3.2382,-3.2629,-3.3319,-3.6149,-3.8745,-3.9902,-4.2521,-4.4905,-4.638,-4.7617,-4.9231,-5.1399,-5.2632,-5.2632,-5.0976,-5.2011,-5.2218,-5.0976,-4.9977,-5.0873,-5.407,-5.0149,-4.7737,-4.7373,-4.4831,-4.2648,-4.0836,-3.7526,-3.6314,-3.7046,-3.3814,-3.3024,-3.4356,-3.5071,-3.6246,-3.8112,-4.4084,-4.8209,-5.0617,-4.907,-4.9639,-5.1296,0.0,-5.1396,-5.2972,-5.2551,-5.2445,-5.2516,-5.2409,-5.2409,-5.2409,-5.2409,-5.2409,-5.2409,-5.2409,-5.2409,-5.2338,-5.2158,-5.1303,-5.0127,-4.859,-4.557,-4.2694,0.0,0.0,0.0,0.0,0.0,0.0,0.0,0.0,0.0,-3.136,-2.8667,-2.6686,0.0,0.0,0.0,-2.5106,0.0,0.0,0.0,-2.7829,-2.9235,-2.9592,-3.112,-3.2736,0.0,0.0,0.0,-4.0307,-3.9918,-4.0846,-4.326,-4.2372,-4.2372,-4.329,-4.329,-4.329,-4.329,-4.329,-4.329,-4.329,-4.329,-4.329,-4.329,-4.329,-4.329,-4.329,-4.329,-4.329,-4.3409,-4.4167,-4.5147,-4.5913,-3.2992,-3.2715,-3.3111,-3.3533,-3.7691,-4.121,-4.1989,-4.4797,-4.7631,-4.9804,-5.0834,-5.2124,-5.4015,-5.5357,-5.546,-5.3736,-5.3253,-5.3149,-5.3425,-5.1188,-5.1543,-5.5345,-5.2106,-4.9603,-4.8289,-4.6988,0.0,-4.3794,-3.9913,-3.8483,-3.9338,-3.5246,-3.3729,-3.4529,-3.5276,-3.641,-3.8169,-4.3994,-4.823,-5.0958,-4.9263,-4.9817,0.0,-5.0393,-5.1058,-5.2657,-5.248,-5.248,-5.2622,-5.2445,-5.2409,-5.2409,-5.2409,-5.2409,-5.2409,-5.2409,-5.2409,-5.2409,-5.2409,-5.1729,-5.0914,-5.0002,-4.777,-4.5554,-4.474,-4.315,-4.1743,0.0,0.0,0.0,0.0,0.0,0.0,0.0,0.0,0.0,0.0,0.0,0.0,0.0,-2.7141,0.0,0.0,-2.759,-2.8876,-2.9562,-3.0522,-3.166,0.0,0.0,0.0,-3.8212,-3.92,-4.0307,-4.1586,-4.0876,-4.1175,-4.2491,-4.2491,-4.2751,-4.329,-4.329,-4.329,-4.329,-4.329,-4.329,-4.329,-4.329,-4.329,-4.329,-4.329,-4.329,-4.3369,-4.381,-4.4472,-4.511,-3.2992,-3.3197,-3.3966,-3.4202,-3.9392,-4.3959,-4.545,-4.846,-5.1718,-5.4876,-5.5012,-5.5219,-5.6357,-5.6771,-5.6874,-5.6667,-5.3701,-5.346,-5.7219,-5.148,-5.0589,-5.6537,-5.2378,-4.9919,-4.9785,-4.8806,-4.8128,0.0,-4.2334,-4.0194,-4.11,-3.633,-3.3912,-3.3681,-3.5366,-3.7047,-3.8965,-4.4029,-4.7774,-5.0204,-4.9784,-5.076,-5.2331,-5.0323,-5.0717,-5.2409,-5.2409,-5.2587,-5.2764,-5.2516,-5.2409,-5.2409,-5.2409,-5.2338,-5.223,-5.223,-5.223,-5.223,-5.223,-5.1582,-5.08,-5.0151,-4.9197,-4.824,-4.7624,-4.6946,-4.6441,-4.6352,-4.5394,-4.3838,0.0,0.0,0.0,0.0,0.0,0.0,0.0,0.0,0.0,0.0,0.0,0.0,0.0,0.0,-2.8783,-2.9442,-3.0071,0.0,0.0,0.0,0.0,-3.5908,-3.896,-4.0307,-3.9679,0.0,-4.0157,-4.1624,-4.1474,-4.2102,-4.3409,-4.3409,-4.3469,-4.3559,-4.3559,-4.3559,-4.3559,-4.3469,-4.3379,-4.329,-4.329,-4.329,-4.329,-4.329,-4.3732,-4.432,-3.2992,-3.3624,-3.5591,-3.8417,-4.1012,-4.4549,-5.006,-5.2514,-5.3713,-5.3811,-5.5322,-5.6012,-5.5012,-5.6598,-5.7219,-5.5943,-5.5805,0.0,0.0,0.0,0.0,-5.6743,-5.5314,-5.4187,-5.3582,-5.2167,-5.0914,0.0,0.0,-4.131,-4.0554,-3.603,-3.3841,-3.372,-3.4255,-3.7694,-4.3099,-4.3446,-4.6267,-5.0557,-4.979,-4.9993,-5.0753,-5.1547,-5.2042,-5.2409,-5.2409,-5.2445,-5.248,-5.2409,-5.2409,-5.2409,-5.2409,-5.1908,-5.1322,-5.1322,-5.1322,-5.1322,-5.1322,-5.0691,-5.0158,-5.0729,-4.9157,-4.7666,-4.824,-4.7716,-4.698,-4.6399,-4.61,-4.5442,-4.3928,0.0,0.0,0.0,0.0,0.0,0.0,0.0,0.0,0.0,0.0,-3.1999,0.0,0.0,0.0,0.0,0.0,0.0,0.0,0.0,0.0,0.0,-3.7015,0.0,0.0,0.0,-4.0569,-4.2931,-4.1893,-4.2342,-4.4137,-4.4137,-4.4436,-4.4945,-4.4945,-4.4945,-4.4915,-4.4377,-4.3798,-4.329,-4.329,-4.329,-4.329,-4.329,-4.3409,-4.3527,-3.6101,-3.5661,-3.6111,-3.8051,-4.124,-4.4854,0.0,-5.2184,-5.4562,-5.5043,-5.6406,-5.6847,-5.5749,-5.6592,-5.693,-5.6187,-5.541,-5.5104,-5.5543,-5.4801,-5.5037,-5.6626,-5.5562,-5.4262,-5.2807,-5.2758,-5.1546,-4.9038,0.0,-4.2534,-4.0523,-3.6094,-3.3885,-3.3661,-3.6263,-3.9238,0.0,-4.5012,-4.7563,-4.9959,-5.0725,-5.1154,-5.1413,-5.2108,-5.2409,-5.2409,-5.2409,-5.2409,-5.2409,-5.2409,-5.2409,-5.2409,-5.2409,-5.1798,-5.121,-5.1619,-5.114,-5.0538,-5.0989,-5.0461,-4.9805,-4.9797,-4.8903,-4.7976,-4.7934,-4.7624,-4.7219,-4.689,-4.6561,-4.5693,-4.3688,-4.0965,0.0,0.0,0.0,0.0,0.0,0.0,0.0,0.0,0.0,0.0,0.0,0.0,0.0,0.0,0.0,0.0,0.0,0.0,0.0,0.0,0.0,0.0,0.0,0.0,0.0,-4.2312,-4.2081,-4.2731,-4.4317,-4.4676,-4.5005,-4.5304,-4.5304,-4.5304,-4.5274,-4.4945,-4.4646,-4.4347,-4.4347,-4.4347,-4.4347,-4.4347,-4.4347,-4.4257,-3.9937,-3.9125,-3.862,-3.9439,-4.2687,-4.5925,-4.8087,-5.1797,-5.4919,-5.6469,-5.7333,-5.7557,-5.692,-5.6882,-5.6711,-5.6378,-5.5011,-5.4538,-5.5388,-5.4671,-5.4704,-5.589,-5.5201,-5.3903,-5.1972,-5.289,-5.1763,0.0,0.0,0.0,0.0,-3.6692,-3.4761,-3.4703,0.0,0.0,0.0,0.0,-4.9458,-5.0187,-5.191,-5.2705,-5.2837,-5.2837,-5.2837,-5.2837,-5.2837,-5.2837,-5.2804,-5.2672,-5.2506,-5.2409,-5.2409,-5.1798,-5.121,-5.1692,-5.0881,-4.9884,-5.0422,-5.0073,-4.9407,-4.8953,-4.8615,-4.8198,-4.7709,-4.7409,-4.7309,-4.7309,-4.677,-4.5693,-4.3648,-4.2269,0.0,0.0,0.0,0.0,0.0,0.0,0.0,0.0,0.0,0.0,-3.354,0.0,0.0,0.0,0.0,-3.1033,-3.1898,-3.3216,-3.442,0.0,0.0,-3.8277,-3.92,0.0,-4.0277,-4.2013,-4.2291,-4.3249,-4.4766,-4.5274,-4.5574,-4.5723,-4.5723,-4.5633,-4.5514,-4.5514,-4.5424,-4.5304,-4.5304,-4.5304,-4.5304,-4.5304,-4.5304,-4.5155,-4.3183,-4.4567,-4.6536,0.0,0.0,-4.9102,-5.3907,-5.4501,-5.4917,-5.6402,-5.7305,-5.7777,-5.7704,-5.7704,-5.7094,-5.5673,-5.6653,-5.573,-5.1879,-5.5219,-5.6301,-5.3878,-5.545,-5.5743,-5.4397,-5.385,-5.2654,0.0,0.0,-4.3996,0.0,-3.8142,-3.7453,0.0,0.0,0.0,0.0,-4.8597,-5.0618,-5.3036,-5.3235,-5.3732,-5.4328,-5.4328,-5.4328,-5.4328,-5.4328,-5.4328,-5.4229,-5.3533,-5.2904,-5.2409,-5.2409,-5.1798,-5.0951,-5.0267,-4.9923,-4.9647,-4.8994,-4.8749,-4.8872,-4.9527,-4.8573,-4.7624,-4.8324,-4.7849,-4.7309,-4.7309,-4.677,-4.6274,-4.6226,-4.3578,-4.0912,0.0,0.0,0.0,0.0,0.0,-3.6044,-3.543,0.0,0.0,0.0,-3.2078,0.0,0.0,-2.9658,-3.0563,-3.3367,-3.2125,-3.2611,-3.54,0.0,-3.676,-3.8482,-3.911,-4.0965,-4.4018,-4.295,-4.3688,-4.61,-4.6202,-4.6561,-4.713,-4.713,-4.677,-4.619,-4.619,-4.5873,-4.5304,-4.5304,-4.5304,-4.5304,-4.5304,-4.5304,-4.5274,0.0,0.0,0.0,0.0,0.0,0.0,0.0,-5.2942,-5.3999,-5.497,-5.6264,-5.6696,-5.5676,-5.5555,-5.5328,-5.4663,-5.519,-5.481,-5.3021,-5.4575,-5.5077,-5.3914,-5.468,-5.4847,-5.4351,-5.4278,-5.3302,0.0,0.0,0.0,0.0,0.0,0.0,0.0,0.0,-4.7216,-4.8691,-5.0713,-5.2528,-5.4063,-5.4063,-5.4262,-5.449,-5.449,-5.449,-5.449,-5.449,-5.449,-5.4423,-5.4162,-5.3599,-5.2937,-5.2506,-5.1798,-5.1027,-5.0653,-4.9876,-4.8994,-4.8697,-4.8229,-4.7892,-4.8198,-4.7807,-4.7366,-4.7752,-4.7538,-4.7309,-4.7309,-4.71,-4.6933,-4.7159,-4.5703,-4.4127,0.0,0.0,0.0,0.0,0.0,0.0,-3.9093,0.0,-3.7677,0.0,-3.5183,-3.3,-3.3372,0.0,-3.0143,-3.1972,-3.2516,0.0,-3.6733,0.0,-3.8612,-4.1324,-4.1235,-4.2252,-4.4317,-4.4616,-4.5304,-4.6279,-4.6741,-4.707,-4.7309,-4.7309,-4.716,-4.692,-4.692,-4.6741,-4.6501,-4.6501,-4.6501,-4.6501,-4.6501,-4.6501,-4.6501,-5.1238,0.0,-4.8152,0.0,-4.9015,-4.9607,-4.9945,-5.2331,-5.3925,-5.346,-5.5401,-5.6246,-5.4655,-5.4423,-5.4263,-5.384,-5.42,-5.3883,-5.2576,-5.3714,-5.4084,-5.3218,-5.3755,0.0,-5.3931,-5.4136,-5.3412,-5.1782,-4.9181,0.0,0.0,0.0,0.0,0.0,-4.7382,-4.9193,-4.9891,-5.1893,-5.3258,-5.4038,-5.4301,-5.4547,-5.4782,-5.5043,-5.5156,-5.5156,-5.5156,-5.5156,-5.5123,-5.4887,-5.4307,-5.3531,-5.2897,-5.1782,-5.08,-5.1027,-4.9915,-4.8615,-4.8615,-4.7976,-4.7309,-4.7309,-4.7309,-4.7309,-4.7309,-4.7309,-4.7309,-4.7396,-4.7352,-4.7396,-4.7666,-4.7274,-4.6441,-4.4999,0.0,0.0,0.0,0.0,0.0,0.0,-3.9,-3.8383,-4.0405,-3.6813,-3.4633,0.0,0.0,0.0,0.0,0.0,0.0,0.0,0.0,0.0,0.0,-4.2102,-4.303,-4.4915,-4.5831,-4.6369,-4.6621,-4.71,-4.7309,-4.7309,-4.7309,-4.7309,-4.7309,-4.7309,-4.7309,-4.7309,-4.7309,-4.7309,-4.7309,-4.7309,-4.7309,-4.7309,-5.6663,-5.6476,-5.6171,-5.5304,-5.4537,-5.3302,-5.1014,-5.3907,-5.5256,-5.2135,-5.5037,-5.6867,-5.5442,-5.5312,-5.4649,-5.3172,-5.4422,-5.3383,-4.8977,-5.2813,-5.401,0.0,0.0,-5.3856,-5.3421,-5.3421,-5.2935,-5.1865,0.0,0.0,-4.6262,0.0,-4.6889,-4.7669,-5.0495,-5.1767,-5.1767,-5.1799,-5.2219,-5.3017,-5.3922,-5.4705,-5.5402,-5.6303,-5.6647,-5.6647,-5.6647,-5.6647,-5.6547,-5.5814,-5.5017,-5.4175,-5.3573,-5.1734,-4.9962,-5.0838,-4.9915,-4.8615,-4.8615,-4.7976,-4.7309,-4.7309,-4.7309,-4.7309,-4.7309,-4.7309,-4.7352,-4.7538,-4.7439,-4.7439,-4.7922,-4.7794,-4.6875,-4.4669,0.0,0.0,0.0,0.0,0.0,-3.9582,-3.7153,-3.626,-3.8058,-3.5736,0.0,0.0,0.0,0.0,0.0,0.0,0.0,-3.5459,-3.5649,0.0,-3.9403,-4.0756,-4.303,-4.6249,-4.6279,-4.6681,-4.7309,-4.7309,-4.7309,-4.7309,-4.7309,-4.7309,-4.7309,-4.7309,-4.7309,-4.7309,-4.7309,-4.7309,-4.7309,-4.7309,-4.7309,-4.7309,-5.1467,-5.3174,-5.4351,-5.2667,-5.3333,-5.3997,-5.3765,-5.4718,-5.5355,-5.4818,-5.5808,-5.6408,-5.5962,-5.5898,-5.5739,0.0,-5.4211,-5.345,0.0,-5.2797,-5.2692,-5.2912,-5.2062,-5.1445,-5.1161,-5.082,-5.0389,-4.9907,0.0,0.0,0.0,-4.7731,-4.8585,-5.0095,-5.1,-5.1737,-5.2355,-5.2355,-5.284,-5.3703,-5.3999,-5.421,-5.4443,-5.4736,-5.5231,-5.5749,-5.5749,-5.6179,-5.6647,-5.6415,-5.5056,-5.3492,-5.3876,-5.2402,-5.0452,-5.0088,-4.9326,-4.849,-4.7892,-4.7495,-4.7309,-4.7309,-4.7309,-4.7309,-4.7309,-4.7309,-4.7352,-4.7538,-4.7538,-4.7624,-4.8133,-4.8133,-4.7555,-4.5908,-4.6343,0.0,0.0,0.0,0.0,0.0,-4.0293,-3.9521,-4.105,-3.9011,0.0,0.0,0.0,0.0,0.0,0.0,0.0,0.0,-4.0027,0.0,-4.3389,-4.3389,-4.4377,-4.6322,-4.677,-4.71,-4.7309,-4.7309,-4.7309,-4.7309,-4.7309,-4.7309,-4.7309,-4.7309,-4.7309,-4.7309,-4.7309,-4.7309,-4.7309,-4.7309,-4.7309,-4.7309,-5.2644,-5.3981,-5.4932,-5.3633,-5.4232,-5.4861,-5.4636,-5.5311,-5.5828,-5.5721,-5.6428,-5.6979,-5.6979,-5.6979,0.0,-5.622,-5.49,-5.4478,-5.5462,-5.3726,-5.3126,-5.4135,-5.2445,-5.139,-5.1188,-5.0845,0.0,-5.0089,-4.9599,-4.9374,-4.9374,-4.9374,-5.0032,-5.1229,-5.1229,-5.1526,-5.2094,-5.2094,-5.2426,-5.3007,-5.3328,-5.3459,-5.3502,-5.3848,-5.4359,-5.4819,-5.4819,-5.5393,-5.6106,-5.5789,-5.4654,-5.3429,-5.3597,-5.2261,-5.0503,-5.0102,-4.9281,-4.8365,-4.794,-4.7538,-4.7309,-4.7309,-4.7309,-4.7309,-4.7309,-4.7309,-4.7396,-4.7666,-4.7666,-4.7752,-4.8218,-4.8301,-4.8026,-4.717,-4.7548,-4.764,-4.6689,0.0,0.0,0.0,0.0,0.0,0.0,-4.1587,-4.0689,0.0,0.0,0.0,0.0,0.0,0.0,-4.1055,-4.197,0.0,-4.4915,-4.4766,-4.5364,-4.6681,-4.71,-4.7309,-4.7309,-4.7309,-4.7309,-4.7309,-4.7309,-4.7309,-4.7309,-4.7309,-4.7309,-4.7309,-4.7309,-4.7309,-4.7309,-4.7309,-4.7309,-4.7309,-5.8221,-5.7771,-5.7355,0.0,-5.673,0.0,-5.4316,-5.5897,-5.673,-5.526,-5.6951,-5.8321,-5.8321,-5.8321,-5.7783,-5.6441,0.0,0.0,0.0,-5.5273,-5.4731,-5.4763,-5.379,-5.309,-5.2719,-5.2719,-5.2424,-5.1849,-5.1386,-5.1229,-5.1229,-5.1229,-5.1229,-5.1229,-5.1229,-5.1229,-5.1229,-5.1229,-5.1229,-5.1276,-5.2185,-5.2516,-5.2606,-5.3459,-5.3848,-5.3891,-5.3891,-5.4485,-5.5108,-5.4274,-5.3934,-5.3762,-5.2874,-5.1531,-5.0351,-5.0642,-4.9608,-4.8367,-4.8527,-4.7964,-4.7309,-4.7309,-4.7309,-4.7309,-4.7309,-4.7352,-4.7482,-4.7922,-4.7794,-4.7794,-4.826,-4.8343,-4.8343,-4.8343,-4.848,-4.8573,-4.8481,0.0,0.0,0.0,0.0,0.0,0.0,-4.3509,-4.3708,0.0,0.0,0.0,0.0,0.0,-3.8469,-4.0726,-4.2013,-4.324,-4.4496,-4.5125,-4.6052,-4.7309,-4.7309,-4.7309,-4.7309,-4.7309,-4.7309,-4.7309,-4.7309,-4.7309,-4.7309,-4.7309,-4.7309,-4.7309,-4.7309,-4.7309,-4.7309,-4.7309,-4.7309,-4.7309,0.0,0.0,-5.6912,-5.5831,-5.6829,-5.7674,-5.7281,-5.7706,-5.7895,-5.7533,-5.7958,-5.8321,-5.8321,-5.8321,-5.8194,-5.78,-5.6181,-5.5663,-5.6915,-5.4982,-5.4009,-5.4465,-5.2667,-5.1129,-4.997,-4.9927,-5.0348,-5.1369,-5.1246,-5.1229,-5.1229,-5.1229,-5.1229,-5.1229,-5.1229,-5.1229,-5.1229,-5.1229,-5.1229,-5.1229,-5.1433,-5.1526,-5.1572,-5.1773,-5.229,-5.2962,-5.2962,-5.3502,-5.4274,-5.4062,-5.3502,-5.2887,-5.2695,-5.1835,-5.0857,-5.0472,-4.9357,-4.8281,-4.835,-4.7842,-4.7309,-4.7309,-4.7439,-4.7538,-4.7538,-4.7666,-4.788,-4.7964,-4.8091,-4.8218,-4.848,-4.8521,-4.8521,-4.8521,-4.8563,-4.8235,-4.7219,-4.6203,0.0,0.0,-4.4295,-4.4572,-4.4318,-4.5546,-4.5629,0.0,0.0,0.0,0.0,-4.2925,-4.3051,-4.4855,-4.5214,-4.5783,-4.6591,-4.6741,-4.698,-4.7309,-4.7309,-4.7309,-4.7309,-4.7309,-4.7309,-4.7309,-4.7309,-4.7309,-4.7309,-4.7309,-4.7309,-4.7309,-4.7309,-4.7309,-4.7309,-4.7309,-4.7309,-4.7309,-5.4888,-5.632,-5.7453,-5.6694,-5.7516,-5.8321,-5.8321,-5.8321,-5.8321,-5.8321,-5.8321,-5.8321,-5.8321,-5.8321,-5.8321,-5.8321,-5.7141,-5.6748,-5.7642,-5.6032,-5.5225,-5.5524,-5.3957,-5.2471,-5.1189,-5.1011,-5.1046,-5.1229,-5.1229,-5.1229,-5.1229,-5.1229,-5.1229,-5.1229,-5.1229,-5.1229,-5.1229,-5.1229,-5.1229,-5.1229,-5.1229,-5.1229,-5.1229,-5.1229,-5.1526,-5.1957,-5.1957,-5.2561,-5.3284,-5.2843,-5.2695,-5.2516,-5.2094,-5.1618,-5.1139,-5.0734,-4.9972,-4.9045,-4.8579,-4.8115,-4.7742,-4.7499,-4.7495,-4.7624,-4.7752,-4.788,-4.8007,-4.8133,-4.8218,-4.8385,-4.8563,-4.8604,-4.8604,-4.8604,-4.8112,-4.7434,-4.6696,-4.5741,0.0,-4.4972,-4.5588,-4.6142,-4.6388,-4.7313,-4.7344,-4.5988,-4.5039,0.0,-4.594,-4.5072,-4.5251,-4.6839,-4.6813,-4.695,-4.7309,-4.7309,-4.7309,-4.7309,-4.7309,-4.7309,-4.7309,-4.7309,-4.7309,-4.7309,-4.7309,-4.7309,-4.7309,-4.7309,-4.7309,-4.7309,-4.7309,-4.7309,-4.7309,-4.7309,-4.7309,-4.7309,-5.8321,-5.8321,-5.8321,-5.8321,-5.8321,-5.8321,-5.8321,-5.8321,-5.8321,-5.8321,-5.8321,-5.8321,-5.8321,-5.8321,-5.8321,-5.8321,-5.8321,-5.8321,-5.8321,-5.7568,-5.7052,-5.6912,-5.6119,-5.5098,-5.3837,-5.3422,-5.2607,-5.1379,-5.1259,-5.1229,-5.1229,-5.1229,-5.1229,-5.1229,-5.1229,-5.1229,-5.1229,-5.1229,-5.1229,-5.1229,-5.1229,-5.1229,-5.1229,-5.1229,-5.1229,-5.1229,-5.1229,-5.1681,-5.2245,-5.1479,-5.1727,-5.2245,-5.1433,-5.1229,-5.1229,-5.1229,-5.0794,-5.0122,-4.9118,-4.8549,-4.8205,-4.7804,-4.7666,-4.7709,-4.8007,-4.8049,-4.8133,-4.826,-4.8343,-4.8427,-4.8563,-4.8604,-4.8512,-4.8204,-4.7281,-4.648,-4.6172,0.0,-4.5311,-4.6449,-4.6788,-4.7342,-4.8512,-4.8604,-4.8604,-4.8604,-4.7232,-4.6904,-4.7988,-4.6539,-4.6281,-4.7551,-4.7396,-4.7309,-4.7309,-4.7309,-4.7309,-4.7309,-4.7309,-4.7309,-4.7309,-4.7309,-4.7309,-4.7309,-4.7309,-4.7309,-4.7309,-4.7309,-4.7309,-4.7309,-4.7309,-4.7309,-4.7309,-4.7309,-4.7309,-4.7309,-5.8321,-5.8321,-5.8321,-5.8321,-5.8321,-5.8321,-5.8321,-5.8321,-5.8321,-5.8321,-5.8321,-5.8321,-5.8321,-5.8321,-5.8321,-5.8321,-5.8321,-5.8321,-5.8321,-5.818,-5.774,-5.6912,-5.6741,-5.5906,-5.4265,-5.3011,-5.23,-5.2037,-5.1498,-5.1229,-5.1229,-5.1229,-5.1229,-5.1229,-5.1229,-5.1229,-5.1229,-5.1229,-5.1229,-5.1229,-5.1229,-5.1229,-5.1229,-5.1229,-5.1229,-5.1229,-5.1229,-5.1293,-5.1386,-5.1246,-5.1293,-5.1386,-5.1276,-5.1229,-5.1229,-5.1229,-5.1139,-5.09,-5.0152,-4.9134,-4.8293,-4.8201,-4.8049,-4.8007,-4.8218,-4.8355,-4.8469,-4.8343,-4.8469,-4.8563,-4.8563,-4.8604,-4.805,-4.6326,-4.6357,-4.5988,-4.4302,0.0,-4.6357,-4.6573,-4.7619,-4.8389,-4.8604,-4.8604,-4.8604,-4.8604,-4.8337,-4.8182,-4.8229,-4.7836,-4.7583,-4.7581,-4.7396,-4.7309,-4.7309,-4.7309,-4.7309,-4.7309,-4.7309,-4.7309,-4.7309,-4.7309,-4.7309,-4.7309,-4.7309,-4.7309,-4.7309,-4.7309,-4.7309,-4.7309,-4.7309,-4.7309,-4.7309,-4.7309,-4.7309,-4.7309,-5.8321,-5.8321,-5.8321,-5.8321,-5.8321,-5.8321,-5.8321,-5.8321,-5.8321,-5.8321,-5.8321,-5.8321,-5.8321,-5.8321,-5.8321,-5.8321,-5.8321,-5.8321,-5.8321,-5.8321,-5.8116,-5.7663,-5.7354,-5.6403,-5.4683,-5.3567,-5.29,-5.2725,-5.2426,-5.2097,-5.1738,-5.1738,-5.1558,-5.1229,-5.1229,-5.1229,-5.1229,-5.1229,-5.1229,-5.1229,-5.1229,-5.1229,-5.1229,-5.1229,-5.1229,-5.1229,-5.1229,-5.1229,-5.1229,-5.1229,-5.1229,-5.1229,-5.1229,-5.1229,-5.1229,-5.1229,-5.1053,-5.0769,-5.0331,-4.9374,-4.8514,-4.8645,-4.8323,-4.8091,-4.8385,-4.8521,-4.8563,-4.848,-4.8552,-4.8604,-4.8604,-4.8604,-4.8296,-4.7373,-4.688,0.0,0.0,-4.5988,-4.6603,-4.6603,-4.7804,-4.8604,-4.8604,-4.8604,-4.8604,-4.8604,-4.848,-4.8427,-4.8271,-4.8133,-4.7922,-4.7794,-4.7482,-4.7309,-4.7309,-4.7309,-4.7309,-4.7309,-4.7309,-4.7309,-4.7309,-4.7309,-4.7309,-4.7309,-4.7309,-4.7309,-4.7309,-4.7309,-4.7309,-4.7309,-4.7309,-4.7309,-4.7309,-4.7309,-4.7309,-4.7309,-5.8321,-5.8321,-5.8321,-5.8321,-5.8321,-5.8321,-5.8321,-5.8321,-5.8321,-5.8321,-5.8321,-5.8321,-5.8321,-5.8321,-5.8321,-5.8321,-5.8321,-5.8321,-5.8321,-5.8321,-5.8228,-5.8136,-5.7495,-5.6532,-5.5268,-5.4213,-5.3639,-5.3414,-5.3264,-5.2935,-5.2426,-5.2426,-5.2157,-5.1678,-5.1498,-5.1439,-5.1439,-5.1289,-5.1229,-5.1229,-5.1229,-5.1229,-5.1229,-5.1229,-5.1229,-5.1229,-5.1229,-5.1229,-5.1229,-5.1229,-5.1229,-5.1229,-5.1229,-5.1229,-5.1229,-5.1229,-5.1009,-5.0697,-5.0455,-4.9674,-4.904,-4.927,-4.8766,-4.8335,-4.8683,-4.8686,-4.8604,-4.8604,-4.8604,-4.8604,-4.8604,-4.8604,-4.845,-4.7989,0.0,0.0,0.0,-4.648,-4.6726,-4.7034,-4.7989,-4.8604,-4.8604,-4.8604,-4.8604,-4.8604,-4.8469,-4.8385,-4.8301,-4.8175,-4.8049,-4.8007,-4.7581,-4.7352,-4.7309,-4.7309,-4.7309,-4.7309,-4.7309,-4.7309,-4.7309,-4.7309,-4.7309,-4.7309,-4.7309,-4.7309,-4.7309,-4.7309,-4.7309,-4.7309,-4.7309,-4.7309,-4.7309,-4.7309,-4.7309,-4.7309,-5.8321,-5.8321,-5.8321,-5.8321,-5.8321,-5.8321,-5.8321,-5.8321,-5.8321,-5.8321,-5.8321,-5.8321,-5.8321,-5.8321,-5.8321,-5.8321,-5.8321,-5.8321,-5.8321,-5.8321,-5.8089,-5.759,-5.6554,-5.5937,-5.5857,-5.4759,-5.4132,-5.4132,-5.3503,-5.3144,-5.3114,-5.3114,-5.3084,-5.3025,-5.2396,-5.2127,-5.2097,-5.1468,-5.1229,-5.1229,-5.1229,-5.1229,-5.1229,-5.1229,-5.1229,-5.1229,-5.1229,-5.1229,-5.1229,-5.1229,-5.1229,-5.1229,-5.1229,-5.1229,-5.1229,-5.1229,-5.1169,-5.1113,-5.0971,-5.0502,-5.0125,-5.0161,-4.9565,-4.8979,-4.9194,-4.8929,-4.8604,-4.8604,-4.8604,-4.8604,-4.8604,-4.8604,-4.7989,-4.6111,0.0,0.0,-4.5741,-4.6203,-4.7065,-4.8296,-4.8543,-4.8604,-4.8604,-4.8604,-4.8604,-4.8604,-4.8563,-4.851,-4.8301,-4.8301,-4.8218,-4.8007,-4.7709,-4.7495,-4.7309,-4.7309,-4.7309,-4.7309,-4.7309,-4.7309,-4.7309,-4.7309,-4.7309,-4.7309,-4.7309,-4.7309,-4.7309,-4.7309,-4.7309,-4.7309,-4.7309,-4.7309,-4.7309,-4.7309,-4.7309,-4.7309,-5.8321,-5.8321,-5.8321,-5.8321,-5.8321,-5.8321,-5.8321,-5.8321,-5.8321,-5.8321,-5.8321,-5.8321,-5.8321,-5.8321,-5.8321,-5.8321,-5.8321,-5.8321,-5.8321,-5.8321,-5.7918,-5.7036,-5.6311,-5.5769,-5.5451,-5.504,-5.482,-5.482,-5.4551,-5.4221,-5.3832,-5.3832,-5.3593,-5.3174,-5.2905,-5.2815,-5.2785,-5.2546,-5.2187,-5.1828,-5.1828,-5.1588,-5.1229,-5.1229,-5.1229,-5.1229,-5.1229,-5.1229,-5.1229,-5.1229,-5.1229,-5.1229,-5.1229,-5.1229,-5.1229,-5.1229,-5.1229,-5.1263,-5.1531,-5.1076,-5.0502,-5.0711,-5.0266,-4.9743,-4.9604,-4.9424,-4.9158,-4.8696,-4.8604,-4.8604,-4.8604,-4.8604,-4.8358,-4.7588,0.0,-4.7742,-4.7496,-4.7681,-4.805,-4.8543,-4.8604,-4.8604,-4.8604,-4.8604,-4.8604,-4.8604,-4.8604,-4.8563,-4.848,-4.848,-4.8343,-4.8007,-4.788,-4.7709,-4.7495,-4.7352,-4.7309,-4.7309,-4.7309,-4.7309,-4.7309,-4.7309,-4.7309,-4.7309,-4.7309,-4.7309,-4.7309,-4.7309,-4.7309,-4.7309,-4.7309,-4.7309,-4.7309,-4.7309,-4.7309,-4.7309,-5.8321,-5.8321,-5.8321,-5.8321,-5.8321,-5.8321,-5.8321,-5.8321,-5.8321,-5.8321,-5.8321,-5.8321,-5.8321,-5.8321,-5.8274,-5.8182,-5.8274,-5.8274,-5.8182,-5.7918,-5.7495,-5.6748,-5.6213,-5.57,-5.5179,-5.5179,-5.5179,-5.5179,-5.5179,-5.497,-5.4521,-5.4521,-5.4251,-5.3803,-5.3593,-5.3503,-5.3503,-5.3264,-5.2905,-5.2516,-5.2516,-5.2247,-5.1828,-5.1618,-5.1528,-5.1498,-5.1289,-5.1229,-5.1229,-5.1229,-5.1229,-5.1229,-5.1229,-5.1229,-5.1229,-5.1229,-5.1229,-5.1276,-5.1649,-5.1409,-5.1092,-5.1349,-5.1011,-5.0546,-5.026,-5.01,-4.9805,-4.9097,-4.8943,-4.8881,-4.8666,-4.8604,-4.8604,-4.8604,-4.8604,-4.8604,-4.8604,-4.8604,-4.8604,-4.8604,-4.8604,-4.8604,-4.8604,-4.8604,-4.8604,-4.8604,-4.8604,-4.8604,-4.8604,-4.8521,-4.8427,-4.8218,-4.8007,-4.7837,-4.7709,-4.7409,-4.7309,-4.7309,-4.7309,-4.7309,-4.7309,-4.7309,-4.7309,-4.7309,-4.7309,-4.7309,-4.7309,-4.7309,-4.7309,-4.7309,-4.7309,-4.7309,-4.7309,-4.7309,-4.7309,-4.7309,-5.8321,-5.8321,-5.8321,-5.8321,-5.8321,-5.8321,-5.8321,-5.8321,-5.8321,-5.8321,-5.8321,-5.8321,-5.8321,-5.8321,-5.8182,-5.7918,-5.8136,-5.8182,-5.7918,-5.7132,-5.67,-5.67,-5.6164,-5.57,-5.5179,-5.5179,-5.5179,-5.5179,-5.5179,-5.5179,-5.5179,-5.5179,-5.5179,-5.5149,-5.4491,-5.4221,-5.4162,-5.3503,-5.3204,-5.3204,-5.3204,-5.3174,-5.3114,-5.2456,-5.2217,-5.2127,-5.1468,-5.1229,-5.1229,-5.1229,-5.1229,-5.1229,-5.1229,-5.1229,-5.1229,-5.1229,-5.1229,-5.1229,-5.1229,-5.1602,-5.2048,-5.2261,-5.1787,-5.1297,-5.1297,-5.0984,-5.0513,-4.9835,-4.9682,-4.9466,-4.8758,-4.8635,-4.8635,-4.8604,-4.8604,-4.8604,-4.8604,-4.8604,-4.8604,-4.8604,-4.8604,-4.8604,-4.8604,-4.8604,-4.8604,-4.8604,-4.8604,-4.8604,-4.8604,-4.8396,-4.8385,-4.8563,-4.7964,-4.7709,-4.8007,-4.7495,-4.7309,-4.7309,-4.7309,-4.7309,-4.7309,-4.7309,-4.7309,-4.7309,-4.7309,-4.7309,-4.7309,-4.7309,-4.7309,-4.7309,-4.7309,-4.7309,-4.7309,-4.7309,-4.7309,-4.7309,-5.8321,-5.8321,-5.8321,-5.8321,-5.8321,-5.8321,-5.8321,-5.8321,-5.8321,-5.8321,-5.8321,-5.8321,-5.8321,-5.8321,-5.8182,-5.7918,-5.7965,-5.7965,-5.7918,-5.7684,-5.7275,-5.67,-5.5899,-5.533,-5.5179,-5.5179,-5.5179,-5.5179,-5.5179,-5.5179,-5.5179,-5.5179,-5.5179,-5.5179,-5.497,-5.491,-5.488,-5.467,-5.4311,-5.3892,-5.3892,-5.3623,-5.3144,-5.2965,-5.2875,-5.2785,-5.2127,-5.1917,-5.1828,-5.1379,-5.1229,-5.1229,-5.1229,-5.1229,-5.1229,-5.1229,-5.1229,-5.1229,-5.1433,-5.1741,-5.2002,-5.2063,-5.2184,-5.2178,-5.1717,-5.1484,-5.1221,-5.0543,-5.0389,-5.0174,-4.9497,-4.9374,-4.9189,-4.8696,-4.8604,-4.8604,-4.8604,-4.8604,-4.8604,-4.8604,-4.8604,-4.8604,-4.8604,-4.8604,-4.8604,-4.8604,-4.8604,-4.8604,-4.8604,-4.8521,-4.8438,-4.8385,-4.8218,-4.7964,-4.7709,-4.7439,-4.7309,-4.7309,-4.7309,-4.7309,-4.7309,-4.7309,-4.7309,-4.7309,-4.7309,-4.7309,-4.7309,-4.7309,-4.7309,-4.7309,-4.7309,-4.7309,-4.7309,-4.7309,-4.7309,-4.7309,-5.8321,-5.8321,-5.8321,-5.8321,-5.8321,-5.8415,-5.8654,-5.8685,-5.8685,-5.8685,-5.8685,-5.859,-5.8352,-5.8321,-5.8182,-5.7918,-5.7778,-5.7856,-5.8107,-5.7853,-5.7439,-5.6954,-5.6093,-5.5448,-5.5209,-5.5179,-5.5179,-5.5179,-5.5179,-5.5179,-5.5179,-5.5179,-5.5179,-5.5179,-5.5179,-5.5179,-5.5179,-5.5179,-5.497,-5.461,-5.461,-5.4341,-5.3952,-5.3683,-5.3593,-5.3503,-5.2845,-5.2606,-5.2516,-5.2127,-5.1828,-5.1558,-5.1289,-5.1229,-5.1229,-5.1229,-5.1229,-5.1229,-5.1386,-5.1649,-5.188,-5.2002,-5.2367,-5.2606,-5.2206,-5.2113,-5.1898,-5.1221,-5.1097,-5.0882,-5.0205,-4.9866,-4.9528,-4.9097,-4.8789,-4.8604,-4.8604,-4.8604,-4.8604,-4.8604,-4.8604,-4.8604,-4.8604,-4.8604,-4.8604,-4.8604,-4.8604,-4.8604,-4.8604,-4.8604,-4.8521,-4.8427,-4.8313,-4.8175,-4.788,-4.7666,-4.7452,-4.7309,-4.7309,-4.7309,-4.7309,-4.7309,-4.7309,-4.7309,-4.7309,-4.7309,-4.7309,-4.7309,-4.7309,-4.7309,-4.7309,-4.7309,-4.7309,-4.7309,-4.7309,-4.7309,-5.851,-5.851,-5.851,-5.851,-5.851,-5.8654,-5.9317,-5.938,-5.938,-5.938,-5.938,-5.9159,-5.8574,-5.851,-5.834,-5.8107,-5.7762,-5.776,-5.8321,-5.7734,-5.732,-5.732,-5.6707,-5.6038,-5.5359,-5.5239,-5.5179,-5.5179,-5.5179,-5.5179,-5.5179,-5.5179,-5.5179,-5.5179,-5.5179,-5.5179,-5.5179,-5.5179,-5.5179,-5.5179,-5.5179,-5.5179,-5.5119,-5.4521,-5.4311,-5.4192,-5.3503,-5.3264,-5.3264,-5.3204,-5.2785,-5.2187,-5.1498,-5.1319,-5.1289,-5.1229,-5.1229,-5.1229,-5.1229,-5.1416,-5.1695,-5.1956,-5.2367,-5.2698,-5.2698,-5.2698,-5.2544,-5.1929,-5.1805,-5.159,-5.0913,-5.0266,-4.9835,-4.9774,-4.9189,-4.8696,-4.8696,-4.8666,-4.8604,-4.8604,-4.8604,-4.8604,-4.8604,-4.8604,-4.8604,-4.8604,-4.8604,-4.8604,-4.8604,-4.8604,-4.8604,-4.8604,-4.8427,-4.8343,-4.8301,-4.8091,-4.7752,-4.7352,-4.7352,-4.7309,-4.7309,-4.7309,-4.7309,-4.7309,-4.7309,-4.7309,-4.7309,-4.7309,-4.7309,-4.7309,-4.7309,-4.7309,-4.7309,-4.7309,-4.7309,-4.7352,-5.9854,-5.9854,-5.9854,-5.9854,-5.9854,-5.9918,-6.0044,-6.0076,-6.0076,-6.0076,-6.0076,-6.0012,-5.9886,-5.9854,-5.9759,-5.9552,-5.865,-5.7862,-5.7428,-5.7536,-5.7549,-5.732,-5.7436,-5.7269,-5.6675,-5.5688,-5.5179,-5.5179,-5.5179,-5.5179,-5.5179,-5.5179,-5.5179,-5.5179,-5.5179,-5.5179,-5.5179,-5.5179,-5.5179,-5.5179,-5.5179,-5.5179,-5.5179,-5.5029,-5.497,-5.488,-5.4221,-5.3982,-5.3892,-5.3354,-5.3084,-5.2845,-5.2187,-5.1977,-5.1887,-5.1379,-5.1229,-5.1229,-5.1229,-5.1556,-5.1956,-5.2002,-5.2367,-5.2698,-5.2698,-5.2698,-5.2667,-5.2513,-5.2483,-5.2298,-5.1621,-5.1374,-5.1097,-5.0574,-4.9897,-4.9466,-4.9466,-4.8974,-4.8604,-4.8604,-4.8604,-4.8604,-4.8604,-4.8604,-4.8604,-4.8604,-4.8604,-4.8604,-4.8604,-4.8604,-4.8604,-4.8604,-4.8563,-4.8469,-4.8301,-4.8091,-4.7837,-4.7538,-4.7538,-4.7482,-4.7309,-4.7309,-4.7309,-4.7309,-4.7309,-4.7309,-4.7309,-4.7309,-4.7309,-4.7309,-4.7309,-4.7309,-4.7309,-4.7309,-4.7309,-4.7352,-6.0297,-6.0297,-6.0297,-6.0297,-6.0297,-6.0423,-6.0771,-6.0803,-6.0803,-6.0803,-6.0803,-6.0676,-6.0329,-6.0297,-6.0359,-6.0463,-5.9332,-5.8554,-5.8375,-5.8215,-5.7993,-5.7891,-5.7915,-5.7866,-5.7573,-5.6615,-5.5957,-5.5658,-5.5359,-5.5179,-5.5179,-5.5179,-5.5179,-5.5179,-5.5179,-5.5179,-5.5179,-5.5179,-5.5179,-5.5179,-5.5179,-5.5179,-5.5179,-5.5179,-5.5179,-5.5149,-5.479,-5.467,-5.4581,-5.3892,-5.3683,-5.3563,-5.2875,-5.2665,-5.2546,-5.1887,-5.1917,-5.2097,-5.1768,-5.1867,-5.2131,-5.2225,-5.2306,-5.2427,-5.2684,-5.2698,-5.2698,-5.2698,-5.2698,-5.2606,-5.2236,-5.1929,-5.159,-5.1221,-5.0605,-5.0174,-5.0174,-4.9835,-4.9497,-4.9158,-4.9127,-4.9004,-4.8635,-4.8604,-4.8604,-4.8604,-4.8604,-4.8604,-4.8604,-4.8604,-4.8604,-4.8604,-4.8604,-4.848,-4.8301,-4.8218,-4.7964,-4.7581,-4.7495,-4.7482,-4.7409,-4.7352,-4.7309,-4.7309,-4.7309,-4.7309,-4.7309,-4.7309,-4.7309,-4.7309,-4.7309,-4.7309,-4.7309,-4.7309,-4.7352,-4.7452,-6.0645,-6.0645,-6.0645,-6.0645,-6.0645,-6.0866,-6.1466,-6.1561,-6.1561,-6.1561,-6.1561,-6.1291,-6.0611,-6.0452,-6.0446,-6.0702,-5.9756,-5.9251,-5.9491,-5.8841,-5.8482,-5.8482,-5.8338,-5.8291,-5.8291,-5.7633,-5.6974,-5.6316,-5.5688,-5.5359,-5.5359,-5.5239,-5.5179,-5.5179,-5.5179,-5.5179,-5.5179,-5.5179,-5.5179,-5.5179,-5.5179,-5.5179,-5.5179,-5.5179,-5.5179,-5.5179,-5.5179,-5.5179,-5.5119,-5.4551,-5.4371,-5.4251,-5.3563,-5.3354,-5.3234,-5.2576,-5.2755,-5.3054,-5.2516,-5.2414,-5.251,-5.2778,-5.253,-5.2337,-5.2793,-5.279,-5.2698,-5.2698,-5.2698,-5.2698,-5.2698,-5.2267,-5.1867,-5.1867,-5.1313,-5.0882,-5.0882,-5.0759,-5.0482,-4.9928,-4.9866,-4.962,-4.9035,-4.8881,-4.8789,-4.8789,-4.8696,-4.8604,-4.8604,-4.8604,-4.8604,-4.8604,-4.8604,-4.8521,-4.8385,-4.8301,-4.8152,-4.789,-4.7589,-4.7486,-4.7538,-4.7439,-4.7352,-4.7309,-4.7352,-4.7352,-4.7309,-4.7429,-4.7489,-4.7489,-4.7608,-4.7638,-4.7638,-4.7562,-4.7632,-4.7774,-6.213,-6.213,-6.213,-6.213,-6.213,-6.2112,-6.2238,-6.2238,-6.2238,-6.2238,-6.2238,-6.2027,-6.1483,-6.1029,-6.0435,-5.9655,-5.943,-5.9032,-5.8237,-5.836,-5.8482,-5.8482,-5.8787,-5.8979,-5.8979,-5.8321,-5.7663,-5.6974,-5.6346,-5.6047,-5.6017,-5.5448,-5.5179,-5.5179,-5.5179,-5.5179,-5.5179,-5.5179,-5.5179,-5.5179,-5.5179,-5.5179,-5.5179,-5.5179,-5.5179,-5.5179,-5.5179,-5.5179,-5.5179,-5.5089,-5.5059,-5.494,-5.4281,-5.4072,-5.3922,-5.3264,-5.3114,-5.3144,-5.3084,-5.3248,-5.3471,-5.3758,-5.3479,-5.3223,-5.3499,-5.3129,-5.2698,-5.2698,-5.2698,-5.2698,-5.2698,-5.2637,-5.2575,-5.2575,-5.2021,-5.1559,-5.1559,-5.1067,-5.0667,-5.0574,-5.0543,-5.0513,-5.042,-4.9866,-4.9528,-4.9528,-4.8974,-4.8604,-4.8604,-4.8604,-4.8604,-4.8604,-4.8604,-4.8563,-4.8563,-4.8218,-4.8396,-4.906,-4.8454,-4.7892,-4.7352,-4.7495,-4.7452,-4.7309,-4.7452,-4.7482,-4.7339,-4.7908,-4.8147,-4.8207,-4.882,-4.906,-4.897,-4.8577,-4.8454,-4.8451,-6.2396,-6.2396,-6.2396,-6.2396,-6.2396,-6.2396,-6.2396,-6.2396,-6.2396,-6.2396,-6.2116,-6.1866,-6.1633,-6.1103,-6.0619,-6.0239,-5.9866,-5.9505,-5.9075,-5.8927,-5.8841,-5.8841,-5.9003,-5.9099,-5.9099,-5.883,-5.853,-5.8231,-5.7184,-5.6675,-5.6675,-5.6047,-5.5748,-5.5718,-5.5359,-5.5179,-5.5179,-5.5179,-5.5179,-5.5179,-5.5179,-5.5179,-5.5179,-5.5179,-5.5179,-5.5179,-5.5179,-5.5179,-5.5179,-5.5179,-5.5179,-5.5149,-5.485,-5.476,-5.464,-5.3952,-5.4012,-5.4221,-5.3862,-5.3871,-5.4018,-5.4262,-5.3988,-5.3664,-5.3499,-5.3376,-5.316,-5.279,-5.2698,-5.2698,-5.2698,-5.2698,-5.2698,-5.2698,-5.2452,-5.2267,-5.2267,-5.2021,-5.1682,-5.1313,-5.0913,-5.0697,-5.0697,-5.042,-5.0266,-5.0266,-4.9959,-4.9774,-4.9774,-4.9774,-4.9774,-4.9774,-4.9774,-4.9689,-4.953,-4.9359,-4.937,-4.9455,-4.9191,-4.8833,-4.8563,-4.8563,-4.8563,-4.8563,-4.8563,-4.8651,-4.8813,-4.8849,-4.8925,-4.9088,-4.9359,-4.9568,-4.9672,-4.9458,-4.9381,-4.9395]},{"header":{"parameterUnit":"m.s-1","parameterCategory":1,"la1":30.6,"la2":28.766,"lo1":-90.7593,"lo2":-88.6598,"dy":0.0162,"dx":0.0183,"nx":116,"ny":114,"refTime":"2024-04-27T12:00:00:Z","depth":0,"parameterNumber":3,"parameterNumberName":"V-component_of_WINDS"},"data":[0.0,0.0,0.0,0.0,0.0,0.0,0.0,0.0,0.0,0.0,0.0,0.0,0.0,0.0,0.0,0.0,0.0,0.0,0.0,0.0,0.0,0.0,0.0,0.0,0.0,0.0,0.0,0.0,0.0,0.0,0.0,0.0,0.0,0.0,0.0,0.0,0.0,0.0,0.0,0.0,0.0,0.0,0.0,0.0,0.0,0.0,0.0,0.0,0.0,0.0,0.0,0.0,0.0,0.0,0.0,0.0,0.0,0.0,0.0,0.0,0.0,0.0,0.0,0.0,0.0,0.0,0.0,0.0,0.0,0.0,0.0,0.0,0.0,0.0,0.0,0.0,0.0,0.0,0.0,0.0,0.0,0.0,0.0,0.0,0.0,0.0,0.0,0.0,0.0,0.0,0.0,0.0,0.0,0.0,0.0,0.0,0.0,0.0,0.0,0.0,0.0,0.0,0.0,0.0,0.0,0.0,0.0,0.0,0.0,0.0,0.0,0.0,0.0,0.0,0.0,0.0,0.0,0.0,0.0,0.0,0.0,0.0,0.0,0.0,0.0,0.0,0.0,0.0,0.0,0.0,0.0,0.0,0.0,0.0,0.0,0.0,0.0,0.0,0.0,0.0,0.0,0.0,0.0,0.0,0.0,0.0,0.0,0.0,0.0,0.0,0.0,0.0,0.0,0.0,0.0,0.0,0.0,0.0,0.0,0.0,0.0,0.0,0.0,0.0,0.0,0.0,0.0,0.0,0.0,0.0,0.0,0.0,0.0,0.0,0.0,0.0,0.0,0.0,0.0,0.0,0.0,0.0,0.0,0.0,0.0,0.0,0.0,0.0,0.0,0.0,0.0,0.0,0.0,0.0,0.0,0.0,0.0,0.0,0.0,0.0,0.0,0.0,0.0,0.0,0.0,0.0,0.0,0.0,0.0,0.0,0.0,0.0,0.0,0.0,0.0,0.0,0.0,0.0,0.0,0.0,0.0,0.0,0.0,0.0,0.0,0.0,0.0,0.0,0.0,0.0,0.0,0.0,0.0,0.0,0.0,0.0,0.0,0.0,0.0,0.0,0.0,0.0,0.0,0.0,0.0,0.0,0.0,0.0,0.0,0.0,0.0,0.0,0.0,0.0,0.0,0.0,0.0,0.0,0.0,0.0,0.0,0.0,0.0,0.0,0.0,0.0,0.0,0.0,0.0,0.0,0.0,0.0,0.0,0.0,0.0,0.0,0.0,0.0,0.0,0.0,0.0,0.0,0.0,0.0,0.0,0.0,0.0,0.0,0.0,0.0,0.0,0.0,0.0,0.0,0.0,0.0,0.0,0.0,0.0,0.0,0.0,0.0,0.0,0.0,0.0,0.0,0.0,0.0,0.0,0.0,0.0,0.0,0.0,0.0,0.0,0.0,0.0,0.0,0.0,0.0,0.0,0.0,0.0,0.0,0.0,0.0,0.0,0.0,0.0,0.0,0.0,0.0,0.0,0.0,0.0,0.0,0.0,0.0,0.0,0.0,0.0,0.0,0.0,0.0,0.0,0.0,0.0,0.0,0.0,0.0,0.0,0.0,0.0,0.0,0.0,0.0,0.0,0.0,0.0,0.0,0.0,0.0,0.0,0.0,0.0,0.0,0.0,0.0,0.0,0.0,0.0,0.0,0.0,0.0,0.0,0.0,0.0,0.0,0.0,0.0,0.0,0.0,0.0,0.0,0.0,0.0,0.0,0.0,0.0,0.0,0.0,0.0,0.0,0.0,0.0,0.0,0.0,0.0,0.0,0.0,0.0,0.0,0.0,0.0,0.0,0.0,0.0,0.0,0.0,0.0,0.0,0.0,0.0,0.0,0.0,0.0,0.0,0.0,0.0,0.0,0.0,0.0,0.0,0.0,0.0,0.0,0.0,0.0,0.0,0.0,0.0,0.0,0.0,0.0,0.0,0.0,0.0,0.0,0.0,0.0,0.0,0.0,0.0,0.0,0.0,0.0,0.0,0.0,0.0,0.0,0.0,0.0,0.0,0.0,0.0,0.0,0.0,0.0,0.0,0.0,0.0,0.0,0.0,0.0,0.0,0.0,0.0,0.0,0.0,0.0,0.0,0.0,0.0,0.0,0.0,0.0,0.0,0.0,0.0,0.0,0.0,0.0,0.0,0.0,0.0,0.0,0.0,0.0,0.0,0.0,0.0,0.0,0.0,0.0,0.0,0.0,0.0,0.0,0.0,0.0,0.0,0.0,0.0,0.0,0.0,0.0,0.0,0.0,0.0,0.0,0.0,0.0,0.0,0.0,0.0,0.0,0.0,0.0,0.0,0.0,0.0,0.0,0.0,0.0,0.0,0.0,0.0,0.0,0.0,0.0,0.0,0.0,0.0,0.0,0.0,0.0,0.0,0.0,0.0,0.0,0.0,0.0,0.0,0.0,0.0,0.0,0.0,0.0,0.0,0.0,0.0,0.0,0.0,0.0,0.0,0.0,0.0,0.0,0.0,0.0,0.0,0.0,0.0,0.0,0.0,0.0,0.0,0.0,0.0,0.0,0.0,0.0,0.0,0.0,0.0,0.0,0.0,0.0,0.0,0.0,0.0,0.0,0.0,0.0,0.0,0.0,0.0,0.0,0.0,0.0,0.0,0.0,0.0,0.0,0.0,0.0,0.0,0.0,0.0,0.0,0.0,0.0,0.0,0.0,0.0,0.0,0.0,0.0,0.0,0.0,0.0,0.0,0.0,0.0,0.0,0.0,0.0,0.0,0.0,0.0,0.0,0.0,0.0,0.0,0.0,0.0,0.0,0.0,0.0,0.0,0.0,0.0,0.0,0.0,0.0,0.0,0.0,0.0,0.0,0.0,0.0,0.0,0.0,0.0,0.0,0.0,0.0,0.0,0.0,0.0,0.0,0.0,0.0,0.0,0.0,0.0,0.0,0.0,0.0,0.0,0.0,0.0,0.0,0.0,0.0,0.0,0.0,0.0,0.0,0.0,0.0,0.0,0.0,0.0,0.0,0.0,0.0,0.0,0.0,0.0,0.0,0.0,0.0,0.0,0.0,0.0,0.0,0.0,0.0,0.0,0.0,0.0,0.0,0.0,0.0,0.0,0.0,0.0,0.0,0.0,0.0,0.0,0.0,0.0,0.0,0.0,0.0,0.0,0.0,0.0,0.0,0.0,0.0,0.0,0.0,0.0,0.0,0.0,0.0,0.0,0.0,0.0,0.0,0.0,0.0,0.0,0.0,0.0,0.0,0.0,0.0,0.0,0.0,0.0,0.0,0.0,0.0,0.0,0.0,0.0,0.0,0.0,0.0,0.0,0.0,0.0,0.0,0.0,0.0,0.0,0.0,0.0,0.0,0.0,0.0,0.0,0.0,0.0,0.0,0.0,0.0,0.0,0.0,0.0,0.0,0.0,0.0,0.0,0.0,0.0,0.0,0.0,0.0,0.0,0.0,0.0,0.0,0.0,0.0,0.0,0.0,0.0,0.0,0.0,0.0,0.0,0.0,0.0,0.0,0.0,0.0,0.0,0.0,0.0,0.0,0.0,0.0,0.0,0.0,0.0,0.0,0.0,0.0,0.0,0.0,0.0,0.0,0.0,0.0,0.0,0.0,0.0,0.0,0.0,0.0,0.0,0.0,0.0,0.0,0.0,0.0,0.0,0.0,0.0,0.0,0.0,0.0,0.0,0.0,0.0,0.0,0.0,0.0,0.0,0.0,0.0,0.0,0.0,0.0,0.0,0.0,0.0,0.0,0.0,0.0,0.0,0.0,0.0,0.0,0.0,0.0,0.0,0.0,0.0,0.0,0.0,0.0,0.0,0.0,0.0,0.0,0.0,0.0,0.0,0.0,0.0,0.0,0.0,0.0,0.0,0.0,0.0,0.0,0.0,0.0,0.0,0.0,0.0,0.0,0.0,0.0,0.0,0.0,0.0,0.0,0.0,0.0,0.0,0.0,0.0,0.0,0.0,0.0,0.0,0.0,0.0,0.0,0.0,0.0,0.0,0.0,0.0,0.0,0.0,0.0,0.0,0.0,0.0,0.0,0.0,0.0,0.0,0.0,0.0,0.0,0.0,0.0,0.0,0.0,0.0,0.0,0.0,0.0,0.0,0.0,0.0,0.0,0.0,0.0,0.0,0.0,0.0,0.0,0.0,0.0,0.0,0.0,0.0,0.0,0.0,0.0,0.0,0.0,0.0,0.0,0.0,0.0,0.0,0.0,0.0,0.0,0.0,0.0,0.0,0.0,0.0,0.0,0.0,0.0,0.0,0.0,0.0,0.0,0.0,0.0,0.0,0.0,0.0,0.0,0.0,0.0,0.0,0.0,0.0,0.0,0.0,0.0,0.0,0.0,0.0,0.0,0.0,0.0,0.0,0.0,0.0,0.0,0.0,0.0,0.0,0.0,0.0,0.0,0.0,0.0,0.0,0.0,0.0,0.0,0.0,0.0,0.0,0.0,0.0,0.0,0.0,0.0,0.0,0.0,0.0,0.0,0.0,0.0,0.0,0.0,0.0,0.0,0.0,0.0,0.0,0.0,0.0,0.0,0.0,0.0,0.0,0.0,0.0,0.0,0.0,0.0,0.0,0.0,0.0,0.0,0.0,0.0,0.0,0.0,0.0,0.0,0.0,0.0,0.0,0.0,0.0,0.0,0.0,0.0,0.0,0.0,0.0,0.0,0.0,0.0,0.0,0.0,0.0,0.0,0.0,0.0,0.0,0.0,0.0,0.0,0.0,0.0,0.0,0.0,0.0,0.0,0.0,0.0,0.0,0.0,0.0,0.0,0.0,0.0,0.0,0.0,0.0,0.0,0.0,0.0,0.0,0.0,0.0,0.0,0.0,0.0,0.0,0.0,0.0,0.0,0.0,0.0,0.0,0.0,0.0,0.0,0.0,0.0,0.0,0.0,0.0,0.0,0.0,0.0,0.0,0.0,0.0,0.0,0.0,0.0,0.0,0.0,0.0,0.0,0.0,0.0,0.0,0.0,0.0,0.0,0.0,0.0,0.0,0.0,0.0,0.0,0.0,0.0,0.0,0.0,0.0,0.0,0.0,0.0,0.0,0.0,0.0,0.0,0.0,0.0,0.0,0.0,0.0,0.0,0.0,0.0,0.0,0.0,0.0,0.0,0.0,0.0,0.0,0.0,0.0,0.0,0.0,0.0,0.0,0.0,0.0,0.0,0.0,0.0,0.0,0.0,0.0,0.0,0.0,0.0,0.0,0.0,0.0,0.0,0.0,0.0,0.0,0.0,0.0,0.0,0.0,0.0,0.0,0.0,0.0,0.0,0.0,0.0,0.0,0.0,0.0,0.0,0.0,0.0,0.0,0.0,0.0,0.0,0.0,0.0,0.0,0.0,0.0,0.0,0.0,0.0,0.0,0.0,0.0,0.0,0.0,0.0,0.0,0.0,0.0,0.0,0.0,0.0,0.0,0.0,0.0,0.0,0.0,0.0,0.0,0.0,0.0,0.0,0.0,0.0,0.0,0.0,0.0,0.0,0.0,0.0,0.0,0.0,0.0,0.0,0.0,0.0,0.0,0.0,0.0,0.0,0.0,0.0,0.0,0.0,0.0,0.0,0.0,0.0,0.0,0.0,0.0,0.0,0.0,0.0,0.0,0.0,0.0,0.0,0.0,0.0,0.0,0.0,0.0,0.0,0.0,0.0,0.0,0.0,0.0,0.0,0.0,0.0,0.0,0.0,0.0,0.0,0.0,0.0,0.0,0.0,0.0,0.0,0.0,0.0,0.0,0.0,0.0,0.0,0.0,0.0,0.0,0.0,0.0,0.0,0.0,0.0,0.0,0.0,0.0,0.0,0.0,0.0,0.0,0.0,0.0,0.0,0.0,0.0,0.0,0.0,0.0,0.0,0.0,0.0,0.0,0.0,0.0,0.0,0.0,0.0,0.0,0.0,0.0,0.0,0.0,0.0,0.0,0.0,0.0,0.0,0.0,0.0,0.0,0.0,0.0,0.0,0.0,0.0,0.0,0.0,0.0,0.0,0.0,0.0,0.0,0.0,0.0,0.0,0.0,0.0,0.0,0.0,0.0,0.0,0.0,0.0,0.0,0.0,0.0,0.0,0.0,0.0,0.0,0.0,0.0,0.0,0.0,0.0,0.0,1.0648,0.0,0.0,0.0,0.0,0.0,0.0,0.0,0.0,0.0,0.0,0.0,0.0,0.0,0.0,0.0,0.0,0.0,0.0,0.0,0.0,0.0,0.0,0.0,0.0,1.3036,1.3085,1.3012,1.3041,1.3041,1.3012,0.0,0.0,0.0,0.0,0.0,1.2673,1.2367,1.2418,1.2915,1.3691,1.4629,1.5664,1.5684,1.5039,1.3802,0.0,0.0,0.0,0.0,0.0,0.0,0.0,0.0,0.0,0.0,0.0,0.0,0.0,0.0,0.0,0.0,0.0,0.0,0.0,0.0,0.0,0.0,0.0,0.0,0.0,0.0,0.0,0.0,0.0,0.0,0.0,0.0,0.0,0.0,0.0,0.0,0.0,0.0,0.0,0.0,0.0,0.0,0.0,0.0,0.0,0.0,0.0,0.0,0.0,0.0,0.0,0.0,0.0,0.0,0.0,0.0,0.0,0.0,0.0,0.0,0.0,0.0,0.0,0.0,0.0,0.0,0.0,0.0,0.0,0.0,0.0,1.076,0.0,0.0,0.0,0.0,0.0,0.0,0.0,0.0,0.0,0.0,0.0,0.0,0.0,0.0,0.0,0.0,0.0,0.0,0.0,0.0,0.0,1.2939,1.2915,1.3036,1.3085,1.3061,1.3118,1.3138,1.316,1.31,0.0,0.0,1.2578,1.232,1.232,1.232,1.2637,1.3248,1.4922,1.6523,1.8008,1.7656,1.6309,1.418,1.4258,0.0,0.0,0.0,0.0,0.0,0.0,0.0,0.0,0.0,0.0,0.0,0.0,0.0,0.0,0.0,0.0,0.0,0.0,0.0,0.0,0.0,0.0,0.0,0.0,0.0,0.0,0.0,0.0,0.0,0.0,0.0,0.0,0.0,0.0,0.0,0.0,0.0,0.0,0.0,0.0,0.0,0.0,0.0,0.0,0.0,0.0,0.0,0.0,0.0,0.0,0.0,0.0,0.0,0.0,0.0,0.0,0.0,0.0,0.0,0.0,0.0,0.0,0.0,1.234,1.2589,1.3172,1.3172,1.3172,1.3132,1.2489,1.2181,1.2087,1.1417,0.0,0.0,0.0,0.0,0.0,0.0,0.0,0.0,0.0,0.0,0.0,0.0,0.0,0.0,0.0,0.0,0.0,0.0,0.0,1.3036,1.2895,1.3036,1.3061,1.2939,1.292,1.3077,1.3424,1.3111,1.3071,1.3418,1.3027,1.2817,1.2817,1.2817,1.3385,1.4531,1.6269,1.7422,1.8008,1.7949,1.7559,1.6894,1.7246,1.6777,1.5752,0.0,0.0,0.0,0.0,0.0,0.0,0.0,0.0,0.0,0.0,0.0,0.0,0.0,0.0,0.0,0.0,0.0,0.0,0.0,0.0,0.0,0.0,0.0,0.0,0.0,0.0,0.0,0.0,0.0,0.0,0.0,0.0,0.0,0.0,0.0,0.0,0.0,0.0,0.0,0.0,0.0,0.8528,0.9593,0.0,0.0,0.0,0.0,0.0,0.0,0.0,0.0,0.0,0.0,0.0,0.0,0.0,1.2435,1.2435,1.3253,1.3614,1.344,1.4202,1.4646,1.4713,1.4713,1.4713,1.4673,1.3774,0.0,1.3039,1.3147,0.0,0.0,0.0,0.0,0.0,0.0,0.0,0.0,0.0,0.0,0.0,0.0,0.0,0.0,0.0,0.0,0.0,0.0,0.0,0.0,0.0,1.3401,1.3769,1.4057,1.4449,1.4676,1.459,1.418,1.3828,1.3516,1.2871,1.252,1.252,1.2778,1.4011,1.625,1.7734,1.8926,1.9787,1.9787,1.9863,1.9922,1.9844,1.8691,1.6829,1.6829,0.0,0.0,0.0,0.0,0.0,0.0,0.0,0.0,0.0,0.0,0.0,0.0,0.0,0.0,0.0,0.0,0.0,0.0,0.0,0.0,0.0,0.0,0.0,0.0,0.0,0.0,0.0,0.0,0.0,0.0,0.0,0.0,0.0,0.0,0.0,0.0,0.0,0.0,0.0,0.8729,0.9607,1.0523,1.0659,1.0552,0.0,0.0,0.0,0.0,0.0,0.0,0.0,0.0,0.0,1.2529,1.2986,1.3333,1.3534,1.4258,1.4683,1.4825,1.5257,1.5444,1.5444,1.5444,1.5444,1.5431,1.4998,1.4665,1.4402,1.3826,1.3533,1.3347,0.0,0.0,0.0,0.0,1.1182,1.1156,0.0,0.0,0.0,0.0,0.0,0.0,0.0,0.0,0.0,0.0,0.0,0.0,1.3328,1.4116,1.4821,1.5325,1.595,1.6146,1.5694,1.5163,1.4508,1.3711,1.2827,1.2379,1.2379,1.3477,1.5381,1.8027,1.9316,2.0449,2.1366,2.1366,2.1582,2.1875,2.1543,2.0098,1.7905,1.7754,1.7207,1.6378,0.0,0.0,0.0,0.0,0.0,0.0,0.0,0.0,0.0,0.0,0.0,0.0,0.0,0.0,0.0,0.0,0.0,0.0,0.0,0.0,0.0,0.0,0.0,0.0,0.0,0.0,0.0,0.0,0.0,0.0,0.0,0.0,0.0,0.0,0.0,0.0,0.0,0.9611,1.047,1.1431,1.1611,1.161,0.0,0.0,0.0,0.0,0.0,0.0,1.2746,1.3079,1.3239,1.32,1.3813,1.4306,1.4643,1.5129,1.5551,1.6046,1.6046,1.6046,1.6046,1.6046,1.6005,1.5939,1.5939,1.5778,1.5431,1.4439,1.4013,1.3919,1.3773,1.3347,1.2759,1.2784,1.2784,1.2746,0.0,0.0,0.0,0.0,0.0,0.0,0.0,0.0,0.0,0.0,0.0,1.4036,1.4036,1.5215,1.6097,1.6287,1.6704,1.6784,1.6397,1.557,1.479,1.4094,1.3301,1.2876,1.2876,1.5713,1.8027,1.9785,2.1113,2.1797,2.1855,2.1855,2.1855,2.1894,2.1855,2.0859,1.916,1.8715,1.8052,1.7207,1.5918,0.0,0.0,0.0,0.0,0.0,0.0,0.0,0.0,0.0,0.0,0.0,0.0,0.0,0.0,0.0,0.0,0.0,0.0,0.0,0.0,0.0,0.0,0.0,0.0,0.0,0.0,0.0,0.0,0.0,0.0,0.0,0.0,0.0,0.0,0.0,0.0,0.0,0.0,1.2242,1.3055,0.0,0.0,0.0,0.0,1.194,1.2422,1.3132,1.3948,1.4269,1.4803,1.5584,1.5651,1.5858,1.6214,1.6241,1.6366,1.666,1.666,1.666,1.666,1.666,1.6513,1.6246,1.6246,1.6086,1.5778,1.5444,1.515,1.4888,1.4282,1.4041,1.3895,1.3092,1.332,1.3961,0.0,0.0,0.0,0.0,0.0,1.3214,1.3194,1.3094,1.3012,1.2988,1.3639,1.4292,1.4832,1.6228,1.7387,1.8075,1.8705,1.8839,1.8321,1.6912,1.59,1.5391,1.4297,1.4336,1.5742,1.791,1.9453,2.0332,2.1387,2.2031,2.2285,2.2285,2.2441,2.2633,2.2402,2.1953,2.1328,2.0918,1.9902,1.8574,1.8086,1.6992,0.0,0.0,0.0,0.0,0.0,0.0,0.0,0.0,0.0,0.0,0.0,0.0,0.0,0.0,0.0,0.0,0.0,0.0,0.0,0.0,0.0,0.0,0.0,0.0,0.0,0.0,0.0,0.0,0.0,0.0,0.0,0.0,0.0,0.0,0.0,0.0,0.0,1.2877,1.3123,0.0,1.3356,1.3618,1.3658,1.3343,1.4196,1.495,1.5471,1.5591,1.5872,1.638,1.6393,1.6446,1.6553,1.6553,1.6607,1.67,1.67,1.67,1.67,1.67,1.6647,1.6553,1.6553,1.6486,1.638,1.6286,1.5952,1.5498,1.5284,1.5204,1.5164,1.4856,1.4937,1.5164,0.0,0.0,0.0,1.4515,1.3886,1.3338,1.3218,1.3142,1.316,1.3287,1.4233,1.5189,1.6026,1.7576,1.8839,1.9524,2.0172,2.0101,1.9013,1.7823,1.6699,1.5694,1.5078,1.5859,1.8184,1.9473,2.0488,2.123,2.1953,2.2441,2.2672,2.2672,2.2828,2.3081,2.2808,2.2672,2.2652,2.2422,2.1484,2.0117,1.9668,1.8203,1.623,0.0,0.0,0.0,0.0,0.0,0.0,0.0,0.0,0.0,0.0,0.0,0.0,0.0,0.0,0.0,0.0,0.0,0.0,0.0,0.0,0.0,0.0,0.0,0.0,0.0,0.0,0.0,0.0,0.0,0.0,0.0,0.0,0.0,0.0,0.0,1.1852,1.3252,1.3531,1.3775,1.4159,1.4488,1.4702,1.4689,1.5502,1.6122,1.6406,1.642,1.6513,1.67,1.6807,1.6901,1.7007,1.7101,1.7208,1.7301,1.7301,1.7301,1.7301,1.7208,1.6994,1.6714,1.6807,1.6687,1.642,1.662,1.6473,1.6112,1.6019,1.5979,1.5965,1.5824,1.5784,1.5758,0.0,1.5536,1.4971,1.4606,1.3886,1.3338,1.3218,1.3142,1.3333,1.3984,1.5426,1.6735,1.7591,1.9207,2.0334,2.0581,2.0964,2.0386,1.8452,1.8114,1.7059,1.497,1.5752,1.7396,1.9922,2.041,2.1269,2.2539,2.2906,2.3101,2.312,2.312,2.312,2.312,2.312,2.3101,2.3101,2.3101,2.2676,2.1816,2.0508,1.9219,1.793,0.0,0.0,0.0,0.0,0.0,0.0,0.0,0.0,0.0,0.0,0.0,0.0,0.0,0.0,0.0,0.0,0.0,0.0,0.0,0.0,0.0,0.0,0.0,0.0,0.0,0.0,0.0,0.0,0.0,0.0,0.0,0.0,0.0,1.0322,1.1709,1.292,1.348,1.4378,1.5024,1.5131,1.5606,1.5908,1.5882,1.6169,1.6439,1.669,1.6727,1.6727,1.6727,1.7058,1.7353,1.7582,1.7903,1.821,1.849,1.849,1.849,1.8477,1.8142,1.7529,1.678,1.7112,1.67,1.5904,1.6513,1.6754,1.6714,1.6406,1.6286,1.6246,1.5965,1.5811,1.5811,1.665,1.5888,1.522,1.5152,1.4167,1.3338,1.3218,1.3142,1.314,1.3228,1.5071,1.6616,1.7121,1.9189,2.0569,2.0813,2.0914,2.042,1.9111,1.8118,1.7298,1.6731,1.8066,1.9629,2.1309,2.2051,2.2555,2.2925,2.3042,2.3257,2.3613,2.3613,2.3613,2.3613,2.3613,2.3437,2.3101,2.3101,2.2964,2.2691,2.207,2.084,1.9355,0.0,0.0,0.0,0.0,0.0,0.0,0.0,0.0,0.0,0.0,0.0,0.0,0.0,0.0,0.0,0.0,0.0,0.0,0.0,0.0,0.0,0.0,0.0,0.0,0.0,0.0,0.0,0.0,0.0,0.0,0.0,1.1478,1.1902,1.1781,1.2293,1.3187,1.4502,1.4739,1.5034,1.5606,1.5644,1.5695,1.5895,1.6303,1.6716,1.7029,1.7038,1.7128,1.7328,1.7422,1.7554,1.7582,1.8103,1.841,1.849,1.849,1.849,1.849,1.841,1.8237,1.8009,1.809,1.7983,1.7756,1.7649,1.7622,1.7556,1.6874,1.658,1.658,1.65,1.646,1.6406,1.6522,1.58,1.5175,1.5039,1.4167,1.3409,1.3242,1.3166,1.3208,1.3385,1.5393,1.6957,1.7479,1.9524,2.0905,2.1031,2.0955,2.0264,1.8714,1.7684,1.7676,1.8945,1.9904,2.1074,2.2383,2.2847,2.3179,2.3418,2.3418,2.3633,2.4043,2.4043,2.4043,2.4043,2.4043,2.3809,2.3418,2.3418,2.3257,2.3081,2.2828,2.1738,2.0195,2.0195,1.9238,1.7891,1.7715,1.748,1.7174,1.6758,0.0,0.0,0.0,0.0,0.0,0.0,0.0,0.0,0.0,0.0,0.0,0.0,0.0,0.0,0.0,0.0,0.0,0.0,0.0,0.0,0.0,0.0,0.0,0.0,1.228,1.3073,1.3133,1.3375,1.388,1.4814,1.4998,1.5231,1.5706,1.592,1.6149,1.6418,1.6962,1.7409,1.7754,1.7756,1.7728,1.7582,1.7943,1.8023,1.7782,1.849,1.8865,1.8865,1.8865,1.8865,1.8851,1.8731,1.8531,0.0,1.8437,1.8343,1.8116,1.8196,1.8237,0.0,0.0,0.0,0.0,0.0,1.67,1.666,1.6066,1.5558,1.504,1.4583,1.4048,1.3597,1.3266,1.3194,1.3437,1.4082,1.5988,1.7552,1.8273,2.0032,2.1167,2.1167,2.0894,1.9868,1.7936,1.7206,1.8184,2.1073,2.1249,2.1834,2.3062,2.314,2.3398,2.3789,2.3828,2.4082,2.4492,2.4492,2.4492,2.4492,2.4492,2.4258,2.3848,2.3809,2.3574,2.3159,2.312,2.2227,2.0899,2.084,2.0039,1.8909,1.8535,1.834,1.8223,1.7754,0.0,0.0,0.0,0.0,0.0,0.0,0.0,0.0,0.0,0.0,0.0,0.0,0.0,0.0,0.0,0.0,0.0,0.0,0.0,0.0,0.0,0.0,0.0,0.0,1.2662,1.3821,1.4316,1.4654,1.4835,1.4811,1.523,1.5589,1.5612,1.6302,1.682,1.7181,1.775,1.8141,1.8364,0.0,0.0,0.0,0.0,1.8568,1.8049,1.8945,1.943,1.943,1.943,1.943,1.9417,1.9092,1.8635,1.8155,1.8477,1.829,1.7822,1.833,1.8517,1.841,1.7661,1.7326,1.7259,1.6874,1.678,1.6794,1.6066,1.5822,1.5421,1.4652,1.4374,1.4022,1.3314,1.3194,1.3536,1.452,1.6069,1.7447,1.8414,1.9989,2.0955,2.0955,2.0129,1.9291,1.8472,1.8124,1.8876,2.1093,2.1562,2.2187,2.3081,2.3477,2.3711,2.3789,2.4141,2.4512,2.4941,2.4941,2.4941,2.4941,2.4941,2.4707,2.4277,2.3926,2.375,2.3633,2.3237,2.2906,2.2555,2.2266,2.1777,2.1191,2.0722,2.0371,1.9999,1.9216,1.8367,1.7834,1.8531,1.7404,0.0,0.0,0.0,0.0,0.0,0.0,0.0,0.0,0.0,0.0,0.0,0.0,0.0,0.0,0.0,0.0,0.0,0.0,0.0,1.3051,1.3857,1.4594,1.4908,1.5366,1.5584,1.5366,1.5624,1.5997,1.6439,1.66,1.6839,1.7098,1.7472,1.7749,1.7749,1.7703,1.7759,1.7919,1.8076,1.8226,1.841,1.9052,1.943,1.943,0.0,0.0,1.9417,1.9305,1.9225,1.9118,1.9172,1.9189,1.9011,1.8891,1.8704,1.8477,1.8303,1.809,1.7809,1.7313,1.7259,1.7341,1.5976,1.5844,1.5511,1.4628,1.4419,1.414,1.3314,1.3194,1.3441,1.405,1.5426,1.6781,1.7871,1.8966,1.9703,1.9959,1.9019,1.8636,1.9219,1.9206,2.0053,2.2048,2.2402,2.2672,2.3081,2.3315,2.3672,2.4102,2.4316,2.4746,2.541,2.541,2.541,2.541,2.541,2.5156,2.4707,2.4277,2.3984,2.375,2.3276,2.3101,2.3042,2.2676,2.2246,2.1855,2.1641,2.1269,2.084,2.041,1.9772,1.9239,1.9675,1.8881,1.7675,0.0,0.0,0.0,0.0,0.0,0.0,0.0,0.0,0.0,0.0,0.0,0.0,0.0,0.0,1.3313,1.279,0.0,1.3306,1.365,1.428,1.4896,1.5427,1.5837,1.5982,1.5728,1.6054,1.6459,1.6838,1.704,1.7289,1.7538,1.7848,1.798,1.798,1.8096,1.8084,1.7961,1.8359,1.8635,1.8647,1.9272,1.9555,1.9586,1.9586,1.9506,1.943,1.943,1.943,1.943,1.943,1.9301,1.9113,1.8968,1.8937,1.8931,1.8931,1.8651,1.8237,1.7929,1.7916,1.7996,1.602,1.5954,1.5601,1.4558,1.4466,1.4233,1.3314,1.3194,1.3357,1.3815,1.4905,1.6118,1.7376,1.7902,1.822,1.85,1.793,1.8207,1.9742,2.0129,2.1155,2.309,2.3144,2.3101,2.3101,2.3179,2.3608,2.4414,2.4492,2.4961,2.5693,2.5693,2.5693,2.5693,2.5693,2.5488,2.5086,2.4609,2.418,2.375,2.3276,2.3101,2.3062,2.2711,2.2324,2.1875,2.1797,2.1484,2.1073,2.1073,2.0701,2.0216,2.0216,2.0068,1.9429,1.707,1.691,0.0,0.0,0.0,0.0,0.0,0.0,0.0,0.0,1.4987,1.5024,1.4351,1.4132,1.3897,1.3417,1.3231,1.3399,1.4099,1.463,1.5185,1.5873,1.6235,1.6356,1.6151,1.6513,1.6863,1.7068,1.7416,1.7679,1.7963,1.8152,1.8353,1.8404,1.8618,1.853,1.8076,1.8718,1.9038,1.8887,1.9339,1.9637,1.9701,1.9701,1.9582,1.9474,1.9421,1.9394,1.9452,1.9399,1.9185,1.8881,1.8881,1.8997,1.9185,1.9301,1.9021,1.8595,1.8473,1.8488,1.849,1.6436,1.6436,1.5954,1.4467,1.4674,1.4605,1.3306,1.3166,1.3676,1.5009,1.5312,1.6055,1.7754,1.767,1.7213,1.6499,1.7296,1.8355,1.9548,2.0323,2.153,2.3371,2.3232,2.3101,2.3101,2.3516,2.3945,2.4414,2.4805,2.5254,2.5693,2.5693,2.5693,2.5693,2.5693,2.5488,2.5086,2.4609,2.418,2.375,2.3276,2.3101,2.3081,2.3042,2.2578,2.1836,2.1445,2.1016,2.0683,2.0683,2.0332,1.9942,1.9942,1.9466,1.8734,1.7987,1.76,1.7075,1.5594,1.4336,1.3411,1.3215,1.3789,1.4139,0.0,1.4196,1.4843,1.3541,1.3997,1.4605,1.4546,1.4691,1.4944,1.527,1.5572,1.5873,1.6187,1.6682,1.6996,1.696,1.7008,1.7056,1.7092,1.7356,1.761,1.7877,1.7948,1.8058,1.8313,1.8349,1.8459,1.8629,1.8716,1.885,1.9153,1.9216,1.9229,1.9264,1.9264,1.9434,1.965,1.9402,1.9463,1.9733,1.9479,1.9185,1.8881,1.8881,1.8765,1.8532,1.8823,1.89,1.8808,1.849,1.8467,1.8435,1.65,1.65,1.6086,1.4835,1.488,1.4674,1.3358,1.317,1.3457,1.4206,1.4484,1.5234,1.675,1.6566,1.6087,1.54,1.6188,1.7288,1.8577,2.0048,2.149,2.2843,2.3008,2.3101,2.3101,2.3276,2.3613,2.4043,2.4238,2.4551,2.4914,2.4914,2.4914,2.4914,2.4914,2.4863,2.4668,2.4238,2.3945,2.375,2.3276,2.3101,2.3101,2.3101,2.2617,2.1797,2.1094,2.041,0.0,1.9862,1.9712,1.9639,2.014,1.9716,1.8958,1.8474,1.7896,1.7172,1.6186,1.5857,1.5739,1.564,1.5934,1.6246,1.6012,1.6135,1.6025,1.5084,1.5383,1.5682,1.5239,1.5016,1.5113,1.5837,1.5789,1.5922,1.6646,1.6948,1.7153,1.7298,1.7189,1.7092,1.7092,1.7467,1.7696,1.7648,1.7937,1.8167,1.8287,1.8432,1.8579,1.8703,1.885,1.9111,1.9425,1.9425,1.9474,1.9509,1.9509,1.9481,1.9437,1.9309,1.9228,1.9192,1.9076,1.8861,1.859,1.859,1.8532,1.8415,1.8532,1.859,1.8635,1.8866,1.8863,1.87,1.65,1.6414,1.602,1.5108,1.4926,1.4513,1.3386,1.3194,1.3282,1.3533,1.3867,1.4504,1.5635,1.5517,1.5231,1.4833,1.5504,1.6605,1.8169,1.9775,2.1234,2.2546,2.2812,2.2925,2.2925,2.3042,2.3257,2.3613,2.373,2.4004,2.4414,2.4414,2.4414,2.4414,2.4414,2.4355,2.4219,2.3926,2.3711,2.3574,2.3218,2.3101,2.3081,2.2964,2.2363,2.1426,2.0703,1.9922,1.9238,1.8887,1.9004,1.9355,1.9615,1.9442,1.8998,1.835,1.7552,1.6887,1.6454,1.6484,1.6611,1.676,1.6797,1.6876,1.7157,1.6871,1.6402,1.5996,1.6121,1.6126,1.5619,1.5306,1.5403,1.6151,1.6091,1.6211,1.6984,1.7153,1.7213,1.7261,1.7165,1.7008,1.6779,1.737,1.7781,1.7817,1.8179,1.8432,1.8505,1.8686,1.8794,1.8794,1.8976,1.92,1.9456,1.9456,1.9484,1.955,1.955,1.9437,1.9285,1.9345,1.9155,1.8876,1.88,1.8661,1.8412,1.8336,1.8252,1.8181,1.8252,1.8311,1.8369,1.8894,1.8952,1.8765,1.65,1.6129,1.5668,1.5176,1.472,1.4163,1.3338,1.3194,1.3306,1.366,1.392,1.4289,1.4793,1.4833,1.4833,1.4813,1.5576,1.6904,1.883,1.9563,2.082,2.278,2.2647,2.2539,2.2539,2.2886,2.3101,2.312,2.3574,2.4004,2.4414,2.4414,2.4414,2.4414,2.4414,2.418,2.3809,2.3789,2.3555,2.312,2.3101,2.3101,2.3042,2.2695,2.1738,2.0586,2.0098,1.9648,1.9102,1.7852,1.8262,1.9104,1.7868,1.8086,1.8486,1.7306,1.6425,1.5951,1.6292,1.5375,1.4411,1.497,1.4829,1.4617,1.4753,1.4996,1.5139,1.5139,1.5357,1.5539,1.5499,1.5897,1.6247,1.6272,1.6706,1.7056,1.7092,1.731,1.7286,1.6791,1.6948,1.6791,0.0,1.6875,1.7817,1.8589,1.8662,1.8782,1.9036,1.906,1.906,1.906,1.9072,1.9072,1.9136,1.9136,1.9136,1.9124,1.9124,1.9316,1.961,1.9676,1.9521,1.9155,1.8889,1.8655,1.8404,1.8143,1.7843,1.7537,1.7901,1.8031,1.8031,1.8311,1.8415,1.8415,1.6735,1.6238,1.569,1.5288,1.4628,1.3931,1.3314,1.329,1.3278,1.319,1.3789,0.0,0.0,0.0,0.0,0.0,1.5215,1.585,1.7383,1.8472,1.959,2.086,2.1936,2.2519,2.2519,2.2656,2.2672,2.2672,2.2871,2.3008,2.3164,2.3393,2.353,2.353,2.353,2.3452,2.3359,2.3359,2.3105,2.2672,2.2672,2.2559,2.2266,2.1836,2.0859,1.9588,0.0,1.7519,1.7122,1.6672,1.6633,1.6785,1.7238,1.6992,1.6381,1.5701,1.5963,1.6283,1.5497,1.5814,1.6257,1.5791,1.5778,1.5888,1.5942,1.5631,1.5366,1.5366,1.5306,1.5234,1.5234,1.5246,1.5415,1.5934,1.603,1.6344,1.7225,1.6815,1.6682,1.7394,1.7092,0.0,0.0,0.0,0.0,1.7877,1.8541,1.8976,1.9072,1.9072,1.9072,1.9072,1.9072,1.9072,1.9072,1.9072,1.9072,1.9072,1.9072,1.9136,1.9264,1.9306,1.911,1.8852,1.8939,1.863,1.8057,1.821,1.7944,1.7479,1.7608,1.7667,1.7726,1.8018,1.8018,1.783,0.0,1.6064,1.549,1.504,1.4351,0.0,0.0,0.0,0.0,0.0,0.0,0.0,0.0,0.0,0.0,0.0,0.0,1.5508,1.6629,1.7467,1.8364,1.9377,2.0391,2.0898,2.0898,2.1504,2.166,2.1367,2.2129,2.2441,2.2305,2.2559,2.2695,2.2695,2.2695,2.2695,2.2695,2.2695,2.2617,2.248,2.2012,2.1758,2.1543,2.045,1.9338,0.0,1.6602,1.5644,1.5185,1.5185,1.5469,1.5957,1.6328,1.5916,1.5341,1.5823,1.6188,1.6384,1.6331,1.692,1.7435,1.6961,1.6836,1.6696,1.6291,1.5904,1.5644,1.5644,1.5511,1.533,1.5149,1.504,1.5197,1.5789,1.5825,1.6175,1.7322,1.6887,1.6742,1.7503,1.7237,1.7286,0.0,0.0,0.0,1.7781,1.8408,1.8794,1.8794,1.8794,1.8879,1.9072,1.9072,1.9072,1.9072,1.9072,1.9072,1.9072,1.9072,1.9072,1.9072,1.9072,1.8879,1.8553,1.8825,1.8557,1.7937,1.8117,1.7959,1.7612,1.7515,1.7479,1.7537,1.7726,1.7667,1.7537,0.0,0.0,1.5062,0.0,0.0,0.0,0.0,0.0,0.0,0.0,0.0,0.0,0.0,0.0,0.0,0.0,0.0,0.0,1.659,1.6648,1.7213,1.8442,1.8188,1.8047,1.8066,1.9705,2.0155,1.9353,2.1348,2.2148,2.1797,2.1797,2.1816,2.1816,2.1816,2.1797,2.1797,2.1816,2.1992,2.2187,2.0997,2.0684,2.0742,1.8711,1.735,1.6434,1.5195,1.4219,1.3516,1.3535,1.4933,1.6492,1.5293,1.5013,1.5506,1.7472,1.6991,1.6333,1.8525,1.8403,1.785,1.8178,1.7672,1.6832,1.5771,1.5716,1.5873,1.5813,1.5789,1.5608,1.5065,1.5161,1.5439,1.5777,1.6042,1.6489,1.7322,1.7418,1.7334,1.7129,1.7334,1.7406,1.7213,1.7889,0.0,1.83,0.0,1.8336,1.8336,1.8336,1.8565,1.906,1.9072,1.9072,1.9072,1.9072,1.9072,1.9072,1.9072,1.9072,1.9072,1.9072,1.8807,1.8348,1.8601,1.8408,1.7913,1.7913,1.7901,1.7865,1.7612,1.7562,1.7562,1.755,1.7537,1.7655,0.0,0.0,0.0,0.0,0.0,0.0,0.0,0.0,0.0,0.0,0.0,0.0,0.0,0.0,0.0,0.0,0.0,0.0,1.5742,1.6055,1.6523,1.7155,1.7993,1.8738,1.9338,1.974,2.0018,2.0175,2.0357,2.0386,2.043,2.0742,2.0938,2.0938,2.0938,2.0723,2.043,2.0762,2.0234,1.916,1.9141,1.8598,1.774,1.6894,1.6035,1.5195,1.4504,1.3938,1.3555,1.3841,1.5167,1.6687,1.6719,1.6722,1.6759,1.7045,1.7624,1.8087,1.7679,1.7973,1.8302,1.7636,1.6873,1.6147,1.5842,1.5837,1.5668,1.4871,1.4389,1.3894,1.3157,1.3085,1.3544,1.4811,1.5077,1.5535,1.673,1.6549,1.6561,1.7298,1.7443,1.7768,1.8505,1.8758,0.0,0.0,1.865,1.8879,1.8879,1.8879,1.8939,1.9072,1.9072,1.9072,1.9072,1.9072,1.9072,1.9072,1.9072,1.9072,1.9072,1.9072,1.9,1.8879,1.8951,1.8782,1.8481,1.8481,1.836,1.8155,1.7877,1.8066,1.8458,1.8257,1.8473,1.881,0.0,0.0,0.0,0.0,0.0,0.0,0.0,0.0,0.0,0.0,0.0,0.0,0.0,0.0,0.0,0.0,0.0,0.0,0.0,1.5644,1.5898,1.6102,1.6804,1.7311,1.7598,1.8634,1.9143,1.9107,1.9465,1.9813,2.0109,1.9588,1.9673,2.0226,1.9879,1.959,1.9338,1.9824,1.9336,0.0,0.0,1.7447,1.6875,1.5469,1.4766,1.4414,1.3782,1.3672,1.3958,1.5342,1.62,1.6941,1.834,1.8373,1.8039,1.8956,1.9232,1.9252,1.9222,1.9304,1.9194,1.8306,1.7344,1.6451,1.5806,1.5643,1.5432,1.4628,1.4244,1.3719,1.2745,1.2779,1.3275,1.4352,1.4739,1.5318,1.6525,1.6441,1.6549,1.7382,1.7479,1.7901,1.8976,1.9072,1.8951,0.0,1.8698,1.8734,1.8734,1.8734,1.8843,1.9072,1.9072,1.9072,1.9072,1.9072,1.9072,1.9072,1.9072,1.9072,1.9072,1.9072,1.8951,1.8746,0.0,1.8855,1.8517,1.8638,1.8601,1.842,1.8034,1.8297,1.8796,1.8517,1.8752,1.9261,0.0,0.0,0.0,0.0,0.0,0.0,0.0,0.0,0.0,0.0,1.3582,1.3963,0.0,0.0,0.0,0.0,0.0,0.0,0.0,0.0,1.5371,1.5488,1.5508,1.542,1.5222,1.7356,1.8172,1.754,1.8857,1.9775,2.0189,1.8623,1.8536,1.9676,1.8958,1.8601,1.8453,1.8919,1.8707,1.7993,1.6941,1.6719,1.6699,0.0,1.3704,1.3938,1.3223,1.3477,1.4504,1.7129,1.7564,1.7486,2.0077,2.0004,1.9423,2.1544,2.1024,2.0149,2.15,2.1147,2.021,1.9413,1.8408,1.7263,1.5931,1.5434,1.5192,1.488,1.4614,1.4144,1.3041,1.3315,1.3783,1.4206,1.4787,1.5463,1.632,1.6585,1.6875,1.7322,1.7443,1.7901,1.8976,1.9012,1.9,1.9072,1.865,1.8396,1.8396,1.8396,1.8601,1.906,1.9072,1.9072,1.9072,1.9072,1.9072,1.9072,1.9072,1.9136,1.92,1.92,1.902,1.8729,1.9132,0.0,1.8655,1.8888,1.9048,1.8937,1.8423,1.8551,1.9086,1.8757,1.9023,1.9564,0.0,0.0,0.0,0.0,0.0,0.0,0.0,0.0,0.0,1.3348,1.343,1.3827,0.0,0.0,0.0,0.0,0.0,0.0,0.0,0.0,0.0,1.5948,1.5987,1.6403,1.7319,1.8063,1.8532,1.8804,1.8952,1.912,1.9326,1.8998,1.8985,1.9212,1.9096,1.8479,1.7552,1.7961,1.7102,1.5469,1.5586,1.5225,1.4582,1.3809,0.0,0.0,1.3457,1.3685,1.4504,1.7129,1.8379,1.9238,2.1465,2.1712,2.1188,2.1335,2.1265,2.1075,2.1109,2.0949,2.0558,1.9472,1.8408,1.7528,1.7263,1.6216,1.5285,1.5276,1.4256,1.3191,1.2671,1.3014,1.3553,1.4181,1.4932,1.5342,1.5089,1.6006,1.673,1.6827,1.7213,1.7901,1.8976,1.8686,0.0,0.0,1.8988,1.8939,1.8939,1.8939,1.8976,1.9072,1.9072,1.9072,1.9072,1.9072,1.9072,1.9072,1.9072,1.9392,1.9954,1.9954,2.0157,2.0648,2.069,0.0,2.0648,2.0637,2.065,2.0624,2.0022,2.0225,2.0708,2.011,2.0319,2.0802,0.0,0.0,0.0,0.0,0.0,0.0,1.3927,1.3884,1.3711,1.3072,1.3045,1.3393,1.426,1.4859,1.5254,0.0,0.0,0.0,0.0,0.0,0.0,0.0,1.6289,1.6664,1.7268,1.8247,1.8733,1.8745,0.0,1.8645,1.9211,1.8008,1.7853,1.8617,1.8176,1.7574,1.69,1.7342,1.6596,1.5137,1.5332,1.5147,1.4699,1.4055,0.0,0.0,1.3802,1.4075,1.4766,1.6668,1.791,1.9082,2.168,2.2144,2.1577,2.1065,2.1311,2.1618,2.0812,2.0928,2.1132,2.0313,1.9228,1.8175,1.7213,1.6392,1.5575,1.4599,1.381,1.312,1.2609,1.2928,1.3702,1.4874,1.5252,1.562,1.6343,1.6579,1.6803,1.708,1.7334,1.7793,1.8589,1.8444,1.8396,1.865,1.8674,1.8794,1.906,1.9072,1.9072,1.9072,1.9072,1.9072,1.9072,1.9072,1.9072,1.9072,1.9072,1.9456,2.0081,2.0081,2.0462,2.1109,2.1109,0.0,2.0606,2.0975,2.0859,2.0593,2.0469,2.0821,2.1376,2.0722,2.0941,2.138,0.0,0.0,0.0,0.0,0.0,0.0,1.4796,1.449,1.4057,1.3215,1.3169,1.3525,1.4275,1.4783,1.5119,0.0,0.0,0.0,0.0,0.0,0.0,0.0,0.0,0.0,1.696,0.0,0.0,1.8429,1.8141,0.0,0.0,0.0,0.0,0.0,1.7618,1.7089,1.6638,1.7032,1.6497,0.0,0.0,1.541,0.0,0.0,0.0,0.0,0.0,1.4492,1.5,1.6406,1.7324,1.832,2.0879,2.1446,2.1102,2.0893,2.1353,2.1806,2.1102,2.1465,2.1844,2.1081,2.021,1.908,1.7296,1.6687,1.6039,1.4425,1.3825,1.3475,1.3027,1.3275,1.4088,1.5628,1.5481,1.5725,1.7476,1.6968,1.6706,1.7406,1.7479,1.7744,1.8396,1.836,0.0,1.8456,1.8456,0.0,1.9048,1.9072,1.9072,1.9072,1.9072,1.9072,1.9072,1.9072,1.92,1.9328,1.9328,1.9763,2.0526,2.0526,2.0906,2.1551,2.1551,0.0,0.0,2.123,2.1135,2.0571,2.0937,2.1403,2.1756,2.1219,2.1274,2.1642,0.0,0.0,0.0,0.0,0.0,0.0,1.5464,1.5768,1.5747,1.4566,1.4737,1.5055,1.5247,1.479,1.4649,0.0,0.0,0.0,0.0,0.0,0.0,0.0,0.0,0.0,0.0,0.0,0.0,1.8489,1.8559,0.0,0.0,0.0,0.0,0.0,0.0,1.7982,1.7066,1.7107,0.0,0.0,0.0,0.0,0.0,0.0,0.0,0.0,0.0,1.4746,1.5067,1.6738,1.7383,1.7617,1.8637,1.918,1.9728,2.1156,2.138,2.1409,2.2695,2.3065,2.2769,2.1285,2.0826,2.0329,1.8769,1.762,1.6707,1.6157,1.4939,1.4063,1.4346,1.4403,1.478,1.598,1.5263,1.512,1.6683,1.615,1.6079,1.7334,1.7479,1.7877,1.8903,1.8577,1.8493,1.8963,1.9,0.0,1.9072,1.9072,1.9072,1.9072,1.9072,1.9072,1.9072,1.9072,1.9392,2.0017,2.0017,2.0652,2.1915,2.1915,2.2292,2.2918,2.2918,0.0,0.0,2.2672,2.2555,2.2062,2.2334,2.2453,2.2457,2.1807,2.1638,2.1642,0.0,0.0,0.0,0.0,0.0,0.0,1.6844,1.6808,1.6402,1.4864,1.4782,1.491,1.4935,1.4631,1.4834,1.5785,1.5584,0.0,0.0,0.0,0.0,0.0,0.0,0.0,0.0,0.0,1.8409,1.8279,1.8132,0.0,0.0,0.0,0.0,0.0,0.0,1.7138,1.6622,1.6622,0.0,0.0,0.0,0.0,0.0,0.0,0.0,0.0,0.0,0.0,1.5234,1.5664,1.5996,1.6211,1.6289,1.6592,1.7168,1.8425,2.0012,2.1272,2.0944,2.2032,2.307,2.2165,2.2114,2.1688,1.9104,1.8425,1.7737,1.5644,1.4559,1.4035,1.4202,1.4065,1.4486,1.6315,1.561,1.5878,1.8758,1.7606,1.7102,1.8885,1.8443,1.8143,0.0,0.0,1.8557,1.92,1.9212,0.0,2.0259,1.989,1.9699,1.9699,2.0094,2.0284,2.0284,2.0284,2.0412,2.0716,2.0716,2.1159,2.2104,2.2104,2.248,2.3106,2.3106,0.0,0.0,2.2769,2.2623,2.1964,2.2661,2.2908,2.2857,2.2238,2.1977,2.192,0.0,0.0,0.0,0.0,0.0,1.8831,1.7866,1.7643,1.7088,1.5677,1.5492,1.5468,1.5441,1.5121,1.5293,1.6182,1.5707,0.0,0.0,0.0,0.0,0.0,0.0,0.0,0.0,0.0,1.8154,1.7963,1.7595,1.7386,0.0,0.0,1.6722,1.6835,0.0,0.0,0.0,0.0,0.0,0.0,0.0,0.0,0.0,0.0,0.0,0.0,0.0,0.0,0.0,0.0,0.0,1.5156,1.4727,1.4961,1.5624,1.6869,1.9146,2.1114,2.0303,2.1785,2.3438,2.2937,2.2687,2.1908,1.9318,1.8692,1.7916,1.5192,1.4458,1.4279,1.4189,1.3932,1.4439,1.6404,1.6046,1.6591,1.9683,1.8575,1.7996,1.9527,1.8915,1.836,1.8543,1.8703,1.9013,1.9496,0.0,0.0,2.1019,2.0843,2.0589,2.0399,2.0856,2.1109,2.1109,2.1109,2.1172,2.1425,2.1425,2.1644,2.2162,2.2333,2.2568,2.2842,2.3032,0.0,0.0,2.2754,2.2608,2.192,2.2784,2.3106,2.3047,2.2506,2.2257,2.2096,0.0,0.0,0.0,0.0,0.0,1.8806,1.8277,1.818,1.7988,1.7459,1.7387,1.7387,1.7387,1.6547,1.6036,1.6197,1.5584,0.0,0.0,0.0,0.0,0.0,0.0,0.0,1.8008,1.7744,1.7625,1.7605,1.7093,1.6797,1.6807,1.6791,1.6658,1.6431,0.0,0.0,0.0,0.0,1.6153,0.0,0.0,0.0,1.541,0.0,0.0,0.0,0.0,0.0,0.0,0.0,0.0,0.0,0.0,1.4699,1.5742,1.75,1.9238,2.0855,2.1857,2.3103,2.3985,2.3438,2.2043,2.0554,1.9516,1.8212,1.6786,1.5291,1.5009,1.4872,1.4558,1.4499,1.4878,1.6102,1.6471,1.7058,1.8523,1.8458,1.8411,1.8664,1.8499,1.8557,1.903,1.9686,2.0068,2.0068,0.0,0.0,2.1109,2.174,2.1803,2.1109,2.1109,2.1109,2.1109,2.1109,2.1425,2.2104,2.2104,2.2105,2.2213,2.2828,2.2769,0.0,0.0,0.0,0.0,2.2857,2.274,2.2242,2.2857,2.3106,2.3062,2.274,2.2432,2.214,0.0,0.0,0.0,0.0,0.0,0.0,1.8016,1.8419,1.836,1.7329,1.7208,1.7069,1.6698,1.5765,1.5366,1.581,1.5635,0.0,0.0,0.0,0.0,1.7396,1.7656,1.7734,1.7578,1.7684,1.7596,1.7348,1.741,1.7256,1.6947,1.695,1.6838,1.6687,1.6687,1.6687,0.0,1.641,1.6153,0.0,0.0,1.541,1.541,0.0,0.0,0.0,0.0,0.0,0.0,0.0,0.0,0.0,0.0,0.0,0.0,1.5898,1.7422,1.8842,1.9161,1.9916,2.0576,2.0404,2.0256,1.9699,1.8212,1.7785,1.7287,1.5632,1.5137,1.498,1.4843,1.4666,1.5186,1.7262,1.7347,1.8393,2.1951,2.1013,2.0695,2.2658,2.2511,2.1936,0.0,0.0,2.1907,0.0,0.0,0.0,2.2404,2.2668,2.248,2.1803,2.223,2.248,2.248,2.248,2.2543,2.2793,2.2793,2.2599,2.2198,2.2828,2.2769,0.0,0.0,0.0,0.0,2.293,2.2857,2.2581,2.3917,2.4456,2.4532,2.5081,2.5021,2.4662,0.0,0.0,0.0,0.0,0.0,0.0,1.7462,1.7847,1.787,1.7046,1.6948,1.6744,1.6254,1.567,1.5417,1.568,1.5715,0.0,0.0,0.0,0.0,1.7383,1.7637,1.7644,1.7342,1.7324,1.7161,1.684,1.6857,1.675,1.651,1.651,1.6535,1.6552,1.6609,1.6581,0.0,1.6381,1.6153,1.5902,1.5787,1.5671,1.5584,0.0,0.0,0.0,0.0,0.0,0.0,0.0,0.0,0.0,0.0,0.0,0.0,0.0,1.6035,1.7097,1.7718,1.8582,1.9289,1.9289,1.9064,1.8582,1.7688,1.7268,1.6719,1.5615,1.5787,1.5904,1.5153,1.5442,1.6141,1.7073,1.8064,1.9696,2.2366,2.2025,2.2095,2.3601,2.3688,0.0,0.0,2.2681,0.0,0.0,0.0,0.0,2.3091,2.3106,2.2918,2.248,2.2856,2.3106,2.3106,2.3106,2.3106,2.3106,2.3106,2.2784,2.2198,2.2828,2.2769,0.0,0.0,0.0,0.0,2.3204,2.3298,2.3673,2.4685,2.5071,2.5208,2.61,2.6199,2.5863,0.0,0.0,0.0,0.0,0.0,0.0,1.6771,1.6828,1.6856,1.68,1.6743,1.6517,1.6115,1.6061,1.5979,1.5693,1.5842,0.0,0.0,1.7062,1.716,1.7383,1.7357,1.7251,1.717,1.6708,1.6435,1.6337,1.5869,1.5691,1.5801,1.5822,1.5952,1.6189,1.6758,1.6673,1.6181,1.6296,1.6181,1.596,1.621,1.6132,0.0,0.0,0.0,0.0,0.0,0.0,0.0,0.0,0.0,0.0,0.0,0.0,0.0,0.0,0.0,0.0,0.0,1.86,1.9485,1.9485,1.8281,1.7203,1.7697,1.6562,0.0,1.5566,1.6875,1.742,1.5556,1.6838,1.7653,1.6021,1.8731,2.0923,2.0543,2.2082,0.0,0.0,2.2919,0.0,2.3148,2.3885,0.0,0.0,0.0,0.0,2.3106,2.3106,2.3106,2.3106,2.3106,2.3106,2.3106,2.3106,2.3091,2.3047,2.3091,2.2754,2.214,2.2798,2.283,0.0,0.0,0.0,0.0,2.3899,2.4085,2.5256,2.5317,2.5378,2.5513,2.6338,2.6475,2.6094,0.0,0.0,0.0,0.0,0.0,0.0,0.0,0.0,0.0,0.0,1.7079,1.6673,1.6539,1.5546,1.4997,0.0,0.0,0.0,0.0,1.6747,1.687,1.7363,1.677,1.6482,1.6658,1.6365,1.6389,1.6841,1.6992,1.6988,1.6929,1.7017,1.6955,1.6786,1.6955,1.6842,1.6637,1.6666,1.6495,1.621,1.6267,1.6267,0.0,0.0,0.0,0.0,1.5497,1.541,0.0,0.0,0.0,0.0,0.0,0.0,0.0,0.0,1.5332,1.5498,1.5883,0.0,1.6432,1.6432,1.6143,1.5864,0.0,1.5703,1.5781,1.7129,1.7734,1.7857,1.7381,1.8773,1.9434,1.7711,1.9697,2.1684,2.2349,2.464,0.0,2.3234,2.6078,2.7211,2.4542,2.6389,0.0,0.0,0.0,2.4147,2.3168,2.3106,2.3106,2.3106,2.3106,2.3106,2.3106,2.3106,2.2871,2.2403,2.2886,2.252,2.1481,2.2593,2.3306,0.0,0.0,0.0,2.6537,2.6216,2.6277,2.6641,2.7607,2.8026,2.8092,2.9004,2.9051,2.8633,0.0,0.0,0.0,0.0,0.0,0.0,0.0,0.0,0.0,0.0,1.5968,1.568,1.568,1.5131,1.4903,0.0,0.0,0.0,1.6817,1.6554,1.6625,1.7199,1.655,1.6148,1.6148,1.6058,1.6071,1.6168,1.6576,1.6738,1.6651,1.6615,1.6708,1.6899,1.6842,1.6807,1.6807,1.6807,1.6694,1.6552,1.6694,0.0,0.0,0.0,0.0,0.0,1.57,1.5526,0.0,1.5156,1.4922,1.4738,0.0,0.0,0.0,0.0,1.541,1.541,1.541,1.541,1.5605,1.6406,1.5996,1.5625,1.6426,1.5977,1.5868,1.7656,1.8008,1.8008,1.8008,1.9082,1.9668,1.875,2.0352,0.0,0.0,0.0,2.6318,2.5039,2.7197,2.8086,0.0,0.0,0.0,0.0,0.0,2.4517,2.3168,2.3666,2.4038,2.4038,2.4579,2.4332,2.3106,2.3106,2.2798,2.2198,2.2813,2.2593,2.1686,2.2667,2.3641,0.0,0.0,0.0,2.7829,2.6806,2.6994,2.7907,2.8623,2.892,2.8965,2.9661,2.9766,2.9492,0.0,0.0,0.0,0.0,0.0,0.0,0.0,0.0,0.0,0.0,0.0,0.0,0.0,0.0,0.0,0.0,0.0,0.0,1.6938,1.6497,1.6446,1.6971,1.6385,1.5947,1.5739,1.5624,1.5545,1.5463,1.5682,1.5805,1.5888,1.5732,1.6106,1.6914,1.6857,1.6843,1.6864,1.6864,1.6864,1.6892,1.7194,0.0,0.0,0.0,0.0,0.0,0.0,0.0,0.0,1.5312,1.5273,1.5206,1.5293,0.0,0.0,0.0,0.0,0.0,1.5488,1.5508,1.5918,1.7598,1.6758,1.5957,1.7637,1.666,1.5977,1.7988,1.8398,1.8418,1.8496,1.9531,2.0137,1.9394,2.0918,0.0,2.5369,2.6187,2.6631,2.6989,2.7618,0.0,0.0,0.0,0.0,0.0,0.0,2.5133,2.3775,2.4764,2.5378,2.5378,2.6415,2.5912,2.3728,2.3728,2.3275,2.2483,2.329,2.326,2.2498,2.3121,2.4209,2.5635,0.0,0.0,2.9061,2.7239,2.7598,2.9235,2.9235,2.9235,2.9242,2.9487,2.9626,2.9509,0.0,0.0,0.0,0.0,0.0,0.0,0.0,0.0,0.0,0.0,0.0,0.0,0.0,0.0,0.0,0.0,0.0,0.0,1.7251,1.6612,1.6446,1.6971,1.5723,1.5277,1.5859,1.4774,1.5029,1.6726,1.5656,1.5353,1.5745,1.6203,1.6821,1.7556,1.7723,1.7585,1.7222,1.7222,1.7222,1.7222,1.7278,0.0,0.0,0.0,0.0,0.0,0.0,0.0,0.0,1.4967,1.4629,1.4367,1.4766,0.0,0.0,0.0,0.0,0.0,1.5889,1.5987,1.632,1.7656,1.6973,1.6359,1.7695,1.666,1.6309,1.9549,2.0214,2.0293,2.0664,2.3242,2.3984,1.9941,2.166,2.3997,0.0,0.0,2.7882,2.7591,0.0,0.0,0.0,0.0,0.0,0.0,0.0,2.7787,2.6459,2.6598,2.6719,2.6719,2.69,2.684,2.6399,2.6415,2.5551,2.3862,2.5567,2.5474,2.3819,2.4511,2.6095,2.8247,0.0,2.808,3.0567,3.0257,3.0276,3.0587,3.0587,3.0587,3.0529,2.9826,2.9626,2.9509,0.0,0.0,0.0,0.0,0.0,0.0,0.0,0.0,0.0,0.0,0.0,0.0,0.0,0.0,0.0,0.0,1.559,1.5782,1.6243,1.6542,1.66,1.6356,1.5801,1.5583,1.5785,1.5149,1.5184,1.5911,1.5761,1.5744,1.5827,1.6622,1.7263,1.7752,1.7658,1.7497,1.7306,1.7306,1.7306,1.7306,0.0,0.0,0.0,0.0,0.0,0.0,0.0,0.0,0.0,0.0,1.5137,1.5176,1.5137,0.0,0.0,0.0,0.0,0.0,1.5644,1.5909,1.6633,1.8828,1.7891,1.7187,2.0079,1.8325,1.7194,2.1152,2.0293,1.9451,2.125,2.2695,2.334,2.2539,2.4551,2.6426,2.7031,2.7793,2.8398,0.0,0.0,0.0,0.0,0.0,0.0,0.0,0.0,0.0,2.7048,2.7667,2.8026,2.8026,2.8701,2.9135,2.9135,2.9135,2.7771,2.5136,2.6406,2.6312,2.5152,2.5824,2.7125,2.8842,0.0,2.871,3.0859,3.0371,3.0469,3.0898,3.0898,3.0898,3.0781,2.9902,2.9277,2.8828,0.0,0.0,0.0,0.0,0.0,0.0,0.0,0.0,0.0,0.0,0.0,0.0,0.0,0.0,0.0,0.0,1.5811,1.5888,1.5818,1.658,1.6779,1.6189,1.6208,1.6098,1.5797,1.5487,1.5307,1.5321,1.5632,1.5997,1.6371,1.6991,1.7593,1.8149,1.7824,1.76,1.7513,1.7513,1.7513,1.7513,0.0,0.0,0.0,0.0,0.0,0.0,0.0,0.0,0.0,0.0,0.0,0.0,0.0,0.0,0.0,1.5508,1.541,1.543,1.5527,1.5831,1.675,1.947,1.834,1.7701,2.2148,1.9787,1.7915,2.2223,2.0703,1.9375,2.1992,2.2207,2.2734,2.5,2.6855,2.8144,2.8535,2.8594,2.8906,0.0,0.0,0.0,0.0,0.0,0.0,0.0,0.0,0.0,2.7949,2.8861,2.9353,2.9353,3.0333,3.0898,3.0898,3.0898,2.9464,2.6673,2.7505,2.7487,2.6691,2.7225,2.8146,2.9316,2.8336,2.9008,3.084,3.0156,3.0273,3.0898,3.0898,3.0762,3.0488,2.9707,2.8945,2.8301,0.0,0.0,0.0,0.0,0.0,0.0,0.0,0.0,0.0,0.0,0.0,0.0,0.0,0.0,0.0,0.0,1.5669,1.616,1.7192,1.696,1.6949,1.7252,1.6863,1.6465,1.6067,1.4964,1.498,1.6208,1.4975,1.5485,1.7645,1.742,1.7985,1.9183,1.8892,1.854,1.8126,1.8126,1.8126,1.8126,1.8126,0.0,0.0,0.0,0.0,0.0,0.0,0.0,0.0,0.0,0.0,0.0,0.0,0.0,1.5449,1.543,1.541,1.5508,1.5928,1.6065,1.6535,1.8286,1.7422,1.7376,2.2132,1.9824,1.7915,2.2223,2.2555,2.2578,2.3984,2.4199,2.4648,2.6055,2.6758,2.7656,2.9258,0.0,0.0,0.0,0.0,0.0,0.0,0.0,0.0,0.0,0.0,0.0,3.0645,3.0704,3.0762,3.0762,3.082,3.0898,3.0898,3.0898,3.0177,2.871,3.0001,2.9943,2.871,2.8706,2.9471,3.0704,2.9356,2.9611,3.0879,3.082,3.084,3.0898,3.0898,3.0391,2.9609,2.9141,2.8672,2.8301,0.0,0.0,0.0,0.0,0.0,0.0,0.0,0.0,0.0,0.0,0.0,1.6651,1.6538,0.0,0.0,0.0,1.5845,1.5904,1.6414,1.6655,1.6902,1.7199,1.7296,1.7141,1.6715,1.6102,1.6128,1.6797,1.6767,1.7518,1.8998,1.8719,1.8986,1.9639,1.8902,1.8483,1.8303,1.8233,1.8263,1.8303,1.8233,1.8093,0.0,0.0,0.0,0.0,0.0,0.0,0.0,0.0,1.5312,1.5195,1.5352,1.541,1.541,1.541,1.541,1.5449,1.5605,1.5889,1.6692,1.9199,1.834,1.7988,2.2187,2.084,1.9941,2.4277,2.3535,2.2519,2.3789,2.4902,2.5898,2.666,2.7578,2.8516,2.9434,0.0,0.0,0.0,0.0,0.0,0.0,0.0,0.0,0.0,0.0,0.0,3.0898,3.0898,3.0898,3.0898,3.0898,3.0898,3.0898,3.0898,3.0645,3.0157,3.0645,3.0645,3.0157,3.0157,3.0392,3.0879,3.0333,3.045,3.0898,3.0898,3.0898,3.0859,3.0566,3.0098,2.9512,2.9082,2.8544,2.8067,0.0,0.0,0.0,0.0,0.0,0.0,0.0,0.0,1.6205,0.0,0.0,0.0,0.0,1.6218,0.0,0.0,1.6048,1.6094,1.6128,1.6764,1.7177,1.7292,1.7494,1.7513,1.7292,1.7089,1.6919,1.688,1.7791,1.8818,1.9873,1.9803,1.9944,2.0221,1.9362,1.8934,1.8818,1.8627,1.8533,1.8511,1.8501,1.8289,0.0,0.0,0.0,0.0,0.0,0.0,0.0,0.0,1.543,1.5342,1.5342,1.5352,1.541,1.541,1.541,1.541,1.541,1.5625,1.6515,1.9138,1.859,1.8398,2.2223,2.1541,2.123,2.5156,2.4766,2.3887,2.4492,2.5703,2.6641,0.0,2.7773,2.8715,2.9361,0.0,0.0,0.0,0.0,0.0,0.0,0.0,0.0,0.0,0.0,0.0,0.0,3.0898,3.0898,3.0898,3.0898,3.0898,3.0898,3.0898,3.0898,3.0898,3.0898,3.0898,3.0898,3.0898,3.0898,3.0898,3.0898,3.0898,3.0898,3.0898,3.0801,3.0625,3.0176,2.9746,2.9316,2.8887,2.8373,2.7906,0.0,0.0,0.0,0.0,0.0,0.0,0.0,0.0,1.7462,1.8247,1.8019,0.0,0.0,0.0,0.0,0.0,1.6315,1.6812,1.6607,1.7353,1.7755,1.7701,1.7564,1.7564,1.7681,1.7564,1.7164,1.6434,1.762,1.8911,2.0318,2.0488,2.0745,2.0963,2.0496,2.0112,1.9761,1.946,1.9119,1.8818,1.8998,1.8894,1.8574,0.0,0.0,0.0,0.0,0.0,0.0,0.0,1.5478,1.5215,1.5215,1.5284,1.5381,1.543,1.543,1.5381,1.543,1.54,1.584,1.7578,1.7715,1.8418,2.2204,2.1816,2.1486,2.4499,2.6495,2.7454,2.6543,2.6738,2.6894,2.6465,2.7129,2.8019,0.0,0.0,0.0,0.0,0.0,0.0,0.0,0.0,0.0,0.0,0.0,0.0,0.0,3.0898,3.0898,3.0898,3.0898,3.0898,3.0898,3.0898,3.0898,3.0898,3.0898,3.0898,3.0898,3.0898,3.0898,3.0898,3.0898,3.0898,3.0898,3.0879,3.0605,3.0156,2.9726,2.9297,2.8867,2.8437,2.8121,2.7906,0.0,0.0,0.0,0.0,0.0,0.0,0.0,0.0,1.5332,1.5801,1.5776,0.0,0.0,0.0,0.0,0.0,0.0,0.0,1.7199,1.718,1.7227,1.7339,1.757,1.7589,1.7339,1.7304,1.7566,1.8081,1.8657,1.9513,2.0725,2.0126,1.9948,2.017,2.0636,2.0218,1.9165,2.0162,2.0024,1.9152,1.9098,1.8707,1.8093,0.0,0.0,0.0,0.0,0.0,0.0,0.0,0.0,0.0,1.5186,1.5244,1.5476,1.6619,1.6212,1.5624,1.6671,1.6437,1.6289,1.7993,1.8773,1.9707,2.1777,2.2324,2.3066,2.5488,2.6641,2.6883,2.5827,2.6756,0.0,2.6679,2.7569,0.0,0.0,0.0,0.0,0.0,0.0,0.0,0.0,0.0,0.0,0.0,0.0,0.0,0.0,3.0235,3.0274,3.0509,3.0567,3.0645,3.0898,3.0898,3.0898,3.0898,3.0898,3.0898,3.0898,3.0898,3.0898,3.0898,3.0898,3.0762,3.0548,3.0258,3.016,3.0137,2.9394,2.9023,2.8867,2.8437,2.8121,2.7906,0.0,0.0,0.0,0.0,0.0,0.0,1.4909,1.4841,1.5104,1.5923,1.5951,1.6136,0.0,0.0,0.0,0.0,0.0,0.0,1.7531,1.7558,1.7457,1.7201,1.7357,1.7341,1.7081,1.7063,1.751,1.8361,1.8779,1.9381,2.0091,1.9879,1.9809,1.9824,2.0398,2.012,1.926,2.0212,2.0072,1.9252,1.9285,1.8784,1.8006,0.0,0.0,0.0,0.0,0.0,0.0,0.0,0.0,0.0,1.499,1.5525,1.621,1.6555,1.6465,1.6471,1.748,1.7342,1.7422,1.9787,2.0293,2.0644,2.248,2.3418,2.4473,2.6484,2.7226,2.726,2.648,2.7265,0.0,2.7022,0.0,0.0,0.0,0.0,0.0,0.0,0.0,0.0,0.0,0.0,0.0,0.0,0.0,0.0,0.0,2.9922,2.9981,3.0216,3.0333,3.0509,3.0704,3.082,3.0898,3.0898,3.0898,3.082,3.0704,3.082,3.0898,3.0898,3.0762,3.0587,3.0353,2.9988,2.9775,2.9713,2.9033,2.8665,2.847,2.8218,2.7906,2.7584,0.0,0.0,1.425,1.3839,0.0,0.0,1.5661,1.579,1.6211,1.7653,1.7696,1.7585,0.0,0.0,0.0,1.7894,0.0,0.0,1.7549,1.81,1.805,1.722,1.7012,1.6908,1.6908,1.6908,1.7132,1.7647,1.822,1.866,1.8889,1.9641,1.9833,1.9637,1.9913,1.9872,1.9589,1.9749,1.9505,1.894,1.9291,1.8839,1.8065,1.8065,0.0,0.0,0.0,0.0,0.0,0.0,0.0,0.0,1.4736,1.5908,1.7083,1.5789,1.6459,1.7686,1.81,1.8149,1.8887,2.2009,2.1777,2.1466,2.4062,2.4961,2.5771,2.7434,2.7969,2.8096,2.7887,2.8014,2.8014,2.7422,0.0,0.0,0.0,0.0,0.0,0.0,0.0,0.0,0.0,0.0,0.0,0.0,0.0,0.0,0.0,2.9804,2.9804,2.9863,3.0157,3.0333,3.0333,3.0645,3.082,3.082,3.082,3.0704,3.0392,3.0704,3.082,3.084,3.0509,3.0372,3.0296,2.9834,2.9392,2.897,2.8567,2.8199,2.7853,2.7853,2.753,2.7043,0.0,0.0,1.6174,1.6114,0.0,0.0,1.6513,1.6462,1.6678,1.7276,1.7297,1.7515,1.8168,1.8237,0.0,1.8501,1.8415,0.0,0.0,1.7343,1.7174,1.6978,1.6943,1.6908,1.6908,1.6908,1.6978,1.7063,1.7225,1.7747,1.8582,1.834,1.8203,1.8198,1.9613,1.9349,1.7895,1.9014,1.8805,1.7693,1.7788,1.7461,1.692,1.692,1.6593,0.0,0.0,0.0,0.0,0.0,0.0,0.0,1.4695,1.4978,1.5526,1.6595,1.7312,1.8058,1.937,1.9383,1.9258,2.0352,2.1367,2.2871,2.5801,2.6523,2.6894,2.7949,2.7538,2.7064,2.7416,2.7368,2.726,0.0,0.0,0.0,0.0,0.0,0.0,0.0,0.0,0.0,0.0,0.0,0.0,0.0,0.0,0.0,2.9213,2.9213,2.9331,2.9568,2.9686,2.9804,2.9981,3.0098,3.0216,0.0,3.0509,3.045,3.0392,3.045,3.0509,3.0509,3.0157,2.9966,2.9872,2.8937,2.8446,2.8271,2.778,2.7571,2.7476,2.7476,2.7422,2.7314,0.0,0.0,0.0,0.0,0.0,0.0,0.0,0.0,1.7081,1.7832,1.7997,1.8163,1.838,1.8475,0.0,0.0,1.8359,0.0,0.0,1.746,1.727,1.6908,1.6908,1.6908,1.6908,1.6908,1.6908,1.6908,1.7081,1.7461,1.8022,1.7647,1.7681,1.8129,1.8762,1.8601,1.7949,1.8863,1.8792,1.8019,1.807,1.7606,1.6906,1.67,1.6128,1.5443,1.5278,0.0,0.0,0.0,0.0,0.0,0.0,0.0,1.5867,1.607,1.6751,1.7685,1.8739,1.9406,2.0139,2.1658,2.3379,2.498,2.6083,2.6929,2.7544,2.8043,2.7665,2.7281,2.74,2.726,2.7098,0.0,0.0,0.0,0.0,0.0,0.0,0.0,0.0,0.0,0.0,0.0,0.0,0.0,0.0,2.8792,2.8975,2.8975,2.9094,2.9272,2.945,2.9568,2.9686,2.9863,2.9981,3.0157,3.0157,3.0098,2.9981,3.0098,3.0157,3.0138,2.9596,2.937,2.9259,2.8295,2.7865,2.7807,2.7375,2.7206,2.7206,2.7206,2.7116,2.7008,0.0,0.0,0.0,0.0,0.0,0.0,0.0,0.0,0.0,1.858,1.8928,1.8864,1.8382,1.8499,1.8411,0.0,0.0,0.0,0.0,0.0,0.0,1.6943,1.6908,1.6908,1.6908,1.6908,1.6908,1.6908,1.722,1.7578,1.7896,1.7837,1.8081,1.8611,1.8325,1.8272,1.8395,1.8535,1.8532,1.841,1.8343,1.7788,1.7017,1.6563,1.5877,1.5102,1.4673,1.4538,1.455,1.4353,0.0,0.0,0.0,0.0,1.6396,1.5086,1.5848,1.722,1.7632,1.9062,2.1103,2.3673,2.5411,2.6345,2.5956,2.6795,2.768,2.7761,2.7799,2.7638,2.7368,2.726,0.0,0.0,0.0,0.0,0.0,0.0,0.0,0.0,0.0,0.0,0.0,0.0,0.0,0.0,0.0,2.8425,2.8755,2.8773,2.8773,2.8773,2.9068,2.9226,2.9226,2.9496,2.9651,2.9691,2.9691,2.9536,2.9285,2.9479,2.9576,2.9672,2.9025,2.8685,2.8555,2.7846,2.7475,2.7382,2.7084,2.6935,2.6935,2.6935,2.6791,2.6646,0.0,0.0,0.0,0.0,0.0,0.0,0.0,0.0,0.0,0.0,1.8958,1.8898,1.821,1.8173,1.8045,1.7623,1.764,1.7455,1.7018,0.0,0.0,1.6908,1.6908,1.6908,1.6908,1.6908,1.6908,1.6908,1.6943,1.7876,1.9601,1.9993,1.9806,1.9234,1.9899,1.9402,1.7896,1.6992,1.6723,1.682,1.6138,1.5958,1.6041,1.5691,1.565,1.5664,1.4809,1.4693,1.4869,1.445,1.4381,0.0,0.0,0.0,1.4842,1.4721,1.5912,1.7323,1.751,1.9259,2.1564,2.3537,2.4217,2.4784,2.6172,2.6654,2.6916,0.0,2.726,2.7098,2.7043,0.0,0.0,0.0,0.0,0.0,0.0,0.0,0.0,0.0,0.0,0.0,0.0,0.0,0.0,0.0,2.7914,2.7932,2.7987,2.7987,2.7987,2.7987,2.7987,2.8044,2.8044,2.8413,2.8695,2.8967,2.8967,2.8723,2.8387,2.8159,2.8401,2.8948,2.848,2.8089,2.7753,2.7382,2.7032,2.6719,2.6664,2.6646,2.6646,2.6646,2.6646,2.6591,0.0,0.0,0.0,0.0,0.0,0.0,0.0,0.0,0.0,0.0,0.0,1.8396,1.7825,1.777,1.7605,1.7202,1.7532,1.77,1.751,1.751,1.7339,1.6908,1.6908,1.6908,1.6908,1.6908,1.6908,1.6908,1.7116,1.8378,2.061,2.1324,2.1291,2.062,2.111,2.0311,1.8596,1.8355,1.7816,1.7022,1.6585,1.6357,1.6256,1.5841,1.5615,1.5455,1.5021,1.4781,1.4687,1.4492,1.4484,1.4582,1.4364,0.0,0.0,0.0,1.4958,1.5886,1.8112,1.9525,2.1032,2.3782,2.4249,2.4439,2.5996,2.6346,2.647,2.7037,2.6954,2.6845,2.6989,0.0,0.0,0.0,0.0,0.0,0.0,0.0,0.0,0.0,0.0,0.0,0.0,0.0,0.0,0.0,2.7435,2.7583,2.7803,2.7822,2.7822,2.7822,2.7822,2.7822,2.7822,2.8005,2.8097,2.8251,2.8251,2.8159,2.7992,2.7601,2.7768,2.8233,2.7844,2.7549,2.7364,2.6995,2.6738,2.6591,2.6591,2.6591,2.6591,2.6591,2.6591,2.6591,0.0,0.0,0.0,0.0,0.0,0.0,0.0,0.0,0.0,0.0,0.0,0.0,1.7651,0.0,0.0,0.0,1.7662,1.7935,1.7731,1.7731,1.7476,1.6943,1.7,1.7,1.6908,1.7,1.7,1.6908,1.7185,1.849,2.0649,2.1665,2.2081,2.2005,2.2139,2.1362,2.0007,1.9925,1.9109,1.777,1.767,1.7199,1.6528,1.613,1.581,1.5532,1.5328,1.5043,1.4775,1.4592,1.459,1.4611,1.4459,1.4308,0.0,0.0,0.0,1.5243,1.8641,1.9492,2.0206,2.3383,2.3733,2.3648,2.4968,2.5447,2.5727,0.0,2.6589,2.6627,0.0,0.0,0.0,0.0,0.0,0.0,0.0,0.0,0.0,0.0,0.0,0.0,0.0,0.0,0.0,0.0,2.7031,2.716,2.7509,2.7528,2.7528,2.7528,2.7528,2.7528,2.7528,2.762,2.7675,2.7675,2.7675,2.762,2.7453,2.716,2.7196,2.7509,2.716,2.7031,2.7013,2.6719,2.6591,2.6591,2.6591,2.6591,2.6591,2.6591,2.6591,2.6591,0.0,0.0,0.0,0.0,0.0,0.0,0.0,0.0,0.0,0.0,0.0,0.0,1.7974,1.7974,1.7954,1.7935,1.7969,1.7696,1.7012,1.6978,1.6943,1.6908,1.7257,0.0,1.6908,1.7275,1.7275,1.6908,1.6908,1.7788,1.9421,2.0618,2.1814,2.3027,2.2955,2.2656,2.2019,2.0581,1.9596,1.8889,1.8765,1.7823,1.6477,1.6261,1.6313,1.6437,1.5815,1.5552,1.5449,1.4858,1.4611,1.4514,1.4648,1.4802,1.5016,0.0,0.0,0.0,1.857,1.8994,1.9357,2.1607,2.1594,2.1409,2.2617,0.0,2.4282,2.5282,2.6113,2.6591,0.0,0.0,0.0,0.0,0.0,0.0,0.0,0.0,0.0,0.0,0.0,0.0,0.0,0.0,0.0,0.0,2.6628,2.6628,2.6646,2.6646,2.6646,2.6646,2.6646,2.6646,2.6646,2.7013,2.7215,2.7215,2.7215,2.7013,2.6646,2.6628,2.6628,2.6646,2.6628,2.6628,2.6609,2.6591,2.6591,2.6591,2.6591,2.6591,2.6591,2.6591,2.6591,2.6591,0.0,0.0,0.0,0.0,0.0,0.0,0.0,0.0,0.0,0.0,0.0,0.0,0.0,1.7304,1.7304,1.7304,1.7731,1.7901,1.7628,1.7613,1.7407,1.6908,1.7037,1.7055,1.6908,1.7037,1.7037,1.6908,1.6908,1.7734,1.9311,1.9751,2.0763,2.2276,2.3905,2.3627,2.199,2.1945,2.0501,1.8388,1.9387,1.8711,1.716,1.7884,1.8102,1.7827,1.6985,1.7017,1.7243,1.5881,1.5585,1.5703,1.4924,1.4654,1.4598,1.4486,1.5391,1.6728,1.8031,1.8787,1.9539,2.1055,2.1091,2.0979,2.1868,2.301,2.3966,2.4165,2.5472,2.6426,0.0,0.0,0.0,0.0,0.0,0.0,0.0,0.0,0.0,0.0,0.0,0.0,0.0,0.0,0.0,0.0,0.0,2.6041,2.6554,2.6096,2.6041,2.6573,2.6591,2.6591,2.6591,2.6719,2.6793,2.6793,2.6793,2.6719,2.6591,2.6591,2.6591,2.6591,2.6591,2.6591,2.6591,2.6591,2.6591,2.6591,2.6591,2.6591,2.6591,2.6591,2.6591,2.6591,0.0,0.0,0.0,1.8341,0.0,1.869,1.8509,1.8254,1.7983,1.7779,0.0,0.0,0.0,0.0,1.7716,1.7716,1.7662,1.7628,1.7628,1.7628,1.7407,1.6908,1.7165,1.7183,1.6908,1.7312,1.7312,1.6908,1.7037,1.7587,1.8504,1.8907,1.9758,2.1052,2.2953,2.3236,2.2264,2.3295,2.2043,1.9451,2.0524,2.0004,1.8694,1.9373,1.9373,1.9089,1.9078,1.8942,1.8648,1.7813,1.735,1.698,1.6197,1.5556,1.5059,1.5063,1.5985,1.725,1.8181,1.8998,1.9752,2.0606,2.0737,2.0767,2.1142,2.2624,2.3815,2.3588,2.5161,2.6426,0.0,0.0,0.0,0.0,0.0,0.0,0.0,0.0,0.0,0.0,0.0,0.0,0.0,0.0,0.0,0.0,0.0,0.0,2.6554,2.6078,2.6023,2.6573,2.6591,2.6591,2.6591,2.6591,2.6591,2.6591,2.6591,2.6591,2.6591,2.6591,2.6591,2.6591,2.6591,2.6591,2.6591,2.6591,2.6591,2.6591,2.6591,2.6591,2.6591,2.6591,2.67,2.6845,1.911,1.8476,1.7799,1.7081,1.7662,1.7949,1.7132,1.7677,1.7915,1.7063,0.0,0.0,0.0,0.0,0.0,1.9243,1.7799,1.6908,1.6908,1.6908,1.6908,1.6908,1.766,1.7715,1.6927,1.8064,1.8082,1.6908,1.7293,1.7275,1.6927,1.81,1.8936,1.945,2.0179,2.1346,2.2907,2.4441,2.3939,2.212,2.2181,2.1687,2.0897,2.048,2.0163,2.0145,2.189,2.1142,1.9592,2.0637,1.9755,1.823,1.834,1.7468,1.6523,1.711,1.7648,1.825,0.0,0.0,0.0,2.0189,2.0459,2.054,2.0309,2.2145,2.3771,2.3529,2.5087,2.6518,0.0,0.0,0.0,0.0,0.0,0.0,0.0,0.0,0.0,0.0,0.0,0.0,0.0,0.0,0.0,0.0,2.6573,2.6554,2.6591,2.6591,2.6591,2.6591,2.6591,2.6591,2.6591,2.6591,2.6591,2.6591,2.6591,2.6591,2.6591,2.6591,2.6591,2.6591,2.6591,2.6591,2.6591,2.6591,2.6591,2.6646,2.6591,2.6591,2.6646,2.6591,2.6954,2.7368,1.8408,1.8509,1.8509,1.7799,1.8307,1.8924,1.9354,1.9056,1.8723,0.0,0.0,0.0,1.7579,1.7579,1.7579,1.7579,1.7166,1.6908,1.6908,1.6908,1.6908,1.6908,1.7128,1.7147,1.6908,1.7238,1.7238,1.6908,1.7018,1.7018,1.6908,1.7257,1.7475,1.7673,1.9146,1.9834,2.0008,2.249,2.2131,2.0215,2.3267,2.2408,1.9599,2.207,2.1882,2.0508,2.1857,2.2164,2.1876,2.1564,2.09,1.9938,1.8622,1.7267,1.622,1.6509,1.7048,1.7644,1.7861,0.0,0.0,0.0,0.0,0.0,2.0053,2.1275,2.2609,2.2882,2.4146,0.0,0.0,0.0,0.0,0.0,0.0,0.0,0.0,0.0,0.0,0.0,0.0,0.0,0.0,0.0,0.0,0.0,2.6041,2.5968,2.6554,2.6591,2.6591,2.6591,2.6591,2.6591,2.6591,2.6591,2.6591,2.6591,2.6591,2.6591,2.6591,2.6591,2.6591,2.6591,2.6591,2.6591,2.6591,2.6591,2.6845,2.7171,2.6755,2.6845,2.7116,2.6755,2.67,2.6899,1.8957,1.8944,1.8877,1.8509,1.8811,1.9276,1.9737,1.9156,1.869,0.0,0.0,0.0,1.7457,1.7457,1.7457,1.7457,1.7097,1.6908,1.6908,1.6908,1.6908,1.6908,1.7055,1.7073,1.6908,1.7238,1.7238,1.6908,1.7073,1.7073,1.6908,1.6908,1.6908,1.6945,1.7967,1.834,1.8341,2.049,2.1118,2.0866,2.3064,2.3047,2.1963,2.3796,2.3541,2.2474,2.3927,2.4114,2.3698,2.3688,2.27,2.1307,2.0256,1.8846,1.7708,1.856,1.8933,1.9056,1.9095,1.9841,2.052,2.0081,0.0,0.0,2.0488,2.1803,2.3186,0.0,2.4392,0.0,0.0,0.0,0.0,0.0,0.0,0.0,0.0,0.0,0.0,0.0,0.0,0.0,0.0,2.6591,2.6591,2.6591,2.6151,2.6096,2.6554,2.6591,2.6591,2.6591,2.6591,2.6591,2.6591,2.6591,2.6591,2.6591,2.6591,2.6591,2.6591,2.6591,2.6591,2.6591,2.6845,2.6954,2.6954,2.6954,2.7008,2.7062,2.6954,2.7116,2.7368,2.7333,2.7333,2.7387,0.0,1.9573,1.911,1.9011,1.9144,1.921,1.9044,1.859,1.822,0.0,1.7442,1.7323,1.8042,1.8212,1.8231,1.8169,1.747,1.7037,1.7037,1.7,1.6963,1.6963,1.7257,1.7257,1.6908,1.7623,1.7642,1.6908,1.7292,1.7292,1.6908,1.6943,1.6961,1.6963,1.6927,1.71,1.7562,1.86,2.0411,2.2566,2.2258,2.3551,2.5632,2.5327,2.4952,2.4863,2.6683,2.6244,2.5065,2.6201,2.4777,2.2593,2.2598,2.1352,2.0133,2.1621,2.1678,2.13,2.1354,2.1456,2.1568,2.1493,2.1995,0.0,2.1339,2.2936,2.4409,2.3769,2.4949,0.0,0.0,0.0,0.0,0.0,0.0,0.0,0.0,0.0,0.0,0.0,0.0,0.0,2.6591,2.6591,2.6646,2.67,2.67,2.67,2.67,2.6646,2.6591,2.6591,2.6591,2.6591,2.6591,2.6591,2.6591,2.6591,2.6591,2.6591,2.6591,2.6591,2.6591,2.6646,2.7171,2.7368,2.7441,2.7476,2.7225,2.6809,2.7171,2.7368,2.753,2.8014,2.8228,2.8408,2.0226,1.9966,1.9704,1.911,1.9044,1.9044,1.9011,1.8911,1.8623,1.807,1.7867,1.7762,1.7649,1.8181,1.8386,1.8136,1.7954,1.788,1.788,1.7568,1.7385,1.7385,1.7147,1.6982,1.6908,1.7055,1.7073,1.6908,1.7294,1.7294,1.6908,1.722,1.7388,1.7367,1.7037,1.7127,1.7492,1.7402,1.8595,2.0686,2.288,2.3643,2.373,2.5558,2.5245,2.4024,2.6019,2.6111,2.5389,2.6047,2.5709,2.4719,2.3577,2.2373,2.1267,2.0626,2.0475,2.0526,2.0524,2.1305,2.2046,0.0,2.2598,0.0,2.2272,2.2353,2.2913,0.0,2.3448,2.3449,0.0,0.0,0.0,0.0,0.0,0.0,0.0,0.0,0.0,0.0,0.0,0.0,2.6591,2.6591,2.6809,2.7225,2.7225,2.7225,2.7225,2.6845,2.6591,2.6591,2.6591,2.6591,2.6591,2.6591,2.6591,2.6591,2.6591,2.6591,2.6591,2.6591,2.6591,2.6646,2.7171,2.7368,2.7422,2.7906,2.8087,2.7872,2.7062,2.7333,2.8067,2.7691,2.7853,2.8408,2.0777,2.0355,1.9966,1.9606,1.9129,1.9056,1.9813,1.9274,1.8897,1.9168,1.8348,1.782,1.8048,1.7877,1.7757,1.7807,1.7642,1.7605,1.7807,1.7605,1.7587,1.7807,1.7785,1.7782,1.7782,1.7782,1.7782,1.7782,1.78,1.7582,1.7202,1.76,1.7693,1.7495,1.7513,1.7621,1.7763,1.7346,1.8488,2.0643,2.2299,2.3437,2.4354,2.6188,2.6371,2.5784,2.6811,2.6976,2.659,2.6439,2.6107,0.0,2.5211,2.3963,2.2579,0.0,2.1978,2.1643,0.0,0.0,0.0,2.2322,0.0,0.0,0.0,2.2823,2.3212,2.3762,2.3695,2.3627,2.3896,0.0,0.0,0.0,0.0,0.0,0.0,0.0,0.0,0.0,0.0,0.0,2.7008,2.7279,2.7549,2.7799,2.8101,2.7994,2.7422,2.7422,2.726,2.7008,2.7008,2.7116,2.7441,2.7441,2.7441,2.7441,2.7441,2.7441,2.7441,2.7441,2.7441,2.7495,2.8014,2.8228,2.8281,2.8548,2.8708,2.8601,2.7764,2.7603,2.7853,2.8174,2.8281,2.8408,2.1339,2.0732,2.0291,2.0291,1.9586,1.9396,2.0552,1.961,1.901,1.9848,1.8771,1.8207,1.8891,1.8186,1.786,1.8265,1.8082,1.7954,1.7954,1.81,1.8229,1.8339,1.849,1.8655,1.8783,1.856,1.8485,1.859,1.8173,1.7788,1.7385,1.7806,1.7861,1.7623,1.788,1.823,1.8638,1.8267,1.9492,2.1787,2.2351,2.3625,2.5341,2.6902,2.7455,2.7509,2.773,2.7822,2.7693,2.703,2.6547,2.6386,2.6761,2.5411,0.0,0.0,0.0,0.0,0.0,0.0,0.0,0.0,0.0,2.2925,0.0,0.0,0.0,0.0,0.0,0.0,0.0,0.0,0.0,0.0,0.0,0.0,0.0,0.0,0.0,0.0,0.0,0.0,0.0,2.7806,2.8377,2.8422,2.925,2.923,2.8101,2.8223,2.8223,2.7887,2.7584,2.7691,2.8281,2.8301,2.8301,2.8301,2.8301,2.8301,2.8301,2.8301,2.8301,2.8354,2.8867,2.9026,2.8973,2.9375,2.9323,2.892,2.8441,2.8087,2.7853,2.8654,2.8814,2.8727,2.1486,2.1115,2.1106,2.1106,2.072,2.0396,2.0216,1.9602,1.8964,1.8434,1.9031,1.9736,2.0208,2.0453,2.0702,2.1188,2.1485,2.1083,1.971,2.0301,2.0246,1.9219,1.8542,1.8471,1.9112,1.8132,1.7776,1.8091,1.7732,1.7366,1.6982,1.7385,1.7724,1.8008,1.7715,1.8781,2.071,2.0319,2.1696,2.4193,2.5332,2.5189,2.4638,2.7488,2.7548,2.6352,2.7436,2.7822,2.7751,0.0,2.7342,2.7299,0.0,2.5904,2.4383,2.4492,0.0,0.0,0.0,0.0,0.0,0.0,2.4582,0.0,0.0,0.0,2.3195,2.3176,0.0,0.0,0.0,0.0,0.0,0.0,0.0,0.0,0.0,0.0,0.0,0.0,0.0,0.0,0.0,2.7434,2.8728,2.8978,3.0824,3.1469,3.0411,2.9399,2.9137,2.9629,2.8189,2.7691,2.8281,2.8301,2.8301,2.8301,2.8301,2.8301,2.8301,2.8301,2.8301,2.8354,2.8867,2.8814,2.8548,3.0505,3.0141,2.8408,2.8301,2.8548,2.8867,2.8495,2.8973,2.9732,2.2412,2.1787,2.1285,2.0824,2.0464,2.0181,2.0012,1.9959,1.9974,2.0062,1.9517,1.9673,2.098,2.0671,2.0838,2.1951,2.2181,2.1998,2.1321,2.1181,2.0998,2.068,2.027,2.0003,1.9946,1.9828,1.9438,1.8757,1.8394,1.786,1.7257,1.7639,1.8043,1.8452,1.8525,1.9734,2.1773,2.1373,2.2518,2.4684,2.5226,2.5215,2.5242,2.8382,2.9239,2.8765,2.8822,2.9146,2.9374,0.0,2.8618,0.0,0.0,0.0,0.0,2.613,0.0,0.0,0.0,0.0,0.0,0.0,0.0,0.0,2.5478,0.0,2.3095,0.0,0.0,0.0,0.0,0.0,0.0,0.0,2.1734,0.0,0.0,0.0,0.0,0.0,0.0,0.0,0.0,0.0,0.0,0.0,3.0807,3.1366,3.0253,3.0939,3.109,3.039,2.9682,2.9303,2.9311,2.9311,2.9606,3.0193,3.0193,3.0193,3.0193,3.0193,2.99,2.9311,2.9501,2.9848,3.0297,3.1227,3.141,3.1154,3.1154,3.0141,2.8654,2.8708,2.9079,2.9501,2.3615,2.2708,2.1815,2.1307,2.0653,2.011,1.9773,2.043,2.1076,2.135,2.0275,2.0194,2.1916,2.0983,2.0943,2.2667,2.2923,2.2905,2.262,2.2324,2.2176,2.2373,2.1822,2.1507,2.1516,2.1267,2.069,1.9769,1.9102,1.8556,1.8053,1.8235,1.8516,1.8831,1.9259,2.0423,2.213,2.2436,2.3732,2.5646,2.6042,2.6577,2.7327,2.9005,3.0082,3.0742,3.0137,3.0312,3.0586,2.9148,2.9498,0.0,2.8951,0.0,2.6967,0.0,0.0,0.0,2.6066,0.0,0.0,0.0,0.0,0.0,0.0,0.0,0.0,0.0,0.0,0.0,0.0,0.0,0.0,2.2368,0.0,2.1272,0.0,0.0,0.0,0.0,0.0,0.0,0.0,0.0,0.0,0.0,0.0,3.1666,3.0533,3.2305,3.286,3.1876,3.1367,3.1051,3.0909,3.0909,3.1249,3.2044,3.2044,3.2044,3.2044,3.2044,3.1586,3.0909,3.0909,3.1249,3.1819,3.2275,3.2678,3.2978,3.3449,3.2022,2.9618,2.9565,2.9481,2.9396,2.5028,2.3908,2.3024,2.3159,2.1966,2.0604,1.9494,2.0945,2.1892,2.1188,2.1427,2.2053,2.3308,2.2025,2.1878,2.3963,2.4514,2.4354,2.3499,2.4221,2.4488,2.4159,2.2639,2.2544,2.413,2.17,2.0625,2.1018,1.9649,1.9152,1.942,1.9131,1.9009,1.9109,1.9605,2.0512,2.1841,2.384,2.5968,2.8066,2.9297,3.049,3.1354,0.0,2.9239,3.082,3.0801,0.0,0.0,2.9923,2.9687,0.0,0.0,0.0,0.0,0.0,0.0,0.0,0.0,0.0,0.0,2.845,0.0,0.0,0.0,0.0,2.3979,0.0,0.0,0.0,0.0,0.0,2.4173,2.2543,2.2268,0.0,0.0,0.0,0.0,0.0,0.0,0.0,0.0,0.0,0.0,0.0,0.0,0.0,3.2282,3.3291,3.4119,3.4678,3.3105,3.2504,3.3101,3.3101,3.3101,3.3151,3.3151,3.3151,3.3151,3.3151,3.3151,3.3101,3.3101,3.2778,3.2381,3.4019,3.3749,3.2482,3.4117,3.4042,3.2851,3.1235,3.0349,2.9889,2.5481,2.4649,2.4026,2.352,2.244,2.1494,2.1048,2.1135,2.1724,2.2992,2.2877,2.3312,2.4988,2.4647,2.4702,2.5674,2.6628,2.6719,2.5637,2.6601,2.6762,2.58,2.6428,2.5956,2.4183,2.4461,2.3671,2.1712,2.077,2.0052,1.9544,1.9178,1.9087,1.9251,1.9907,2.1094,2.2692,2.4467,2.6321,2.8178,0.0,2.9374,2.9849,0.0,3.1519,3.2076,3.2076,3.2076,0.0,3.1099,3.1195,3.164,3.1264,3.0512,3.0015,3.1402,3.0005,0.0,0.0,0.0,2.9947,3.0853,0.0,0.0,0.0,0.0,0.0,0.0,0.0,0.0,0.0,0.0,2.3853,2.2523,2.1995,2.1317,0.0,0.0,0.0,0.0,0.0,0.0,0.0,0.0,0.0,0.0,2.9169,0.0,0.0,3.2498,3.3674,3.3166,3.367,3.3723,3.3201,3.3201,3.3549,3.4239,3.4239,3.4239,3.4239,3.4239,3.3895,3.3201,3.3201,3.3476,3.4019,3.4581,3.4872,3.5041,3.5667,3.521,3.4042,3.2022,3.1227,3.1021,2.5661,2.5111,2.479,2.424,2.3235,2.2452,2.225,2.196,2.2495,2.4585,2.4202,2.4363,2.6037,2.5855,2.5874,2.6518,2.7031,2.7288,2.7233,2.7323,2.7611,2.8088,2.8557,2.8205,2.6853,2.6563,2.5887,2.4776,2.2623,2.1768,2.2112,2.0879,2.0219,2.0112,2.0584,2.1236,2.2057,2.4411,2.6085,2.7243,0.0,2.9048,0.0,0.0,3.201,3.2076,0.0,3.2555,3.2338,3.1988,3.225,3.2623,3.2043,3.165,3.1588,3.2478,3.1202,2.9881,3.1232,3.155,0.0,3.275,3.1411,0.0,3.0735,0.0,0.0,0.0,0.0,0.0,0.0,0.0,2.4757,2.2648,2.2171,2.1619,0.0,1.9936,0.0,0.0,0.0,0.0,0.0,0.0,0.0,2.5852,2.7569,2.8687,0.0,0.0,3.3587,3.2893,3.4477,3.5017,3.4337,3.4337,3.4678,3.5379,3.5379,3.5379,3.5379,3.5379,3.4969,3.4337,3.4337,3.4727,3.5379,3.5379,3.5763,3.6405,3.6405,3.5978,3.5162,3.3377,3.2275,3.1586,2.5661,2.53,2.5264,2.5194,2.4301,2.3412,2.3075,2.3363,2.4183,2.5798,2.5393,2.543,2.6518,2.5674,2.5454,2.6518,2.5968,2.6388,2.8187,2.668,2.7231,3.0587,2.916,2.9353,3.16,0.0,0.0,2.986,2.5163,2.4182,2.6685,2.3932,2.2217,2.1498,2.1568,2.1012,2.0232,2.3852,2.5451,2.574,2.786,2.9573,3.0741,3.0703,3.0752,3.0995,3.2248,3.2326,3.1903,3.2498,3.2669,3.2669,3.2669,3.2669,3.2669,3.2669,3.2669,3.2955,3.4099,3.4888,3.512,3.4169,0.0,0.0,0.0,0.0,3.1411,0.0,0.0,0.0,0.0,0.0,0.0,2.3175,2.2819,2.2518,2.0993,0.0,0.0,0.0,0.0,0.0,0.0,0.0,2.5335,2.4825,2.6816,2.8298,0.0,0.0,3.3721,3.3897,3.5378,3.6279,3.6405,3.6355,3.6355,3.6405,3.6405,3.6405,3.6405,3.6405,3.6405,3.6405,3.6405,3.6405,3.6405,3.6405,3.6405,3.6405,3.6405,3.6405,3.6263,3.521,3.3476,3.1688,2.5661,2.53,2.4981,2.3986,2.4154,2.4093,2.3153,2.4241,2.5342,2.5907,2.6735,2.7289,2.7474,2.7985,2.7985,2.7105,2.7655,2.7765,2.7105,2.8276,2.915,2.9434,3.1642,3.2123,3.0618,3.1319,3.1414,3.0772,2.7894,2.6444,2.6363,2.3897,2.2222,2.1312,2.1492,2.1511,2.1563,2.4248,2.6312,2.777,2.7975,2.9021,3.0518,0.0,3.1035,3.1672,3.244,3.2612,3.2498,3.2669,3.2669,3.2669,3.2669,3.2669,3.2669,3.2669,3.2669,3.2784,3.3069,3.3957,3.4856,3.5465,3.4809,3.4113,0.0,0.0,0.0,0.0,0.0,0.0,0.0,0.0,0.0,2.6314,2.4054,2.2343,0.0,0.0,0.0,2.1066,0.0,0.0,0.0,2.3351,2.4531,2.4775,2.6113,2.7469,0.0,0.0,0.0,3.3822,3.3495,3.4274,3.638,3.5554,3.5554,3.6405,3.6405,3.6405,3.6405,3.6405,3.6405,3.6405,3.6405,3.6405,3.6405,3.6405,3.6405,3.6405,3.6405,3.6405,3.6263,3.521,3.3944,3.2901,2.5661,2.5445,2.5121,2.3754,2.5363,2.619,2.4304,2.5216,2.647,2.7465,2.8105,2.8596,2.8796,2.9434,2.9489,2.8572,2.8315,2.826,2.8407,2.8593,2.9236,3.0521,3.2639,3.2987,3.1359,3.2597,0.0,3.1965,2.88,2.7577,2.806,2.4508,2.2644,2.2209,2.183,2.1769,2.2092,2.489,2.7079,2.8684,2.8657,2.9565,0.0,3.073,3.1289,3.2268,3.2555,3.2555,3.2326,3.2612,3.2669,3.2669,3.2669,3.2669,3.2669,3.2669,3.2669,3.2669,3.2669,3.3593,3.4747,3.5913,3.5916,3.5912,3.7045,3.6207,3.5027,0.0,0.0,0.0,0.0,0.0,0.0,0.0,0.0,0.0,0.0,0.0,0.0,0.0,2.2774,0.0,0.0,2.315,2.423,2.475,2.5611,2.6625,0.0,0.0,0.0,3.2064,3.2893,3.3822,3.4972,3.4299,3.455,3.5655,3.5655,3.5952,3.6405,3.6405,3.6405,3.6405,3.6405,3.6405,3.6405,3.6405,3.6405,3.6405,3.6405,3.6405,3.631,3.5715,3.4824,3.3993,2.5661,2.5588,2.548,2.4228,2.6821,2.8343,2.6043,2.6586,2.7789,2.9255,2.925,2.936,2.9965,3.0185,3.0241,3.013,2.8553,2.8425,3.0424,2.8389,2.8622,3.215,3.2571,3.265,3.2641,3.2843,3.3077,0.0,2.93,2.8406,3.0551,2.5616,2.3416,2.3475,2.2422,2.215,2.2667,2.5613,2.7721,2.9059,2.9545,3.0575,3.1677,3.1141,3.1692,3.2669,3.2669,3.2383,3.2018,3.2498,3.2669,3.2669,3.2669,3.2784,3.2955,3.2955,3.2955,3.2955,3.2955,3.3818,3.4914,3.5772,3.7073,3.8372,3.9258,3.9218,3.8969,3.8894,3.809,3.6784,0.0,0.0,0.0,0.0,0.0,0.0,0.0,0.0,0.0,0.0,0.0,0.0,0.0,0.0,2.4098,2.465,2.5176,0.0,0.0,0.0,0.0,3.0131,3.2692,3.3822,3.3294,0.0,3.3696,3.4926,3.4801,3.5328,3.6505,3.6505,3.6556,3.6631,3.6631,3.6631,3.6631,3.6556,3.648,3.6405,3.6405,3.6405,3.6405,3.6405,3.581,3.5017,2.5661,2.5801,2.5977,2.5187,2.6065,2.7033,2.7322,2.9184,3.0081,2.8763,2.9415,2.9782,2.925,3.0094,3.0424,2.9745,2.9672,0.0,0.0,0.0,0.0,3.0569,3.1614,3.1998,3.1641,3.3635,3.4747,0.0,0.0,3.0988,3.14,2.7089,2.4531,2.3556,2.3051,2.3783,2.5578,2.5912,2.7663,3.0078,2.9991,3.0561,3.156,3.2132,3.252,3.2669,3.2669,3.2612,3.2555,3.2669,3.2669,3.2669,3.2669,3.3388,3.4211,3.4211,3.4211,3.4211,3.4211,3.5002,3.5695,3.4947,3.7126,3.9206,3.8372,3.8899,3.9421,3.902,3.8768,3.8215,3.686,0.0,0.0,0.0,0.0,0.0,0.0,0.0,0.0,0.0,0.0,2.597,0.0,0.0,0.0,0.0,0.0,0.0,0.0,0.0,0.0,0.0,3.106,0.0,0.0,0.0,3.4117,3.6103,3.5152,3.5529,3.7036,3.7036,3.7287,3.7713,3.7713,3.7713,3.7688,3.7236,3.6832,3.6405,3.6405,3.6405,3.6405,3.6405,3.6263,3.6121,2.7514,2.6995,2.672,2.6768,2.841,2.9759,0.0,3.2292,3.3272,3.0983,3.1347,3.1999,3.2268,3.2838,3.3034,3.2603,3.2152,3.2055,3.2311,3.1879,3.2016,3.2858,3.3882,3.3906,3.2917,3.459,3.5344,3.4978,0.0,3.0974,3.1376,2.7199,2.5131,2.4908,2.5098,2.5787,0.0,2.7922,2.9218,3.0615,3.116,3.1655,3.2126,3.2561,3.2669,3.2669,3.2669,3.2669,3.2669,3.2669,3.2669,3.2669,3.2669,3.3558,3.4379,3.3762,3.4413,3.5223,3.4636,3.5333,3.6185,3.6263,3.7524,3.8764,3.8816,3.9258,3.9622,3.9346,3.9069,3.8341,3.6659,3.4374,0.0,0.0,0.0,0.0,0.0,0.0,0.0,0.0,0.0,0.0,0.0,0.0,0.0,0.0,0.0,0.0,0.0,0.0,0.0,0.0,0.0,0.0,0.0,0.0,0.0,3.5504,3.5232,3.5855,3.7186,3.7487,3.7764,3.8015,3.8015,3.8015,3.799,3.7713,3.7462,3.7211,3.7211,3.7211,3.7211,3.7211,3.7211,3.7136,2.9823,2.8885,2.8253,2.9183,3.1228,3.2682,3.2512,3.4202,3.4987,3.3512,3.3352,3.3819,3.4881,3.4943,3.4923,3.4718,3.3959,3.3832,3.461,3.3914,3.3935,3.4839,3.5848,3.5762,3.4645,3.5591,3.5993,0.0,0.0,0.0,0.0,2.8091,2.6373,2.6448,0.0,0.0,0.0,0.0,3.0905,3.136,3.2437,3.2934,3.3016,3.3016,3.3016,3.3016,3.3016,3.3016,3.2996,3.2913,3.2809,3.2669,3.2669,3.3558,3.4379,3.3649,3.4725,3.6077,3.5388,3.5881,3.6727,3.7394,3.7897,3.8425,3.9154,3.9517,3.9697,3.9697,3.9245,3.8341,3.6463,3.5311,0.0,0.0,0.0,0.0,0.0,0.0,0.0,0.0,0.0,0.0,2.6859,0.0,0.0,0.0,0.0,2.5299,2.6706,2.7503,2.85,0.0,0.0,3.2047,3.2893,0.0,3.3796,3.5253,3.5408,3.621,3.7563,3.799,3.8241,3.8366,3.8366,3.8291,3.8191,3.8191,3.8115,3.8015,3.8015,3.8015,3.8015,3.8015,3.8015,3.7889,3.1808,3.1424,3.1389,0.0,0.0,3.2964,3.4177,3.3072,3.2835,3.4903,3.4093,3.3442,3.3568,3.3568,3.3296,3.2631,3.3122,3.3073,3.2339,3.3015,3.3412,3.3341,3.4733,3.5512,3.558,3.6751,3.7644,0.0,0.0,3.5548,0.0,3.1722,2.9658,0.0,0.0,0.0,0.0,3.0441,3.1629,3.3141,3.3265,3.3575,3.3948,3.3948,3.3948,3.3948,3.3948,3.3948,3.3886,3.3451,3.3058,3.2669,3.2669,3.3558,3.4692,3.5608,3.6022,3.6402,3.734,3.766,3.7501,3.6565,3.795,3.9258,3.8267,3.8921,3.9697,3.9697,3.9245,3.8743,3.819,3.6243,3.395,0.0,0.0,0.0,0.0,0.0,2.8542,2.7743,0.0,0.0,0.0,2.5118,0.0,0.0,2.3644,2.4639,2.7505,2.6247,2.6763,2.9704,0.0,3.0573,3.229,3.2817,3.4374,3.6935,3.5959,3.6659,3.8768,3.8768,3.9069,3.9546,3.9546,3.9245,3.8844,3.8844,3.8492,3.8015,3.8015,3.8015,3.8015,3.8015,3.8015,3.799,0.0,0.0,0.0,0.0,0.0,0.0,0.0,3.5794,3.6252,3.7604,3.593,3.517,3.6764,3.6946,3.6794,3.6524,3.679,3.6796,3.644,3.6725,3.6888,3.6795,3.7405,3.7783,3.7881,3.7918,3.8549,0.0,0.0,0.0,0.0,0.0,0.0,0.0,0.0,3.3292,3.3153,3.3646,3.3868,3.3782,3.3782,3.3906,3.4132,3.4132,3.4132,3.4132,3.4132,3.4132,3.409,3.3844,3.3492,3.3078,3.2809,3.3558,3.458,3.5057,3.6154,3.734,3.7791,3.8449,3.8868,3.8425,3.8973,3.9569,3.9102,3.9362,3.9697,3.9697,3.9521,3.9294,3.8961,3.7842,3.6376,0.0,0.0,0.0,0.0,0.0,0.0,3.0543,0.0,2.9436,0.0,2.7488,2.5841,2.619,0.0,2.3976,2.6064,2.6448,0.0,3.0483,0.0,3.2256,3.4675,3.46,3.5454,3.7186,3.7437,3.8015,3.8919,3.922,3.9496,3.9697,3.9697,3.9572,3.9371,3.9371,3.922,3.9019,3.9019,3.9019,3.9019,3.9019,3.9019,3.9019,3.5379,0.0,3.3795,0.0,3.5611,3.6457,3.6789,3.7759,3.8553,3.893,3.7456,3.6964,3.8537,3.873,3.8616,3.8403,3.8571,3.8612,3.8286,3.8579,3.8667,3.8665,3.9055,0.0,3.9544,3.9062,3.9523,4.0821,3.7995,0.0,0.0,0.0,0.0,0.0,3.6936,3.6818,3.5999,3.642,3.6092,3.5344,3.5011,3.4918,3.4984,3.4646,3.4465,3.4465,3.4465,3.4465,3.4445,3.438,3.4348,3.4185,3.3215,3.3869,3.4914,3.458,3.61,3.7897,3.7897,3.8764,3.9697,3.9697,3.9697,3.9697,3.9697,3.9697,3.9697,3.9594,3.9645,3.9594,3.9206,3.8883,3.8113,3.6358,0.0,0.0,0.0,0.0,0.0,0.0,3.047,3.0055,3.1781,2.8956,2.7241,0.0,0.0,0.0,0.0,0.0,0.0,0.0,0.0,0.0,0.0,3.5328,3.6107,3.7688,3.8542,3.8994,3.912,3.9521,3.9697,3.9697,3.9697,3.9697,3.9697,3.9697,3.9697,3.9697,3.9697,3.9697,3.9697,3.9697,3.9697,3.9697,3.515,3.5376,3.5785,3.704,3.8365,3.8815,3.7576,3.7834,3.8154,3.8227,3.8537,3.8357,3.7396,3.7309,3.7035,3.6289,3.6881,3.6947,3.5994,3.6809,3.7207,0.0,0.0,3.9579,4.0165,4.0165,4.0803,4.2093,0.0,0.0,3.8818,0.0,3.6552,3.7076,3.7621,3.787,3.787,3.7893,3.8113,3.8343,3.706,3.6812,3.7106,3.5869,3.5397,3.5397,3.5397,3.5397,3.5335,3.4961,3.5558,3.6199,3.4047,3.4649,3.5968,3.4858,3.61,3.7897,3.7897,3.8764,3.9697,3.9697,3.9697,3.9697,3.9697,3.9697,3.9645,3.9362,3.9542,3.9542,3.8893,3.905,3.8384,3.5771,0.0,0.0,0.0,0.0,0.0,3.0995,2.9027,2.8457,3.034,2.8553,0.0,0.0,0.0,0.0,0.0,0.0,0.0,2.9754,2.9649,0.0,3.3136,3.4198,3.6107,3.8894,3.8919,3.917,3.9697,3.9697,3.9697,3.9697,3.9697,3.9697,3.9697,3.9697,3.9697,3.9697,3.9697,3.9697,3.9697,3.9697,3.9697,3.9697,3.5871,3.6974,3.7881,3.7221,3.8306,3.9321,3.9242,3.9391,3.9575,3.9919,4.0083,4.005,3.9733,3.9688,3.9575,0.0,3.8757,3.8478,0.0,3.8447,3.8459,3.8885,3.8524,3.8503,3.8815,3.926,3.9812,4.0414,0.0,0.0,0.0,3.9434,3.9873,4.1112,4.1299,4.0878,4.0083,4.0083,3.9637,3.8928,3.8517,3.8489,3.8566,3.8149,3.7429,3.6724,3.6724,3.6135,3.5397,3.5252,3.6355,3.7542,3.6084,3.6099,3.6824,3.7317,3.7678,3.8056,3.8868,3.9413,3.9697,3.9697,3.9697,3.9697,3.9697,3.9697,3.9645,3.9362,3.9362,3.9258,3.8631,3.8631,3.8167,3.6598,3.6616,0.0,0.0,0.0,0.0,0.0,3.148,3.0946,3.2288,3.0962,0.0,0.0,0.0,0.0,0.0,0.0,0.0,0.0,3.3364,0.0,3.6408,3.6408,3.7236,3.8868,3.9245,3.9521,3.9697,3.9697,3.9697,3.9697,3.9697,3.9697,3.9697,3.9697,3.9697,3.9697,3.9697,3.9697,3.9697,3.9697,3.9697,3.9697,3.6436,3.7798,3.8822,3.7817,3.8862,3.9859,3.9969,4.037,4.0655,4.067,4.1092,4.1397,4.1397,4.1397,0.0,4.0846,4.0071,3.9854,4.0295,3.9755,3.9581,4.0058,3.9252,3.8901,3.9101,3.9546,0.0,4.0562,4.116,4.143,4.143,4.143,4.1982,4.2986,4.2986,4.2569,4.181,4.181,4.1329,4.0582,4.0094,3.9919,3.9861,3.9393,3.8684,3.8029,3.8029,3.7188,3.6175,3.6664,3.765,3.8641,3.8407,3.8583,3.884,3.8271,3.8503,3.8904,3.8995,3.9362,3.9697,3.9697,3.9697,3.9697,3.9697,3.9697,3.9594,3.9206,3.9206,3.9102,3.8526,3.8421,3.8202,3.7521,3.7484,3.7304,3.6807,0.0,0.0,0.0,0.0,0.0,0.0,3.2932,3.2366,0.0,0.0,0.0,0.0,0.0,0.0,3.4145,3.5061,0.0,3.7688,3.7563,3.8065,3.917,3.9521,3.9697,3.9697,3.9697,3.9697,3.9697,3.9697,3.9697,3.9697,3.9697,3.9697,3.9697,3.9697,3.9697,3.9697,3.9697,3.9697,3.9697,3.7002,3.8057,3.896,0.0,4.0,0.0,4.0009,4.0892,4.1406,4.0704,4.1568,4.2275,4.2275,4.2275,4.1885,4.1007,0.0,0.0,0.0,4.062,4.0499,4.0522,4.0259,4.0279,4.0636,4.0636,4.1142,4.2174,4.2737,4.2986,4.2986,4.2986,4.2986,4.2986,4.2986,4.2986,4.2986,4.2986,4.2986,4.293,4.1696,4.1215,4.11,3.9919,3.9393,3.9334,3.9334,3.8506,3.761,3.8803,3.9275,3.951,4.0755,4.1636,4.1599,3.8335,3.8846,4.0137,3.8514,3.8841,3.9697,3.9697,3.9697,3.9697,3.9697,3.9645,3.949,3.8893,3.905,3.905,3.8473,3.8368,3.8368,3.8368,3.8133,3.795,3.7878,0.0,0.0,0.0,0.0,0.0,0.0,3.4531,3.4845,0.0,0.0,0.0,0.0,0.0,3.1571,3.4173,3.5253,3.6282,3.7337,3.7864,3.8642,3.9697,3.9697,3.9697,3.9697,3.9697,3.9697,3.9697,3.9697,3.9697,3.9697,3.9697,3.9697,3.9697,3.9697,3.9697,3.9697,3.9697,3.9697,3.9697,0.0,0.0,4.0689,3.9916,4.1005,4.1903,4.1713,4.1926,4.2063,4.1896,4.2109,4.2275,4.2275,4.2275,4.2184,4.1994,4.1099,4.0814,4.1352,4.0685,4.0422,4.0856,3.9868,3.9499,3.9837,3.9892,4.0862,4.2818,4.2905,4.2986,4.2986,4.2986,4.2986,4.2986,4.2986,4.2986,4.2986,4.2986,4.2986,4.2986,4.2681,4.2569,4.2513,4.2206,4.1501,4.0639,4.0639,3.9861,3.8803,3.9098,3.9861,4.0673,4.0985,4.1882,4.2579,4.1329,4.0778,4.0423,4.0034,3.979,3.9697,3.9697,3.9542,3.9362,3.9362,3.9206,3.8945,3.8841,3.8684,3.8526,3.8133,3.808,3.808,3.808,3.8027,3.7685,3.6892,3.6098,0.0,0.0,3.4607,3.4823,3.4703,3.5986,3.6133,0.0,0.0,0.0,0.0,3.476,3.5409,3.7638,3.7939,3.8417,3.9094,3.922,3.9421,3.9697,3.9697,3.9697,3.9697,3.9697,3.9697,3.9697,3.9697,3.9697,3.9697,3.9697,3.9697,3.9697,3.9697,3.9697,3.9697,3.9697,3.9697,3.9697,4.0154,4.1107,4.1742,4.1191,4.1788,4.2275,4.2275,4.2275,4.2275,4.2275,4.2275,4.2275,4.2275,4.2275,4.2275,4.2275,4.1706,4.1514,4.188,4.1367,4.1145,4.1462,4.0752,4.0445,4.0626,4.0849,4.1614,4.2986,4.2986,4.2986,4.2986,4.2986,4.2986,4.2986,4.2986,4.2986,4.2986,4.2986,4.2986,4.2986,4.2986,4.2986,4.2986,4.2986,4.2569,4.198,4.198,4.1157,4.0152,4.0731,4.0985,4.1215,4.181,4.2457,4.2911,4.2665,4.1932,4.1153,4.0492,4.0195,3.9971,3.9592,3.9413,3.9258,3.9102,3.8945,3.8788,3.8631,3.8526,3.8315,3.8027,3.7974,3.7974,3.7974,3.7589,3.706,3.6483,3.5737,0.0,3.5136,3.5617,3.605,3.6242,3.7215,3.7239,3.593,3.5745,0.0,3.6871,3.6825,3.7468,3.9042,3.9194,3.9396,3.9697,3.9697,3.9697,3.9697,3.9697,3.9697,3.9697,3.9697,3.9697,3.9697,3.9697,3.9697,3.9697,3.9697,3.9697,3.9697,3.9697,3.9697,3.9697,3.9697,3.9697,3.9697,4.2275,4.2275,4.2275,4.2275,4.2275,4.2275,4.2275,4.2275,4.2275,4.2275,4.2275,4.2275,4.2275,4.2275,4.2275,4.2275,4.2275,4.2275,4.2275,4.2114,4.2024,4.2017,4.1906,4.1898,4.2062,4.2399,4.2791,4.3112,4.3011,4.2986,4.2986,4.2986,4.2986,4.2986,4.2986,4.2986,4.2986,4.2986,4.2986,4.2986,4.2986,4.2986,4.2986,4.2986,4.2986,4.2986,4.2986,4.2319,4.1558,4.2625,4.2263,4.1558,4.2681,4.2986,4.2986,4.2986,4.2715,4.2057,4.0761,4.0467,4.027,3.9407,3.9206,3.9154,3.8788,3.8736,3.8631,3.8473,3.8368,3.8262,3.8027,3.7974,3.7902,3.7661,3.694,3.6314,3.6074,0.0,3.54,3.629,3.6555,3.6988,3.7902,3.7974,3.7974,3.7974,3.757,3.7729,3.8687,3.8363,3.8491,3.9285,3.9594,3.9697,3.9697,3.9697,3.9697,3.9697,3.9697,3.9697,3.9697,3.9697,3.9697,3.9697,3.9697,3.9697,3.9697,3.9697,3.9697,3.9697,3.9697,3.9697,3.9697,3.9697,3.9697,3.9697,4.2275,4.2275,4.2275,4.2275,4.2275,4.2275,4.2275,4.2275,4.2275,4.2275,4.2275,4.2275,4.2275,4.2275,4.2275,4.2275,4.2275,4.2275,4.2275,4.227,4.2143,4.2017,4.1986,4.232,4.2971,4.3408,4.3594,4.3664,4.3212,4.2986,4.2986,4.2986,4.2986,4.2986,4.2986,4.2986,4.2986,4.2986,4.2986,4.2986,4.2986,4.2986,4.2986,4.2986,4.2986,4.2986,4.2986,4.2849,4.2737,4.2905,4.2849,4.2737,4.293,4.2986,4.2986,4.2986,4.2911,4.271,4.2082,4.1229,4.0165,3.8859,3.8736,3.8788,3.8526,3.8291,3.821,3.8368,3.821,3.8027,3.8027,3.7974,3.7541,3.6194,3.6218,3.593,3.4534,0.0,3.6218,3.6386,3.7204,3.7805,3.7974,3.7974,3.7974,3.7974,3.7935,3.8069,3.8449,3.8564,3.8877,3.931,3.9594,3.9697,3.9697,3.9697,3.9697,3.9697,3.9697,3.9697,3.9697,3.9697,3.9697,3.9697,3.9697,3.9697,3.9697,3.9697,3.9697,3.9697,3.9697,3.9697,3.9697,3.9697,3.9697,3.9697,4.2275,4.2275,4.2275,4.2275,4.2275,4.2275,4.2275,4.2275,4.2275,4.2275,4.2275,4.2275,4.2275,4.2275,4.2275,4.2275,4.2275,4.2275,4.2275,4.2275,4.2224,4.2183,4.2537,4.3085,4.3888,4.3961,4.4094,4.4242,4.3991,4.3714,4.3413,4.3413,4.3263,4.2986,4.2986,4.2986,4.2986,4.2986,4.2986,4.2986,4.2986,4.2986,4.2986,4.2986,4.2986,4.2986,4.2986,4.2986,4.2986,4.2986,4.2986,4.2986,4.2986,4.2986,4.2986,4.2986,4.2649,4.2318,4.2233,4.1247,4.0081,3.9304,3.8957,3.8684,3.8315,3.808,3.8027,3.8133,3.8104,3.7974,3.7974,3.7974,3.7733,3.7012,3.6627,0.0,0.0,3.593,3.6411,3.6411,3.7348,3.7974,3.7974,3.7974,3.7974,3.7974,3.8133,3.8262,3.8396,3.8631,3.8893,3.905,3.949,3.9697,3.9697,3.9697,3.9697,3.9697,3.9697,3.9697,3.9697,3.9697,3.9697,3.9697,3.9697,3.9697,3.9697,3.9697,3.9697,3.9697,3.9697,3.9697,3.9697,3.9697,3.9697,3.9697,4.2275,4.2275,4.2275,4.2275,4.2275,4.2275,4.2275,4.2275,4.2275,4.2275,4.2275,4.2275,4.2275,4.2275,4.2275,4.2275,4.2275,4.2275,4.2275,4.2275,4.2402,4.2529,4.3326,4.4069,4.4656,4.459,4.4611,4.4819,4.4694,4.4418,4.3991,4.3991,4.3765,4.3363,4.3212,4.3162,4.3162,4.3037,4.2986,4.2986,4.2986,4.2986,4.2986,4.2986,4.2986,4.2986,4.2986,4.2986,4.2986,4.2986,4.2986,4.2986,4.2986,4.2986,4.2986,4.2986,4.2518,4.1977,4.1963,4.1314,4.0426,3.9898,3.9402,3.8879,3.8379,3.8123,3.7974,3.7974,3.7974,3.7974,3.7974,3.7974,3.7853,3.7493,0.0,0.0,0.0,3.6314,3.6507,3.6747,3.7493,3.7974,3.7974,3.7974,3.7974,3.7974,3.821,3.8315,3.8421,3.8579,3.8736,3.8788,3.931,3.9645,3.9697,3.9697,3.9697,3.9697,3.9697,3.9697,3.9697,3.9697,3.9697,3.9697,3.9697,3.9697,3.9697,3.9697,3.9697,3.9697,3.9697,3.9697,3.9697,3.9697,3.9697,3.9697,4.2275,4.2275,4.2275,4.2275,4.2275,4.2275,4.2275,4.2275,4.2275,4.2275,4.2275,4.2275,4.2275,4.2275,4.2275,4.2275,4.2275,4.2275,4.2275,4.2275,4.2593,4.32,4.4484,4.5196,4.5232,4.5341,4.5422,4.5422,4.4895,4.4593,4.4568,4.4568,4.4543,4.4493,4.3966,4.374,4.3714,4.3187,4.2986,4.2986,4.2986,4.2986,4.2986,4.2986,4.2986,4.2986,4.2986,4.2986,4.2986,4.2986,4.2986,4.2986,4.2986,4.2986,4.2986,4.2986,4.2936,4.2699,4.1645,4.1723,4.1688,4.0348,3.978,3.9574,3.9306,3.8572,3.7974,3.7974,3.7974,3.7974,3.7974,3.7974,3.7493,3.6026,0.0,0.0,3.5737,3.6098,3.6771,3.7733,3.7926,3.7974,3.7974,3.7974,3.7974,3.7974,3.8027,3.8157,3.8421,3.8421,3.8526,3.8788,3.9154,3.9413,3.9697,3.9697,3.9697,3.9697,3.9697,3.9697,3.9697,3.9697,3.9697,3.9697,3.9697,3.9697,3.9697,3.9697,3.9697,3.9697,3.9697,3.9697,3.9697,3.9697,3.9697,3.9697,4.2275,4.2275,4.2275,4.2275,4.2275,4.2275,4.2275,4.2275,4.2275,4.2275,4.2275,4.2275,4.2275,4.2275,4.2275,4.2275,4.2275,4.2275,4.2275,4.2275,4.2759,4.3864,4.4792,4.5464,4.5914,4.598,4.5999,4.5999,4.5773,4.5497,4.5171,4.5171,4.497,4.4618,4.4392,4.4317,4.4292,4.4091,4.379,4.3489,4.3489,4.3288,4.2986,4.2986,4.2986,4.2986,4.2986,4.2986,4.2986,4.2986,4.2986,4.2986,4.2986,4.2986,4.2986,4.2986,4.2986,4.2824,4.2009,4.1824,4.1723,4.0973,4.0343,3.9745,3.9104,3.8701,3.8407,3.8046,3.7974,3.7974,3.7974,3.7974,3.7781,3.718,0.0,3.73,3.7108,3.7252,3.7541,3.7926,3.7974,3.7974,3.7974,3.7974,3.7974,3.7974,3.7974,3.8027,3.8133,3.8133,3.8368,3.8788,3.8945,3.9154,3.9413,3.9645,3.9697,3.9697,3.9697,3.9697,3.9697,3.9697,3.9697,3.9697,3.9697,3.9697,3.9697,3.9697,3.9697,3.9697,3.9697,3.9697,3.9697,3.9697,3.9697,3.9697,4.2275,4.2275,4.2275,4.2275,4.2275,4.2275,4.2275,4.2275,4.2275,4.2275,4.2275,4.2275,4.2275,4.2275,4.2339,4.2466,4.2339,4.2339,4.2466,4.2759,4.3326,4.4237,4.4915,4.5611,4.6301,4.6301,4.6301,4.6301,4.6301,4.6125,4.5748,4.5748,4.5522,4.5146,4.497,4.4895,4.4895,4.4694,4.4392,4.4066,4.4066,4.384,4.3489,4.3313,4.3237,4.3212,4.3037,4.2986,4.2986,4.2986,4.2986,4.2986,4.2986,4.2986,4.2986,4.2986,4.2986,4.293,4.2481,4.2096,4.1744,4.1489,4.0849,4.0116,3.9533,3.9231,3.8912,3.8359,3.8238,3.819,3.8022,3.7974,3.7974,3.7974,3.7974,3.7974,3.7974,3.7974,3.7974,3.7974,3.7974,3.7974,3.7974,3.7974,3.7974,3.7974,3.7974,3.7974,3.7974,3.808,3.8262,3.8526,3.8788,3.8998,3.9154,3.9517,3.9697,3.9697,3.9697,3.9697,3.9697,3.9697,3.9697,3.9697,3.9697,3.9697,3.9697,3.9697,3.9697,3.9697,3.9697,3.9697,3.9697,3.9697,3.9697,3.9697,4.2275,4.2275,4.2275,4.2275,4.2275,4.2275,4.2275,4.2275,4.2275,4.2275,4.2275,4.2275,4.2275,4.2275,4.2466,4.2759,4.2529,4.2466,4.2759,4.374,4.4299,4.4299,4.4976,4.5611,4.6301,4.6301,4.6301,4.6301,4.6301,4.6301,4.6301,4.6301,4.6301,4.6276,4.5723,4.5497,4.5447,4.4895,4.4644,4.4644,4.4644,4.4618,4.4568,4.4016,4.3815,4.374,4.3187,4.2986,4.2986,4.2986,4.2986,4.2986,4.2986,4.2986,4.2986,4.2986,4.2986,4.2986,4.2986,4.2538,4.2054,4.1663,4.1193,4.0804,4.0804,4.0193,3.9465,3.8936,3.8815,3.8647,3.8094,3.7998,3.7998,3.7974,3.7974,3.7974,3.7974,3.7974,3.7974,3.7974,3.7974,3.7974,3.7974,3.7974,3.7974,3.7974,3.7974,3.7974,3.7974,3.8238,3.8315,3.8027,3.8841,3.9154,3.8788,3.9413,3.9697,3.9697,3.9697,3.9697,3.9697,3.9697,3.9697,3.9697,3.9697,3.9697,3.9697,3.9697,3.9697,3.9697,3.9697,3.9697,3.9697,3.9697,3.9697,3.9697,4.2275,4.2275,4.2275,4.2275,4.2275,4.2275,4.2275,4.2275,4.2275,4.2275,4.2275,4.2275,4.2275,4.2275,4.2466,4.2759,4.2696,4.2696,4.2759,4.3075,4.3553,4.4299,4.5367,4.612,4.6301,4.6301,4.6301,4.6301,4.6301,4.6301,4.6301,4.6301,4.6301,4.6301,4.6125,4.6075,4.605,4.5874,4.5573,4.5221,4.5221,4.4995,4.4593,4.4443,4.4367,4.4292,4.374,4.3564,4.3489,4.3112,4.2986,4.2986,4.2986,4.2986,4.2986,4.2986,4.2986,4.2986,4.2681,4.2369,4.211,4.1972,4.1509,4.095,4.0588,4.0315,4.0018,3.9489,3.9369,3.92,3.8671,3.8575,3.8431,3.8046,3.7974,3.7974,3.7974,3.7974,3.7974,3.7974,3.7974,3.7974,3.7974,3.7974,3.7974,3.7974,3.7974,3.7974,3.7974,3.808,3.8185,3.8315,3.8526,3.8841,3.9154,3.9542,3.9697,3.9697,3.9697,3.9697,3.9697,3.9697,3.9697,3.9697,3.9697,3.9697,3.9697,3.9697,3.9697,3.9697,3.9697,3.9697,3.9697,3.9697,3.9697,3.9697,4.2275,4.2275,4.2275,4.2275,4.2275,4.2344,4.2614,4.2637,4.2637,4.2637,4.2637,4.2568,4.2298,4.2275,4.2466,4.2759,4.2949,4.3105,4.3292,4.3695,4.4174,4.4798,4.5932,4.6527,4.6326,4.6301,4.6301,4.6301,4.6301,4.6301,4.6301,4.6301,4.6301,4.6301,4.6301,4.6301,4.6301,4.6301,4.6125,4.5824,4.5824,4.5598,4.5271,4.5045,4.497,4.4895,4.4342,4.4141,4.4066,4.374,4.3489,4.3263,4.3037,4.2986,4.2986,4.2986,4.2986,4.2986,4.2737,4.2481,4.2199,4.211,4.1655,4.11,4.0787,4.0715,4.0547,4.0018,3.9922,3.9753,3.9224,3.896,3.8695,3.8359,3.8118,3.7974,3.7974,3.7974,3.7974,3.7974,3.7974,3.7974,3.7974,3.7974,3.7974,3.7974,3.7974,3.7974,3.7974,3.7974,3.808,3.8262,3.8344,3.8579,3.8945,3.9206,3.9465,3.9697,3.9697,3.9697,3.9697,3.9697,3.9697,3.9697,3.9697,3.9697,3.9697,3.9697,3.9697,3.9697,3.9697,3.9697,3.9697,3.9697,3.9697,3.9697,4.2413,4.2413,4.2413,4.2413,4.2413,4.2614,4.3096,4.3142,4.3142,4.3142,4.3142,4.2982,4.2459,4.2413,4.2581,4.2899,4.3231,4.3624,4.4048,4.5005,4.5594,4.5594,4.6539,4.6918,4.6451,4.6351,4.6301,4.6301,4.6301,4.6301,4.6301,4.6301,4.6301,4.6301,4.6301,4.6301,4.6301,4.6301,4.6301,4.6301,4.6301,4.6301,4.625,4.5748,4.5573,4.5472,4.4895,4.4694,4.4694,4.4644,4.4292,4.379,4.3212,4.3062,4.3037,4.2986,4.2986,4.2986,4.2986,4.2762,4.2425,4.2167,4.1655,4.1172,4.1172,4.1172,4.1052,4.0571,4.0475,4.0306,3.9777,3.9272,3.8936,3.8888,3.8431,3.8046,3.8046,3.8022,3.7974,3.7974,3.7974,3.7974,3.7974,3.7974,3.7974,3.7974,3.7974,3.7974,3.7974,3.7974,3.7974,3.7974,3.8262,3.8368,3.8421,3.8684,3.9102,3.9645,3.9645,3.9697,3.9697,3.9697,3.9697,3.9697,3.9697,3.9697,3.9697,3.9697,3.9697,3.9697,3.9697,3.9697,3.9697,3.9697,3.9697,3.9645,4.3487,4.3487,4.3487,4.3487,4.3487,4.3533,4.3625,4.3648,4.3648,4.3648,4.3648,4.3602,4.351,4.3487,4.3617,4.3966,4.4196,4.4199,4.3867,4.475,4.5368,4.5594,4.6511,4.7209,4.7556,4.6728,4.6301,4.6301,4.6301,4.6301,4.6301,4.6301,4.6301,4.6301,4.6301,4.6301,4.6301,4.6301,4.6301,4.6301,4.6301,4.6301,4.6301,4.6175,4.6125,4.605,4.5497,4.5296,4.5221,4.4769,4.4543,4.4342,4.379,4.3614,4.3539,4.3112,4.2986,4.2986,4.2986,4.2594,4.2167,4.211,4.1655,4.1172,4.1172,4.1172,4.1148,4.1028,4.1004,4.086,4.0331,4.0138,3.9922,3.9513,3.8984,3.8647,3.8647,3.8262,3.7974,3.7974,3.7974,3.7974,3.7974,3.7974,3.7974,3.7974,3.7974,3.7974,3.7974,3.7974,3.7974,3.7974,3.8027,3.821,3.8421,3.8684,3.8998,3.9362,3.9362,3.949,3.9697,3.9697,3.9697,3.9697,3.9697,3.9697,3.9697,3.9697,3.9697,3.9697,3.9697,3.9697,3.9697,3.9697,3.9697,3.9645,4.3808,4.3808,4.3808,4.3808,4.3808,4.39,4.4153,4.4176,4.4176,4.4176,4.4176,4.4084,4.3831,4.3808,4.4055,4.4639,4.4913,4.5031,4.5199,4.61,4.6753,4.6879,4.753,4.802,4.8309,4.7506,4.6954,4.6702,4.6451,4.6301,4.6301,4.6301,4.6301,4.6301,4.6301,4.6301,4.6301,4.6301,4.6301,4.6301,4.6301,4.6301,4.6301,4.6301,4.6301,4.6276,4.5974,4.5874,4.5799,4.5221,4.5045,4.4945,4.4367,4.4192,4.4091,4.3539,4.3564,4.3714,4.3438,4.3137,4.2878,4.2765,4.2168,4.1516,4.1254,4.1172,4.1172,4.1172,4.1172,4.11,4.0812,4.0571,4.0306,4.0018,3.9537,3.92,3.92,3.8936,3.8671,3.8407,3.8383,3.8286,3.7998,3.7974,3.7974,3.7974,3.7974,3.7974,3.7974,3.7974,3.7974,3.7974,3.7974,3.8133,3.8421,3.8526,3.8841,3.931,3.9413,3.949,3.9517,3.9645,3.9697,3.9697,3.9697,3.9697,3.9697,3.9697,3.9697,3.9697,3.9697,3.9697,3.9697,3.9697,3.9645,3.9465,4.4061,4.4061,4.4061,4.4061,4.4061,4.4222,4.4658,4.4727,4.4727,4.4727,4.4727,4.4633,4.4239,4.4325,4.4728,4.5431,4.5646,4.5981,4.6689,4.7755,4.8316,4.8316,4.8735,4.8912,4.8912,4.836,4.7807,4.7255,4.6728,4.6451,4.6451,4.6351,4.6301,4.6301,4.6301,4.6301,4.6301,4.6301,4.6301,4.6301,4.6301,4.6301,4.6301,4.6301,4.6301,4.6301,4.6301,4.6301,4.625,4.5773,4.5623,4.5522,4.4945,4.4769,4.4669,4.4116,4.4267,4.4518,4.4066,4.3883,4.3769,4.3507,4.2823,4.2005,4.1432,4.1244,4.1172,4.1172,4.1172,4.1172,4.1172,4.0836,4.0523,4.0523,4.009,3.9753,3.9753,3.9657,3.9441,3.9008,3.896,3.8767,3.831,3.819,3.8118,3.8118,3.8046,3.7974,3.7974,3.7974,3.7974,3.7974,3.7974,3.808,3.8315,3.8421,3.8733,3.9303,3.9667,3.9669,3.9362,3.9542,3.9645,3.9697,3.9645,3.9645,3.9697,3.9798,3.9848,3.9848,3.9948,3.9973,3.9973,3.9821,3.9615,3.9382,4.514,4.514,4.514,4.514,4.514,4.5231,4.5323,4.5323,4.5323,4.5323,4.5323,4.548,4.6016,4.6618,4.7005,4.6923,4.6956,4.6956,4.6949,4.7788,4.8316,4.8316,4.911,4.949,4.949,4.8937,4.8385,4.7807,4.728,4.7029,4.7004,4.6527,4.6301,4.6301,4.6301,4.6301,4.6301,4.6301,4.6301,4.6301,4.6301,4.6301,4.6301,4.6301,4.6301,4.6301,4.6301,4.6301,4.6301,4.6225,4.62,4.61,4.5547,4.5372,4.5246,4.4694,4.4568,4.4593,4.4543,4.4286,4.4078,4.3727,4.3017,4.2336,4.1987,4.1509,4.1172,4.1172,4.1172,4.1172,4.1172,4.1124,4.1076,4.1076,4.0643,4.0282,4.0282,3.9898,3.9585,3.9513,3.9489,3.9465,3.9393,3.896,3.8695,3.8695,3.8262,3.7974,3.7974,3.7974,3.7974,3.7974,3.7974,3.8027,3.8027,3.8526,3.8928,3.9287,4.0031,4.0097,3.9645,3.9413,3.9465,3.9697,3.9465,3.949,3.9722,4.0199,4.04,4.045,4.0874,4.1075,4.1,4.0312,4.0031,3.9851,4.5438,4.5438,4.5438,4.5438,4.5438,4.5438,4.5438,4.5438,4.5438,4.5438,4.5754,4.6092,4.6338,4.7098,4.7467,4.7382,4.7726,4.7865,4.7838,4.8575,4.9046,4.9046,4.94,4.959,4.959,4.9364,4.9113,4.8862,4.7983,4.7556,4.7556,4.7029,4.6778,4.6753,4.6451,4.6301,4.6301,4.6301,4.6301,4.6301,4.6301,4.6301,4.6301,4.6301,4.6301,4.6301,4.6301,4.6301,4.6301,4.6301,4.6301,4.6276,4.6024,4.5949,4.5849,4.5271,4.5321,4.5497,4.5196,4.5003,4.4827,4.4531,4.3816,4.2974,4.2365,4.189,4.1533,4.1244,4.1172,4.1172,4.1172,4.1172,4.1172,4.1172,4.098,4.0836,4.0836,4.0643,4.0379,4.009,3.9777,3.9609,3.9609,3.9393,3.9272,3.9272,3.9032,3.8888,3.8888,3.8888,3.8888,3.8888,3.8888,3.8996,3.9134,3.935,3.9712,4.0227,4.055,4.0614,4.0389,4.0389,4.0389,4.0389,4.0389,4.0283,4.0149,4.0718,4.0871,4.0736,4.096,4.0952,4.0765,4.0409,4.0256,4.0178]}]]